﻿<?xml version="1.0" encoding="utf-8"?><gpx creator="Garmin Desktop App" version="1.1" xsi:schemaLocation="http://www.topografix.com/GPX/1/1 http://www.topografix.com/GPX/1/1/gpx.xsd http://www.garmin.com/xmlschemas/WaypointExtension/v1 http://www8.garmin.com/xmlschemas/WaypointExtensionv1.xsd http://www.garmin.com/xmlschemas/TrackPointExtension/v1 http://www.garmin.com/xmlschemas/TrackPointExtensionv1.xsd http://www.garmin.com/xmlschemas/GpxExtensions/v3 http://www8.garmin.com/xmlschemas/GpxExtensionsv3.xsd http://www.garmin.com/xmlschemas/ActivityExtension/v1 http://www8.garmin.com/xmlschemas/ActivityExtensionv1.xsd http://www.garmin.com/xmlschemas/AdventuresExtensions/v1 http://www8.garmin.com/xmlschemas/AdventuresExtensionv1.xsd http://www.garmin.com/xmlschemas/PressureExtension/v1 http://www.garmin.com/xmlschemas/PressureExtensionv1.xsd http://www.garmin.com/xmlschemas/TripExtensions/v1 http://www.garmin.com/xmlschemas/TripExtensionsv1.xsd http://www.garmin.com/xmlschemas/TripMetaDataExtensions/v1 http://www.garmin.com/xmlschemas/TripMetaDataExtensionsv1.xsd http://www.garmin.com/xmlschemas/ViaPointTransportationModeExtensions/v1 http://www.garmin.com/xmlschemas/ViaPointTransportationModeExtensionsv1.xsd http://www.garmin.com/xmlschemas/CreationTimeExtension/v1 http://www.garmin.com/xmlschemas/CreationTimeExtensionsv1.xsd http://www.garmin.com/xmlschemas/AccelerationExtension/v1 http://www.garmin.com/xmlschemas/AccelerationExtensionv1.xsd http://www.garmin.com/xmlschemas/PowerExtension/v1 http://www.garmin.com/xmlschemas/PowerExtensionv1.xsd http://www.garmin.com/xmlschemas/VideoExtension/v1 http://www.garmin.com/xmlschemas/VideoExtensionv1.xsd" xmlns="http://www.topografix.com/GPX/1/1" xmlns:xsi="http://www.w3.org/2001/XMLSchema-instance" xmlns:wptx1="http://www.garmin.com/xmlschemas/WaypointExtension/v1" xmlns:gpxtrx="http://www.garmin.com/xmlschemas/GpxExtensions/v3" xmlns:gpxtpx="http://www.garmin.com/xmlschemas/TrackPointExtension/v1" xmlns:gpxx="http://www.garmin.com/xmlschemas/GpxExtensions/v3" xmlns:trp="http://www.garmin.com/xmlschemas/TripExtensions/v1" xmlns:adv="http://www.garmin.com/xmlschemas/AdventuresExtensions/v1" xmlns:prs="http://www.garmin.com/xmlschemas/PressureExtension/v1" xmlns:tmd="http://www.garmin.com/xmlschemas/TripMetaDataExtensions/v1" xmlns:vptm="http://www.garmin.com/xmlschemas/ViaPointTransportationModeExtensions/v1" xmlns:ctx="http://www.garmin.com/xmlschemas/CreationTimeExtension/v1" xmlns:gpxacc="http://www.garmin.com/xmlschemas/AccelerationExtension/v1" xmlns:gpxpx="http://www.garmin.com/xmlschemas/PowerExtension/v1" xmlns:vidx1="http://www.garmin.com/xmlschemas/VideoExtension/v1">

  <metadata>
    <link href="http://www.garmin.com">
      <text>Garmin International</text>
    </link>
    <time>2026-04-26T07:44:00Z</time>
    <bounds maxlat="59.082897696644068" maxlon="30.011910740286112" minlat="59.06169667840004" minlon="30.00365280546248" />
  </metadata>

  <trk>
    <name>Трек</name>
    <extensions>
      <gpxx:TrackExtension>
        <gpxx:DisplayColor>DarkGray</gpxx:DisplayColor>
      </gpxx:TrackExtension>
    </extensions>
    <trkseg>
      <trkpt lat="59.061833722516894" lon="30.011747376993299">
        <ele>172.21000000000001</ele>
        <time>2026-04-25T08:51:38Z</time>
      </trkpt>
      <trkpt lat="59.061813019216061" lon="30.011768583208323">
        <ele>167.41</ele>
        <time>2026-04-25T08:51:39Z</time>
      </trkpt>
      <trkpt lat="59.061823999509215" lon="30.011748885735869">
        <ele>162.59999999999999</ele>
        <time>2026-04-25T08:51:40Z</time>
      </trkpt>
      <trkpt lat="59.061822323128581" lon="30.011772522702813">
        <ele>157.78999999999999</ele>
        <time>2026-04-25T08:51:41Z</time>
      </trkpt>
      <trkpt lat="59.061819473281503" lon="30.011790711432695">
        <ele>153.47</ele>
        <time>2026-04-25T08:51:42Z</time>
      </trkpt>
      <trkpt lat="59.061819473281503" lon="30.011834632605314">
        <ele>149.13999999999999</ele>
        <time>2026-04-25T08:51:43Z</time>
      </trkpt>
      <trkpt lat="59.061817126348615" lon="30.011828178539872">
        <ele>145.30000000000001</ele>
        <time>2026-04-25T08:51:44Z</time>
      </trkpt>
      <trkpt lat="59.061808241531253" lon="30.011844104155898">
        <ele>141.44999999999999</ele>
        <time>2026-04-25T08:51:45Z</time>
      </trkpt>
      <trkpt lat="59.061799524351954" lon="30.01184519380331">
        <ele>138.09</ele>
        <time>2026-04-25T08:51:46Z</time>
      </trkpt>
      <trkpt lat="59.061793070286512" lon="30.011844439432025">
        <ele>134.24000000000001</ele>
        <time>2026-04-25T08:51:47Z</time>
      </trkpt>
      <trkpt lat="59.061788041144609" lon="30.011860113590956">
        <ele>131.36000000000001</ele>
        <time>2026-04-25T08:51:48Z</time>
      </trkpt>
      <trkpt lat="59.061796003952622" lon="30.011866567656398">
        <ele>127.98999999999999</ele>
        <time>2026-04-25T08:51:49Z</time>
      </trkpt>
      <trkpt lat="59.061805056408048" lon="30.011874111369252">
        <ele>122.70999999999999</ele>
        <time>2026-04-25T08:51:51Z</time>
      </trkpt>
      <trkpt lat="59.061813354492188" lon="30.011854246258736">
        <ele>117.42</ele>
        <time>2026-04-25T08:51:53Z</time>
      </trkpt>
      <trkpt lat="59.061814695596695" lon="30.011829938739538">
        <ele>113.09</ele>
        <time>2026-04-25T08:51:55Z</time>
      </trkpt>
      <trkpt lat="59.061815952882171" lon="30.011823149397969">
        <ele>108.29000000000001</ele>
        <time>2026-04-25T08:51:57Z</time>
      </trkpt>
      <trkpt lat="59.061817629262805" lon="30.011825328692794">
        <ele>104.44</ele>
        <time>2026-04-25T08:51:59Z</time>
      </trkpt>
      <trkpt lat="59.061800111085176" lon="30.011812085285783">
        <ele>100.59999999999999</ele>
        <time>2026-04-25T08:52:01Z</time>
      </trkpt>
      <trkpt lat="59.061788795515895" lon="30.011802278459072">
        <ele>100.59999999999999</ele>
        <time>2026-04-25T08:52:02Z</time>
      </trkpt>
      <trkpt lat="59.061787622049451" lon="30.011796494945884">
        <ele>96.75</ele>
        <time>2026-04-25T08:52:03Z</time>
      </trkpt>
      <trkpt lat="59.061770439147949" lon="30.011792303994298">
        <ele>93.870000000000005</ele>
        <time>2026-04-25T08:52:05Z</time>
      </trkpt>
      <trkpt lat="59.061748059466481" lon="30.011800099164248">
        <ele>89.540000000000006</ele>
        <time>2026-04-25T08:52:08Z</time>
      </trkpt>
      <trkpt lat="59.061736240983009" lon="30.011810157448053">
        <ele>85.689999999999998</ele>
        <time>2026-04-25T08:52:11Z</time>
      </trkpt>
      <trkpt lat="59.061722662299871" lon="30.01181535422802">
        <ele>82.329999999999998</ele>
        <time>2026-04-25T08:52:14Z</time>
      </trkpt>
      <trkpt lat="59.061713693663478" lon="30.011826502159238">
        <ele>79.450000000000003</ele>
        <time>2026-04-25T08:52:17Z</time>
      </trkpt>
      <trkpt lat="59.061706401407719" lon="30.011824825778604">
        <ele>75.599999999999994</ele>
        <time>2026-04-25T08:52:21Z</time>
      </trkpt>
      <trkpt lat="59.061701623722911" lon="30.011811666190624">
        <ele>72.719999999999999</ele>
        <time>2026-04-25T08:52:25Z</time>
      </trkpt>
      <trkpt lat="59.061705563217402" lon="30.011813174933195">
        <ele>69.349999999999994</ele>
        <time>2026-04-25T08:52:30Z</time>
      </trkpt>
      <trkpt lat="59.06169667840004" lon="30.011859526857734">
        <ele>66.469999999999999</ele>
        <time>2026-04-25T08:52:37Z</time>
      </trkpt>
      <trkpt lat="59.061697600409389" lon="30.011876290664077">
        <ele>63.100000000000001</ele>
        <time>2026-04-25T08:52:49Z</time>
      </trkpt>
      <trkpt lat="59.061697768047452" lon="30.011894144117832">
        <ele>60.219999999999999</ele>
        <time>2026-04-25T08:53:15Z</time>
      </trkpt>
      <trkpt lat="59.061730038374662" lon="30.011872267350554">
        <ele>60.219999999999999</ele>
        <time>2026-04-25T08:53:28Z</time>
      </trkpt>
      <trkpt lat="59.061721572652459" lon="30.011828932911158">
        <ele>60.219999999999999</ele>
        <time>2026-04-25T08:53:43Z</time>
      </trkpt>
      <trkpt lat="59.061760632321239" lon="30.011765481904149">
        <ele>60.219999999999999</ele>
        <time>2026-04-25T08:54:01Z</time>
      </trkpt>
      <trkpt lat="59.061731128022075" lon="30.011810157448053">
        <ele>60.219999999999999</ele>
        <time>2026-04-25T08:54:09Z</time>
      </trkpt>
      <trkpt lat="59.061724673956633" lon="30.011757016181946">
        <ele>60.219999999999999</ele>
        <time>2026-04-25T08:54:20Z</time>
      </trkpt>
      <trkpt lat="59.061725428327918" lon="30.011674035340548">
        <ele>60.700000000000003</ele>
        <time>2026-04-25T08:54:37Z</time>
      </trkpt>
      <trkpt lat="59.06174554489553" lon="30.011644950136542">
        <ele>60.700000000000003</ele>
        <time>2026-04-25T08:54:44Z</time>
      </trkpt>
      <trkpt lat="59.061786197125912" lon="30.01159742474556">
        <ele>60.700000000000003</ele>
        <time>2026-04-25T08:54:57Z</time>
      </trkpt>
      <trkpt lat="59.061779826879501" lon="30.011687446385622">
        <ele>60.700000000000003</ele>
        <time>2026-04-25T08:55:15Z</time>
      </trkpt>
      <trkpt lat="59.061756022274494" lon="30.011821473017335">
        <ele>61.659999999999997</ele>
        <time>2026-04-25T08:55:34Z</time>
      </trkpt>
      <trkpt lat="59.061822490766644" lon="30.011793058365583">
        <ele>61.659999999999997</ele>
        <time>2026-04-25T08:55:53Z</time>
      </trkpt>
      <trkpt lat="59.061853922903538" lon="30.011762548238039">
        <ele>62.140000000000001</ele>
        <time>2026-04-25T08:56:21Z</time>
      </trkpt>
      <trkpt lat="59.061828441917896" lon="30.011596838012338">
        <ele>62.140000000000001</ele>
        <time>2026-04-25T08:56:30Z</time>
      </trkpt>
      <trkpt lat="59.061832297593355" lon="30.011578062549233">
        <ele>62.140000000000001</ele>
        <time>2026-04-25T08:56:31Z</time>
      </trkpt>
      <trkpt lat="59.061827939003706" lon="30.011395001783967">
        <ele>62.140000000000001</ele>
        <time>2026-04-25T08:56:39Z</time>
      </trkpt>
      <trkpt lat="59.061834393069148" lon="30.0113345682621">
        <ele>62.140000000000001</ele>
        <time>2026-04-25T08:56:46Z</time>
      </trkpt>
      <trkpt lat="59.061887031421065" lon="30.011343453079462">
        <ele>62.140000000000001</ele>
        <time>2026-04-25T08:56:57Z</time>
      </trkpt>
      <trkpt lat="59.061923744156957" lon="30.01130229793489">
        <ele>62.619999999999997</ele>
        <time>2026-04-25T08:57:03Z</time>
      </trkpt>
      <trkpt lat="59.061969676986337" lon="30.01119576394558">
        <ele>63.100000000000001</ele>
        <time>2026-04-25T08:57:21Z</time>
      </trkpt>
      <trkpt lat="59.061988787725568" lon="30.011196853592992">
        <ele>63.100000000000001</ele>
        <time>2026-04-25T08:57:28Z</time>
      </trkpt>
      <trkpt lat="59.06200110912323" lon="30.011229543015361">
        <ele>63.100000000000001</ele>
        <time>2026-04-25T08:57:37Z</time>
      </trkpt>
      <trkpt lat="59.062038408592343" lon="30.011242954060435">
        <ele>63.100000000000001</ele>
        <time>2026-04-25T08:57:42Z</time>
      </trkpt>
      <trkpt lat="59.062078222632408" lon="30.011289305984974">
        <ele>63.100000000000001</ele>
        <time>2026-04-25T08:57:53Z</time>
      </trkpt>
      <trkpt lat="59.062163634225726" lon="30.011293916031718">
        <ele>63.100000000000001</ele>
        <time>2026-04-25T08:58:05Z</time>
      </trkpt>
      <trkpt lat="59.062264803797007" lon="30.011168774217367">
        <ele>63.100000000000001</ele>
        <time>2026-04-25T08:58:14Z</time>
      </trkpt>
      <trkpt lat="59.062297074124217" lon="30.011107083410025">
        <ele>63.100000000000001</ele>
        <time>2026-04-25T08:58:20Z</time>
      </trkpt>
      <trkpt lat="59.062338061630726" lon="30.011061150580645">
        <ele>63.100000000000001</ele>
        <time>2026-04-25T08:58:26Z</time>
      </trkpt>
      <trkpt lat="59.062394723296165" lon="30.010999795049429">
        <ele>63.100000000000001</ele>
        <time>2026-04-25T08:58:32Z</time>
      </trkpt>
      <trkpt lat="59.062386257573962" lon="30.01099593937397">
        <ele>63.100000000000001</ele>
        <time>2026-04-25T08:58:43Z</time>
      </trkpt>
      <trkpt lat="59.06241349875927" lon="30.011014631018043">
        <ele>63.579999999999998</ele>
        <time>2026-04-25T08:59:05Z</time>
      </trkpt>
      <trkpt lat="59.0623998362571" lon="30.011043380945921">
        <ele>63.579999999999998</ele>
        <time>2026-04-25T08:59:27Z</time>
      </trkpt>
      <trkpt lat="59.062410145998001" lon="30.011083530262113">
        <ele>63.579999999999998</ele>
        <time>2026-04-25T08:59:46Z</time>
      </trkpt>
      <trkpt lat="59.062420204281807" lon="30.011037765070796">
        <ele>63.579999999999998</ele>
        <time>2026-04-25T08:59:49Z</time>
      </trkpt>
      <trkpt lat="59.062483236193657" lon="30.010929135605693">
        <ele>63.579999999999998</ele>
        <time>2026-04-25T08:59:56Z</time>
      </trkpt>
      <trkpt lat="59.062543082982302" lon="30.010834001004696">
        <ele>63.579999999999998</ele>
        <time>2026-04-25T09:00:03Z</time>
      </trkpt>
      <trkpt lat="59.06260116957128" lon="30.010756384581327">
        <ele>64.069999999999993</ele>
        <time>2026-04-25T09:00:10Z</time>
      </trkpt>
      <trkpt lat="59.062683060765266" lon="30.01065781340003">
        <ele>64.069999999999993</ele>
        <time>2026-04-25T09:00:20Z</time>
      </trkpt>
      <trkpt lat="59.062784230336547" lon="30.010569551959634">
        <ele>64.069999999999993</ele>
        <time>2026-04-25T09:00:30Z</time>
      </trkpt>
      <trkpt lat="59.062863355502486" lon="30.010488918051124">
        <ele>64.069999999999993</ele>
        <time>2026-04-25T09:00:37Z</time>
      </trkpt>
      <trkpt lat="59.062929823994637" lon="30.01037978567183">
        <ele>64.069999999999993</ele>
        <time>2026-04-25T09:00:45Z</time>
      </trkpt>
      <trkpt lat="59.063025545328856" lon="30.010282974690199">
        <ele>64.069999999999993</ele>
        <time>2026-04-25T09:00:54Z</time>
      </trkpt>
      <trkpt lat="59.063084637746215" lon="30.010157413780689">
        <ele>64.069999999999993</ele>
        <time>2026-04-25T09:01:04Z</time>
      </trkpt>
      <trkpt lat="59.063169043511152" lon="30.010087508708239">
        <ele>64.069999999999993</ele>
        <time>2026-04-25T09:01:14Z</time>
      </trkpt>
      <trkpt lat="59.063293598592281" lon="30.009995894506574">
        <ele>64.069999999999993</ele>
        <time>2026-04-25T09:01:24Z</time>
      </trkpt>
      <trkpt lat="59.063359145075083" lon="30.009930348023772">
        <ele>64.069999999999993</ele>
        <time>2026-04-25T09:01:29Z</time>
      </trkpt>
      <trkpt lat="59.063447490334511" lon="30.009855916723609">
        <ele>64.069999999999993</ele>
        <time>2026-04-25T09:01:37Z</time>
      </trkpt>
      <trkpt lat="59.063498536124825" lon="30.009828759357333">
        <ele>64.069999999999993</ele>
        <time>2026-04-25T09:01:43Z</time>
      </trkpt>
      <trkpt lat="59.063611272722483" lon="30.009744437411427">
        <ele>64.069999999999993</ele>
        <time>2026-04-25T09:01:52Z</time>
      </trkpt>
      <trkpt lat="59.063648739829659" lon="30.009711245074868">
        <ele>64.069999999999993</ele>
        <time>2026-04-25T09:01:55Z</time>
      </trkpt>
      <trkpt lat="59.063743203878403" lon="30.009602280333638">
        <ele>64.549999999999997</ele>
        <time>2026-04-25T09:02:04Z</time>
      </trkpt>
      <trkpt lat="59.06383540481329" lon="30.009520305320621">
        <ele>64.549999999999997</ele>
        <time>2026-04-25T09:02:12Z</time>
      </trkpt>
      <trkpt lat="59.063918637111783" lon="30.009416872635484">
        <ele>64.549999999999997</ele>
        <time>2026-04-25T09:02:20Z</time>
      </trkpt>
      <trkpt lat="59.064020477235317" lon="30.009297011420131">
        <ele>64.549999999999997</ele>
        <time>2026-04-25T09:02:30Z</time>
      </trkpt>
      <trkpt lat="59.064086694270372" lon="30.009216293692589">
        <ele>64.549999999999997</ele>
        <time>2026-04-25T09:02:37Z</time>
      </trkpt>
      <trkpt lat="59.064174788072705" lon="30.009091990068555">
        <ele>65.030000000000001</ele>
        <time>2026-04-25T09:02:47Z</time>
      </trkpt>
      <trkpt lat="59.064268581569195" lon="30.00898621045053">
        <ele>65.030000000000001</ele>
        <time>2026-04-25T09:02:56Z</time>
      </trkpt>
      <trkpt lat="59.064353574067354" lon="30.008930722251534">
        <ele>65.030000000000001</ele>
        <time>2026-04-25T09:03:04Z</time>
      </trkpt>
      <trkpt lat="59.064466478303075" lon="30.00883910804987">
        <ele>65.030000000000001</ele>
        <time>2026-04-25T09:03:14Z</time>
      </trkpt>
      <trkpt lat="59.06458105891943" lon="30.008772891014814">
        <ele>65.510000000000005</ele>
        <time>2026-04-25T09:03:25Z</time>
      </trkpt>
      <trkpt lat="59.064734950661659" lon="30.008615897968411">
        <ele>65.510000000000005</ele>
        <time>2026-04-25T09:03:40Z</time>
      </trkpt>
      <trkpt lat="59.064870066940784" lon="30.008567534387112">
        <ele>65.510000000000005</ele>
        <time>2026-04-25T09:03:52Z</time>
      </trkpt>
      <trkpt lat="59.065024964511395" lon="30.008466280996799">
        <ele>65.989999999999995</ele>
        <time>2026-04-25T09:04:05Z</time>
      </trkpt>
      <trkpt lat="59.065185561776161" lon="30.008407020941377">
        <ele>65.989999999999995</ele>
        <time>2026-04-25T09:04:17Z</time>
      </trkpt>
      <trkpt lat="59.065285809338093" lon="30.008315490558743">
        <ele>65.989999999999995</ele>
        <time>2026-04-25T09:04:30Z</time>
      </trkpt>
      <trkpt lat="59.065391169860959" lon="30.008291350677609">
        <ele>65.989999999999995</ele>
        <time>2026-04-25T09:04:42Z</time>
      </trkpt>
      <trkpt lat="59.065436264500022" lon="30.008290763944387">
        <ele>65.989999999999995</ele>
        <time>2026-04-25T09:04:57Z</time>
      </trkpt>
      <trkpt lat="59.06547524034977" lon="30.008311215788126">
        <ele>65.989999999999995</ele>
        <time>2026-04-25T09:05:19Z</time>
      </trkpt>
      <trkpt lat="59.065495189279318" lon="30.008123377338052">
        <ele>65.989999999999995</ele>
        <time>2026-04-25T09:05:42Z</time>
      </trkpt>
      <trkpt lat="59.065521005541086" lon="30.008071577176452">
        <ele>66.469999999999999</ele>
        <time>2026-04-25T09:05:59Z</time>
      </trkpt>
      <trkpt lat="59.06546107493341" lon="30.008066045120358">
        <ele>66.469999999999999</ele>
        <time>2026-04-25T09:06:17Z</time>
      </trkpt>
      <trkpt lat="59.065442634746432" lon="30.008029164746404">
        <ele>66.469999999999999</ele>
        <time>2026-04-25T09:06:31Z</time>
      </trkpt>
      <trkpt lat="59.065477335825562" lon="30.007992032915354">
        <ele>66.950000000000003</ele>
        <time>2026-04-25T09:06:41Z</time>
      </trkpt>
      <trkpt lat="59.065531147643924" lon="30.007990272715688">
        <ele>66.950000000000003</ele>
        <time>2026-04-25T09:06:51Z</time>
      </trkpt>
      <trkpt lat="59.0655133780092" lon="30.007892455905676">
        <ele>66.950000000000003</ele>
        <time>2026-04-25T09:07:02Z</time>
      </trkpt>
      <trkpt lat="59.065460907295346" lon="30.007777959108353">
        <ele>66.950000000000003</ele>
        <time>2026-04-25T09:07:13Z</time>
      </trkpt>
      <trkpt lat="59.06536920927465" lon="30.007751388475299">
        <ele>66.950000000000003</ele>
        <time>2026-04-25T09:07:25Z</time>
      </trkpt>
      <trkpt lat="59.065359234809875" lon="30.007683662697673">
        <ele>67.430000000000007</ele>
        <time>2026-04-25T09:07:41Z</time>
      </trkpt>
      <trkpt lat="59.065382201224566" lon="30.007573608309031">
        <ele>67.430000000000007</ele>
        <time>2026-04-25T09:07:53Z</time>
      </trkpt>
      <trkpt lat="59.065306847915053" lon="30.007564472034574">
        <ele>67.430000000000007</ele>
        <time>2026-04-25T09:08:09Z</time>
      </trkpt>
      <trkpt lat="59.065291676670313" lon="30.007594730705023">
        <ele>67.430000000000007</ele>
        <time>2026-04-25T09:08:23Z</time>
      </trkpt>
      <trkpt lat="59.065330065786839" lon="30.007495656609535">
        <ele>67.430000000000007</ele>
        <time>2026-04-25T09:08:31Z</time>
      </trkpt>
      <trkpt lat="59.065349092707038" lon="30.007244618609548">
        <ele>67.909999999999997</ele>
        <time>2026-04-25T09:08:57Z</time>
      </trkpt>
      <trkpt lat="59.065309194847941" lon="30.00723984092474">
        <ele>67.909999999999997</ele>
        <time>2026-04-25T09:09:08Z</time>
      </trkpt>
      <trkpt lat="59.065287904813886" lon="30.007303040474653">
        <ele>67.909999999999997</ele>
        <time>2026-04-25T09:09:13Z</time>
      </trkpt>
      <trkpt lat="59.06522361561656" lon="30.007393145933747">
        <ele>67.909999999999997</ele>
        <time>2026-04-25T09:09:24Z</time>
      </trkpt>
      <trkpt lat="59.065175000578165" lon="30.007381327450275">
        <ele>67.909999999999997</ele>
        <time>2026-04-25T09:09:35Z</time>
      </trkpt>
      <trkpt lat="59.065121691673994" lon="30.007413681596518">
        <ele>68.390000000000001</ele>
        <time>2026-04-25T09:09:43Z</time>
      </trkpt>
      <trkpt lat="59.065062934532762" lon="30.007505882531404">
        <ele>68.390000000000001</ele>
        <time>2026-04-25T09:09:53Z</time>
      </trkpt>
      <trkpt lat="59.065040051937103" lon="30.007616942748427">
        <ele>68.390000000000001</ele>
        <time>2026-04-25T09:10:05Z</time>
      </trkpt>
      <trkpt lat="59.065116662532091" lon="30.007742419838905">
        <ele>68.390000000000001</ele>
        <time>2026-04-25T09:10:14Z</time>
      </trkpt>
      <trkpt lat="59.065172569826245" lon="30.007890360429883">
        <ele>68.390000000000001</ele>
        <time>2026-04-25T09:10:22Z</time>
      </trkpt>
      <trkpt lat="59.065197966992855" lon="30.00796009786427">
        <ele>68.390000000000001</ele>
        <time>2026-04-25T09:10:28Z</time>
      </trkpt>
      <trkpt lat="59.065193273127079" lon="30.008023297414184">
        <ele>68.390000000000001</ele>
        <time>2026-04-25T09:10:31Z</time>
      </trkpt>
      <trkpt lat="59.065207187086344" lon="30.008228234946728">
        <ele>68.390000000000001</ele>
        <time>2026-04-25T09:10:42Z</time>
      </trkpt>
      <trkpt lat="59.065210036933422" lon="30.008298391476274">
        <ele>68.390000000000001</ele>
        <time>2026-04-25T09:10:46Z</time>
      </trkpt>
      <trkpt lat="59.065240295603871" lon="30.008381372317672">
        <ele>68.390000000000001</ele>
        <time>2026-04-25T09:10:55Z</time>
      </trkpt>
      <trkpt lat="59.065362922847271" lon="30.008337618783116">
        <ele>68.390000000000001</ele>
        <time>2026-04-25T09:11:05Z</time>
      </trkpt>
      <trkpt lat="59.065369041636586" lon="30.008325465023518">
        <ele>68.390000000000001</ele>
        <time>2026-04-25T09:11:06Z</time>
      </trkpt>
      <trkpt lat="59.06544934026897" lon="30.008314065635204">
        <ele>68.390000000000001</ele>
        <time>2026-04-25T09:11:15Z</time>
      </trkpt>
      <trkpt lat="59.065508684143424" lon="30.008347928524017">
        <ele>68.870000000000005</ele>
        <time>2026-04-25T09:11:23Z</time>
      </trkpt>
      <trkpt lat="59.065547492355108" lon="30.008259499445558">
        <ele>68.870000000000005</ele>
        <time>2026-04-25T09:11:31Z</time>
      </trkpt>
      <trkpt lat="59.065572470426559" lon="30.008141146972775">
        <ele>68.870000000000005</ele>
        <time>2026-04-25T09:11:40Z</time>
      </trkpt>
      <trkpt lat="59.065658049657941" lon="30.008199317380786">
        <ele>68.870000000000005</ele>
        <time>2026-04-25T09:11:51Z</time>
      </trkpt>
      <trkpt lat="59.065662575885653" lon="30.00820585526526">
        <ele>68.870000000000005</ele>
        <time>2026-04-25T09:11:52Z</time>
      </trkpt>
      <trkpt lat="59.065680680796504" lon="30.008208453655243">
        <ele>68.870000000000005</ele>
        <time>2026-04-25T09:11:54Z</time>
      </trkpt>
      <trkpt lat="59.065744718536735" lon="30.008195713162422">
        <ele>68.870000000000005</ele>
        <time>2026-04-25T09:12:07Z</time>
      </trkpt>
      <trkpt lat="59.065771540626884" lon="30.00815799459815">
        <ele>68.870000000000005</ele>
        <time>2026-04-25T09:12:36Z</time>
      </trkpt>
      <trkpt lat="59.065800542011857" lon="30.008166627958417">
        <ele>68.870000000000005</ele>
        <time>2026-04-25T09:12:58Z</time>
      </trkpt>
      <trkpt lat="59.065818144008517" lon="30.008176183328032">
        <ele>68.870000000000005</ele>
        <time>2026-04-25T09:13:14Z</time>
      </trkpt>
      <trkpt lat="59.065841026604176" lon="30.008194036781788">
        <ele>69.349999999999994</ele>
        <time>2026-04-25T09:13:28Z</time>
      </trkpt>
      <trkpt lat="59.065863322466612" lon="30.008127484470606">
        <ele>69.349999999999994</ele>
        <time>2026-04-25T09:13:37Z</time>
      </trkpt>
      <trkpt lat="59.065880924463272" lon="30.008066464215517">
        <ele>69.349999999999994</ele>
        <time>2026-04-25T09:13:45Z</time>
      </trkpt>
      <trkpt lat="59.065855862572789" lon="30.008041653782129">
        <ele>69.349999999999994</ele>
        <time>2026-04-25T09:14:01Z</time>
      </trkpt>
      <trkpt lat="59.065882936120033" lon="30.007978454232216">
        <ele>69.349999999999994</ele>
        <time>2026-04-25T09:14:09Z</time>
      </trkpt>
      <trkpt lat="59.065930126234889" lon="30.008042827248573">
        <ele>69.349999999999994</ele>
        <time>2026-04-25T09:14:18Z</time>
      </trkpt>
      <trkpt lat="59.066005982458591" lon="30.008022962138057">
        <ele>69.349999999999994</ele>
        <time>2026-04-25T09:14:28Z</time>
      </trkpt>
      <trkpt lat="59.066049735993147" lon="30.007939813658595">
        <ele>69.349999999999994</ele>
        <time>2026-04-25T09:14:33Z</time>
      </trkpt>
      <trkpt lat="59.066099021583796" lon="30.00779983587563">
        <ele>69.829999999999998</ele>
        <time>2026-04-25T09:14:45Z</time>
      </trkpt>
      <trkpt lat="59.066146714612842" lon="30.007726494222879">
        <ele>69.829999999999998</ele>
        <time>2026-04-25T09:14:54Z</time>
      </trkpt>
      <trkpt lat="59.066200526431203" lon="30.007710233330727">
        <ele>69.829999999999998</ele>
        <time>2026-04-25T09:15:02Z</time>
      </trkpt>
      <trkpt lat="59.066215949133039" lon="30.007617697119713">
        <ele>69.829999999999998</ele>
        <time>2026-04-25T09:15:10Z</time>
      </trkpt>
      <trkpt lat="59.06626783311367" lon="30.007531950250268">
        <ele>69.829999999999998</ele>
        <time>2026-04-25T09:15:19Z</time>
      </trkpt>
      <trkpt lat="59.066265234723687" lon="30.007466152310371">
        <ele>69.829999999999998</ele>
        <time>2026-04-25T09:15:27Z</time>
      </trkpt>
      <trkpt lat="59.066177643835545" lon="30.007409574463964">
        <ele>69.829999999999998</ele>
        <time>2026-04-25T09:15:39Z</time>
      </trkpt>
      <trkpt lat="59.066216619685292" lon="30.007462380453944">
        <ele>69.829999999999998</ele>
        <time>2026-04-25T09:15:48Z</time>
      </trkpt>
      <trkpt lat="59.066260540857911" lon="30.00745827332139">
        <ele>69.829999999999998</ele>
        <time>2026-04-25T09:15:53Z</time>
      </trkpt>
      <trkpt lat="59.066319046542048" lon="30.007443772628903">
        <ele>69.829999999999998</ele>
        <time>2026-04-25T09:16:04Z</time>
      </trkpt>
      <trkpt lat="59.066316280514002" lon="30.007474198937416">
        <ele>69.829999999999998</ele>
        <time>2026-04-25T09:16:09Z</time>
      </trkpt>
      <trkpt lat="59.066342851147056" lon="30.007398594170809">
        <ele>69.829999999999998</ele>
        <time>2026-04-25T09:16:19Z</time>
      </trkpt>
      <trkpt lat="59.066380988806486" lon="30.007347548380494">
        <ele>69.829999999999998</ele>
        <time>2026-04-25T09:16:24Z</time>
      </trkpt>
      <trkpt lat="59.066448044031858" lon="30.007266998291016">
        <ele>69.829999999999998</ele>
        <time>2026-04-25T09:16:31Z</time>
      </trkpt>
      <trkpt lat="59.066508812829852" lon="30.007153507322073">
        <ele>69.829999999999998</ele>
        <time>2026-04-25T09:16:40Z</time>
      </trkpt>
      <trkpt lat="59.066547118127346" lon="30.006978074088693">
        <ele>69.829999999999998</ele>
        <time>2026-04-25T09:16:50Z</time>
      </trkpt>
      <trkpt lat="59.066594811156392" lon="30.006914287805557">
        <ele>69.829999999999998</ele>
        <time>2026-04-25T09:16:58Z</time>
      </trkpt>
      <trkpt lat="59.066656669601798" lon="30.006788223981857">
        <ele>69.829999999999998</ele>
        <time>2026-04-25T09:17:06Z</time>
      </trkpt>
      <trkpt lat="59.066689945757389" lon="30.006651682779193">
        <ele>69.829999999999998</ele>
        <time>2026-04-25T09:17:12Z</time>
      </trkpt>
      <trkpt lat="59.066716013476253" lon="30.006414977833629">
        <ele>70.310000000000002</ele>
        <time>2026-04-25T09:17:23Z</time>
      </trkpt>
      <trkpt lat="59.066724395379424" lon="30.006382958963513">
        <ele>70.310000000000002</ele>
        <time>2026-04-25T09:17:26Z</time>
      </trkpt>
      <trkpt lat="59.066756749525666" lon="30.006173830479383">
        <ele>70.310000000000002</ele>
        <time>2026-04-25T09:17:37Z</time>
      </trkpt>
      <trkpt lat="59.066812573000789" lon="30.006041815504432">
        <ele>70.310000000000002</ele>
        <time>2026-04-25T09:17:45Z</time>
      </trkpt>
      <trkpt lat="59.066863283514977" lon="30.005955398082733">
        <ele>70.310000000000002</ele>
        <time>2026-04-25T09:17:52Z</time>
      </trkpt>
      <trkpt lat="59.066942743957043" lon="30.005826065316796">
        <ele>70.310000000000002</ele>
        <time>2026-04-25T09:18:03Z</time>
      </trkpt>
      <trkpt lat="59.066977277398109" lon="30.005617691203952">
        <ele>70.310000000000002</ele>
        <time>2026-04-25T09:18:13Z</time>
      </trkpt>
      <trkpt lat="59.066984821110964" lon="30.005591623485088">
        <ele>70.310000000000002</ele>
        <time>2026-04-25T09:18:15Z</time>
      </trkpt>
      <trkpt lat="59.067003093659878" lon="30.005452735349536">
        <ele>70.310000000000002</ele>
        <time>2026-04-25T09:18:25Z</time>
      </trkpt>
      <trkpt lat="59.067075680941343" lon="30.005342429503798">
        <ele>70.310000000000002</ele>
        <time>2026-04-25T09:18:35Z</time>
      </trkpt>
      <trkpt lat="59.067135527729988" lon="30.005277302116156">
        <ele>70.790000000000006</ele>
        <time>2026-04-25T09:18:43Z</time>
      </trkpt>
      <trkpt lat="59.067176096141338" lon="30.005223490297794">
        <ele>70.790000000000006</ele>
        <time>2026-04-25T09:18:47Z</time>
      </trkpt>
      <trkpt lat="59.06722261570394" lon="30.005136737599969">
        <ele>70.790000000000006</ele>
        <time>2026-04-25T09:18:52Z</time>
      </trkpt>
      <trkpt lat="59.06725094653666" lon="30.005039842799306">
        <ele>70.790000000000006</ele>
        <time>2026-04-25T09:18:58Z</time>
      </trkpt>
      <trkpt lat="59.067301070317626" lon="30.004890309646726">
        <ele>70.790000000000006</ele>
        <time>2026-04-25T09:19:07Z</time>
      </trkpt>
      <trkpt lat="59.06731883995235" lon="30.004792241379619">
        <ele>70.790000000000006</ele>
        <time>2026-04-25T09:19:17Z</time>
      </trkpt>
      <trkpt lat="59.067364186048508" lon="30.004662740975618">
        <ele>71.269999999999996</ele>
        <time>2026-04-25T09:19:27Z</time>
      </trkpt>
      <trkpt lat="59.06739310361445" lon="30.004644133150578">
        <ele>71.269999999999996</ele>
        <time>2026-04-25T09:19:32Z</time>
      </trkpt>
      <trkpt lat="59.06743660569191" lon="30.004621082916856">
        <ele>71.269999999999996</ele>
        <time>2026-04-25T09:19:44Z</time>
      </trkpt>
      <trkpt lat="59.067472480237484" lon="30.00460616312921">
        <ele>71.760000000000005</ele>
        <time>2026-04-25T09:19:51Z</time>
      </trkpt>
      <trkpt lat="59.067522939294577" lon="30.004552183672786">
        <ele>71.760000000000005</ele>
        <time>2026-04-25T09:19:59Z</time>
      </trkpt>
      <trkpt lat="59.067602064460516" lon="30.004429891705513">
        <ele>72.719999999999999</ele>
        <time>2026-04-25T09:20:08Z</time>
      </trkpt>
      <trkpt lat="59.067621845752001" lon="30.004404578357935">
        <ele>72.719999999999999</ele>
        <time>2026-04-25T09:20:10Z</time>
      </trkpt>
      <trkpt lat="59.067717231810093" lon="30.004392424598336">
        <ele>72.719999999999999</ele>
        <time>2026-04-25T09:20:19Z</time>
      </trkpt>
      <trkpt lat="59.067780096083879" lon="30.004388149827719">
        <ele>72.719999999999999</ele>
        <time>2026-04-25T09:20:27Z</time>
      </trkpt>
      <trkpt lat="59.067860394716263" lon="30.004367278888822">
        <ele>72.719999999999999</ele>
        <time>2026-04-25T09:20:38Z</time>
      </trkpt>
      <trkpt lat="59.067952260375023" lon="30.004339115694165">
        <ele>72.719999999999999</ele>
        <time>2026-04-25T09:20:48Z</time>
      </trkpt>
      <trkpt lat="59.068030128255486" lon="30.004336182028055">
        <ele>72.719999999999999</ele>
        <time>2026-04-25T09:20:58Z</time>
      </trkpt>
      <trkpt lat="59.068094752728939" lon="30.004306677728891">
        <ele>72.719999999999999</ele>
        <time>2026-04-25T09:21:06Z</time>
      </trkpt>
      <trkpt lat="59.068170608952641" lon="30.004270048812032">
        <ele>73.200000000000003</ele>
        <time>2026-04-25T09:21:14Z</time>
      </trkpt>
      <trkpt lat="59.068239592015743" lon="30.004265774041414">
        <ele>73.200000000000003</ele>
        <time>2026-04-25T09:21:22Z</time>
      </trkpt>
      <trkpt lat="59.068312095478177" lon="30.004255715757608">
        <ele>74.159999999999997</ele>
        <time>2026-04-25T09:21:31Z</time>
      </trkpt>
      <trkpt lat="59.068343695253134" lon="30.004266696050763">
        <ele>74.159999999999997</ele>
        <time>2026-04-25T09:21:35Z</time>
      </trkpt>
      <trkpt lat="59.068413432687521" lon="30.004200814291835">
        <ele>74.159999999999997</ele>
        <time>2026-04-25T09:21:42Z</time>
      </trkpt>
      <trkpt lat="59.068481409922242" lon="30.004119006916881">
        <ele>74.159999999999997</ele>
        <time>2026-04-25T09:21:50Z</time>
      </trkpt>
      <trkpt lat="59.068566067144275" lon="30.004101237282157">
        <ele>74.159999999999997</ele>
        <time>2026-04-25T09:21:59Z</time>
      </trkpt>
      <trkpt lat="59.068596577271819" lon="30.004126885905862">
        <ele>74.159999999999997</ele>
        <time>2026-04-25T09:22:03Z</time>
      </trkpt>
      <trkpt lat="59.068705374374986" lon="30.00408623367548">
        <ele>74.159999999999997</ele>
        <time>2026-04-25T09:22:12Z</time>
      </trkpt>
      <trkpt lat="59.068799503147602" lon="30.004022782668471">
        <ele>74.159999999999997</ele>
        <time>2026-04-25T09:22:19Z</time>
      </trkpt>
      <trkpt lat="59.068811573088169" lon="30.0040178373456">
        <ele>74.159999999999997</ele>
        <time>2026-04-25T09:22:20Z</time>
      </trkpt>
      <trkpt lat="59.068908970803022" lon="30.003927396610379">
        <ele>74.159999999999997</ele>
        <time>2026-04-25T09:22:29Z</time>
      </trkpt>
      <trkpt lat="59.068980636075139" lon="30.003944328054786">
        <ele>74.159999999999997</ele>
        <time>2026-04-25T09:22:38Z</time>
      </trkpt>
      <trkpt lat="59.069049870595336" lon="30.003899149596691">
        <ele>74.640000000000001</ele>
        <time>2026-04-25T09:22:45Z</time>
      </trkpt>
      <trkpt lat="59.069185825064778" lon="30.003899820148945">
        <ele>74.640000000000001</ele>
        <time>2026-04-25T09:22:55Z</time>
      </trkpt>
      <trkpt lat="59.06922941096127" lon="30.003877524286509">
        <ele>74.640000000000001</ele>
        <time>2026-04-25T09:23:02Z</time>
      </trkpt>
      <trkpt lat="59.06933443620801" lon="30.003897724673152">
        <ele>74.640000000000001</ele>
        <time>2026-04-25T09:23:13Z</time>
      </trkpt>
      <trkpt lat="59.069382632151246" lon="30.00393963418901">
        <ele>74.640000000000001</ele>
        <time>2026-04-25T09:23:22Z</time>
      </trkpt>
      <trkpt lat="59.069434767588973" lon="30.003860592842102">
        <ele>74.640000000000001</ele>
        <time>2026-04-25T09:23:28Z</time>
      </trkpt>
      <trkpt lat="59.069495117291808" lon="30.003785323351622">
        <ele>74.640000000000001</ele>
        <time>2026-04-25T09:23:36Z</time>
      </trkpt>
      <trkpt lat="59.069557813927531" lon="30.003793872892857">
        <ele>74.640000000000001</ele>
        <time>2026-04-25T09:23:43Z</time>
      </trkpt>
      <trkpt lat="59.069640459492803" lon="30.003778282552958">
        <ele>74.640000000000001</ele>
        <time>2026-04-25T09:23:52Z</time>
      </trkpt>
      <trkpt lat="59.069719081744552" lon="30.003678957000375">
        <ele>74.640000000000001</ele>
        <time>2026-04-25T09:24:01Z</time>
      </trkpt>
      <trkpt lat="59.069727044552565" lon="30.003669569268823">
        <ele>74.640000000000001</ele>
        <time>2026-04-25T09:24:02Z</time>
      </trkpt>
      <trkpt lat="59.069814635440707" lon="30.00365280546248">
        <ele>74.640000000000001</ele>
        <time>2026-04-25T09:24:11Z</time>
      </trkpt>
      <trkpt lat="59.06989392824471" lon="30.003671497106552">
        <ele>74.640000000000001</ele>
        <time>2026-04-25T09:24:21Z</time>
      </trkpt>
      <trkpt lat="59.069979172199965" lon="30.003667809069157">
        <ele>74.640000000000001</ele>
        <time>2026-04-25T09:24:29Z</time>
      </trkpt>
      <trkpt lat="59.070038013160229" lon="30.003662528470159">
        <ele>74.640000000000001</ele>
        <time>2026-04-25T09:24:37Z</time>
      </trkpt>
      <trkpt lat="59.07004346139729" lon="30.003678789362311">
        <ele>74.640000000000001</ele>
        <time>2026-04-25T09:24:40Z</time>
      </trkpt>
      <trkpt lat="59.07007765956223" lon="30.003903759643435">
        <ele>75.120000000000005</ele>
        <time>2026-04-25T09:24:51Z</time>
      </trkpt>
      <trkpt lat="59.070099955424666" lon="30.004003085196018">
        <ele>75.120000000000005</ele>
        <time>2026-04-25T09:24:55Z</time>
      </trkpt>
      <trkpt lat="59.070108085870743" lon="30.004141135141253">
        <ele>75.120000000000005</ele>
        <time>2026-04-25T09:25:03Z</time>
      </trkpt>
      <trkpt lat="59.070134153589606" lon="30.004281532019377">
        <ele>75.120000000000005</ele>
        <time>2026-04-25T09:25:12Z</time>
      </trkpt>
      <trkpt lat="59.070168603211641" lon="30.004471214488149">
        <ele>75.120000000000005</ele>
        <time>2026-04-25T09:25:22Z</time>
      </trkpt>
      <trkpt lat="59.07020959071815" lon="30.004604570567608">
        <ele>75.120000000000005</ele>
        <time>2026-04-25T09:25:31Z</time>
      </trkpt>
      <trkpt lat="59.070208836346865" lon="30.004632482305169">
        <ele>75.120000000000005</ele>
        <time>2026-04-25T09:25:32Z</time>
      </trkpt>
      <trkpt lat="59.070218140259385" lon="30.004797270521522">
        <ele>75.120000000000005</ele>
        <time>2026-04-25T09:25:40Z</time>
      </trkpt>
      <trkpt lat="59.070247309282422" lon="30.005001705139875">
        <ele>75.120000000000005</ele>
        <time>2026-04-25T09:25:50Z</time>
      </trkpt>
      <trkpt lat="59.070268599316478" lon="30.005203373730183">
        <ele>75.120000000000005</ele>
        <time>2026-04-25T09:26:00Z</time>
      </trkpt>
      <trkpt lat="59.070306150242686" lon="30.005313428118825">
        <ele>75.120000000000005</ele>
        <time>2026-04-25T09:26:10Z</time>
      </trkpt>
      <trkpt lat="59.070305060595274" lon="30.005436139181256">
        <ele>75.120000000000005</ele>
        <time>2026-04-25T09:26:18Z</time>
      </trkpt>
      <trkpt lat="59.070319393649697" lon="30.005589025095105">
        <ele>75.120000000000005</ele>
        <time>2026-04-25T09:26:26Z</time>
      </trkpt>
      <trkpt lat="59.070331295952201" lon="30.005712574347854">
        <ele>75.120000000000005</ele>
        <time>2026-04-25T09:26:34Z</time>
      </trkpt>
      <trkpt lat="59.07035761512816" lon="30.005869399756193">
        <ele>75.120000000000005</ele>
        <time>2026-04-25T09:26:43Z</time>
      </trkpt>
      <trkpt lat="59.070349736139178" lon="30.005897143855691">
        <ele>74.640000000000001</ele>
        <time>2026-04-25T09:26:51Z</time>
      </trkpt>
      <trkpt lat="59.070289051160216" lon="30.00598507001996">
        <ele>74.640000000000001</ele>
        <time>2026-04-25T09:27:05Z</time>
      </trkpt>
      <trkpt lat="59.070287123322487" lon="30.006003174930811">
        <ele>74.640000000000001</ele>
        <time>2026-04-25T09:27:06Z</time>
      </trkpt>
      <trkpt lat="59.070260971784592" lon="30.00622009858489">
        <ele>74.640000000000001</ele>
        <time>2026-04-25T09:27:21Z</time>
      </trkpt>
      <trkpt lat="59.070281255990267" lon="30.006214315071702">
        <ele>74.640000000000001</ele>
        <time>2026-04-25T09:27:33Z</time>
      </trkpt>
      <trkpt lat="59.070193078368902" lon="30.00627625733614">
        <ele>74.640000000000001</ele>
        <time>2026-04-25T09:27:49Z</time>
      </trkpt>
      <trkpt lat="59.070241944864392" lon="30.006316071376204">
        <ele>74.640000000000001</ele>
        <time>2026-04-25T09:27:59Z</time>
      </trkpt>
      <trkpt lat="59.070302797481418" lon="30.006279107183218">
        <ele>74.640000000000001</ele>
        <time>2026-04-25T09:28:13Z</time>
      </trkpt>
      <trkpt lat="59.07036448828876" lon="30.006325040012598">
        <ele>74.640000000000001</ele>
        <time>2026-04-25T09:28:26Z</time>
      </trkpt>
      <trkpt lat="59.070382509380579" lon="30.006360160186887">
        <ele>74.640000000000001</ele>
        <time>2026-04-25T09:28:40Z</time>
      </trkpt>
      <trkpt lat="59.070361973717809" lon="30.006504161283374">
        <ele>74.640000000000001</ele>
        <time>2026-04-25T09:28:53Z</time>
      </trkpt>
      <trkpt lat="59.070306988433003" lon="30.006522098556161">
        <ele>74.640000000000001</ele>
        <time>2026-04-25T09:28:58Z</time>
      </trkpt>
      <trkpt lat="59.070214116945863" lon="30.006528971716762">
        <ele>74.640000000000001</ele>
        <time>2026-04-25T09:29:18Z</time>
      </trkpt>
      <trkpt lat="59.070263905450702" lon="30.006522182375193">
        <ele>74.640000000000001</ele>
        <time>2026-04-25T09:29:26Z</time>
      </trkpt>
      <trkpt lat="59.070304306223989" lon="30.006358399987221">
        <ele>74.640000000000001</ele>
        <time>2026-04-25T09:29:40Z</time>
      </trkpt>
      <trkpt lat="59.070344036445022" lon="30.006222110241652">
        <ele>74.640000000000001</ele>
        <time>2026-04-25T09:29:54Z</time>
      </trkpt>
      <trkpt lat="59.07039281912148" lon="30.006142482161522">
        <ele>74.640000000000001</ele>
        <time>2026-04-25T09:30:02Z</time>
      </trkpt>
      <trkpt lat="59.070417629554868" lon="30.006099063903093">
        <ele>74.640000000000001</ele>
        <time>2026-04-25T09:30:12Z</time>
      </trkpt>
      <trkpt lat="59.070394998416305" lon="30.006048772484064">
        <ele>74.640000000000001</ele>
        <time>2026-04-25T09:30:18Z</time>
      </trkpt>
      <trkpt lat="59.070393824949861" lon="30.005980543792248">
        <ele>74.640000000000001</ele>
        <time>2026-04-25T09:30:24Z</time>
      </trkpt>
      <trkpt lat="59.070396339520812" lon="30.005887756124139">
        <ele>74.640000000000001</ele>
        <time>2026-04-25T09:30:32Z</time>
      </trkpt>
      <trkpt lat="59.070387370884418" lon="30.005777198821306">
        <ele>74.640000000000001</ele>
        <time>2026-04-25T09:30:43Z</time>
      </trkpt>
      <trkpt lat="59.070471525192261" lon="30.005843583494425">
        <ele>74.640000000000001</ele>
        <time>2026-04-25T09:30:56Z</time>
      </trkpt>
      <trkpt lat="59.070496251806617" lon="30.005906280130148">
        <ele>74.640000000000001</ele>
        <time>2026-04-25T09:31:01Z</time>
      </trkpt>
      <trkpt lat="59.070489127188921" lon="30.00607400201261">
        <ele>74.640000000000001</ele>
        <time>2026-04-25T09:31:11Z</time>
      </trkpt>
      <trkpt lat="59.070489378646016" lon="30.006111636757851">
        <ele>74.640000000000001</ele>
        <time>2026-04-25T09:31:20Z</time>
      </trkpt>
      <trkpt lat="59.07051058486104" lon="30.006143487989902">
        <ele>74.640000000000001</ele>
        <time>2026-04-25T09:31:26Z</time>
      </trkpt>
      <trkpt lat="59.070527600124478" lon="30.006112139672041">
        <ele>74.640000000000001</ele>
        <time>2026-04-25T09:31:35Z</time>
      </trkpt>
      <trkpt lat="59.070535227656364" lon="30.006160335615277">
        <ele>74.640000000000001</ele>
        <time>2026-04-25T09:31:43Z</time>
      </trkpt>
      <trkpt lat="59.070535898208618" lon="30.006172657012939">
        <ele>74.640000000000001</ele>
        <time>2026-04-25T09:31:44Z</time>
      </trkpt>
      <trkpt lat="59.070507064461708" lon="30.006318837404251">
        <ele>74.640000000000001</ele>
        <time>2026-04-25T09:31:52Z</time>
      </trkpt>
      <trkpt lat="59.070518966764212" lon="30.006388574838638">
        <ele>74.640000000000001</ele>
        <time>2026-04-25T09:31:58Z</time>
      </trkpt>
      <trkpt lat="59.070526091381907" lon="30.006492510437965">
        <ele>74.640000000000001</ele>
        <time>2026-04-25T09:32:07Z</time>
      </trkpt>
      <trkpt lat="59.070547884330153" lon="30.00659829005599">
        <ele>74.640000000000001</ele>
        <time>2026-04-25T09:32:17Z</time>
      </trkpt>
      <trkpt lat="59.070599097758532" lon="30.006716223433614">
        <ele>74.640000000000001</ele>
        <time>2026-04-25T09:32:29Z</time>
      </trkpt>
      <trkpt lat="59.070638492703438" lon="30.006914623081684">
        <ele>74.640000000000001</ele>
        <time>2026-04-25T09:32:44Z</time>
      </trkpt>
      <trkpt lat="59.070678139105439" lon="30.006862403824925">
        <ele>74.640000000000001</ele>
        <time>2026-04-25T09:33:01Z</time>
      </trkpt>
      <trkpt lat="59.070668332278728" lon="30.006864918395877">
        <ele>74.640000000000001</ele>
        <time>2026-04-25T09:33:02Z</time>
      </trkpt>
      <trkpt lat="59.070605635643005" lon="30.006909342482686">
        <ele>74.640000000000001</ele>
        <time>2026-04-25T09:33:17Z</time>
      </trkpt>
      <trkpt lat="59.070591386407614" lon="30.006992993876338">
        <ele>74.159999999999997</ele>
        <time>2026-04-25T09:33:32Z</time>
      </trkpt>
      <trkpt lat="59.07059951685369" lon="30.007135989144444">
        <ele>74.159999999999997</ele>
        <time>2026-04-25T09:33:41Z</time>
      </trkpt>
      <trkpt lat="59.070664392784238" lon="30.007211845368147">
        <ele>74.159999999999997</ele>
        <time>2026-04-25T09:34:09Z</time>
      </trkpt>
      <trkpt lat="59.070680234581232" lon="30.007310668006539">
        <ele>74.159999999999997</ele>
        <time>2026-04-25T09:34:20Z</time>
      </trkpt>
      <trkpt lat="59.070684844627976" lon="30.007422901690006">
        <ele>74.159999999999997</ele>
        <time>2026-04-25T09:34:32Z</time>
      </trkpt>
      <trkpt lat="59.070661878213286" lon="30.007502529770136">
        <ele>74.159999999999997</ele>
        <time>2026-04-25T09:34:40Z</time>
      </trkpt>
      <trkpt lat="59.070657519623637" lon="30.00748610123992">
        <ele>74.159999999999997</ele>
        <time>2026-04-25T09:34:53Z</time>
      </trkpt>
      <trkpt lat="59.070599600672722" lon="30.007387949153781">
        <ele>74.159999999999997</ele>
        <time>2026-04-25T09:35:02Z</time>
      </trkpt>
      <trkpt lat="59.070532377809286" lon="30.007294658571482">
        <ele>74.159999999999997</ele>
        <time>2026-04-25T09:35:12Z</time>
      </trkpt>
      <trkpt lat="59.070501700043678" lon="30.007370430976152">
        <ele>74.159999999999997</ele>
        <time>2026-04-25T09:35:26Z</time>
      </trkpt>
      <trkpt lat="59.070493737235665" lon="30.007510576397181">
        <ele>74.159999999999997</ele>
        <time>2026-04-25T09:35:37Z</time>
      </trkpt>
      <trkpt lat="59.07056481577456" lon="30.00760386697948">
        <ele>74.159999999999997</ele>
        <time>2026-04-25T09:35:52Z</time>
      </trkpt>
      <trkpt lat="59.070615777745843" lon="30.007759686559439">
        <ele>74.159999999999997</ele>
        <time>2026-04-25T09:36:04Z</time>
      </trkpt>
      <trkpt lat="59.07063321210444" lon="30.007867477834225">
        <ele>74.159999999999997</ele>
        <time>2026-04-25T09:36:13Z</time>
      </trkpt>
      <trkpt lat="59.070651652291417" lon="30.008035870268941">
        <ele>74.159999999999997</ele>
        <time>2026-04-25T09:36:28Z</time>
      </trkpt>
      <trkpt lat="59.070724071934819" lon="30.008158581331372">
        <ele>74.159999999999997</ele>
        <time>2026-04-25T09:36:41Z</time>
      </trkpt>
      <trkpt lat="59.070752821862698" lon="30.008302163332701">
        <ele>74.159999999999997</ele>
        <time>2026-04-25T09:36:54Z</time>
      </trkpt>
      <trkpt lat="59.070841250941157" lon="30.008186995983124">
        <ele>74.159999999999997</ele>
        <time>2026-04-25T09:37:10Z</time>
      </trkpt>
      <trkpt lat="59.070858769118786" lon="30.008103847503662">
        <ele>73.680000000000007</ele>
        <time>2026-04-25T09:37:18Z</time>
      </trkpt>
      <trkpt lat="59.07084091566503" lon="30.008034445345402">
        <ele>74.159999999999997</ele>
        <time>2026-04-25T09:37:36Z</time>
      </trkpt>
      <trkpt lat="59.070872766897082" lon="30.007886169478297">
        <ele>74.159999999999997</ele>
        <time>2026-04-25T09:37:46Z</time>
      </trkpt>
      <trkpt lat="59.070904115214944" lon="30.007773768156767">
        <ele>74.159999999999997</ele>
        <time>2026-04-25T09:37:57Z</time>
      </trkpt>
      <trkpt lat="59.070938983932137" lon="30.007753567770123">
        <ele>74.159999999999997</ele>
        <time>2026-04-25T09:38:03Z</time>
      </trkpt>
      <trkpt lat="59.071027748286724" lon="30.007886504754424">
        <ele>74.159999999999997</ele>
        <time>2026-04-25T09:38:14Z</time>
      </trkpt>
      <trkpt lat="59.07111793756485" lon="30.007888013496995">
        <ele>74.159999999999997</ele>
        <time>2026-04-25T09:38:28Z</time>
      </trkpt>
      <trkpt lat="59.071098491549492" lon="30.008129412308335">
        <ele>74.159999999999997</ele>
        <time>2026-04-25T09:38:44Z</time>
      </trkpt>
      <trkpt lat="59.071122044697404" lon="30.00838472507894">
        <ele>73.680000000000007</ele>
        <time>2026-04-25T09:39:01Z</time>
      </trkpt>
      <trkpt lat="59.071118608117104" lon="30.008542640134692">
        <ele>73.680000000000007</ele>
        <time>2026-04-25T09:39:12Z</time>
      </trkpt>
      <trkpt lat="59.071156410500407" lon="30.008725868538022">
        <ele>73.680000000000007</ele>
        <time>2026-04-25T09:39:26Z</time>
      </trkpt>
      <trkpt lat="59.071107795462012" lon="30.008793426677585">
        <ele>73.680000000000007</ele>
        <time>2026-04-25T09:39:35Z</time>
      </trkpt>
      <trkpt lat="59.071128079667687" lon="30.008857129141688">
        <ele>73.680000000000007</ele>
        <time>2026-04-25T09:39:45Z</time>
      </trkpt>
      <trkpt lat="59.07104317098856" lon="30.009058881551027">
        <ele>73.680000000000007</ele>
        <time>2026-04-25T09:40:00Z</time>
      </trkpt>
      <trkpt lat="59.070960525423288" lon="30.009145466610789">
        <ele>73.680000000000007</ele>
        <time>2026-04-25T09:40:25Z</time>
      </trkpt>
      <trkpt lat="59.07092247158289" lon="30.009462554007769">
        <ele>73.680000000000007</ele>
        <time>2026-04-25T09:40:49Z</time>
      </trkpt>
      <trkpt lat="59.070949293673038" lon="30.009593814611435">
        <ele>74.159999999999997</ele>
        <time>2026-04-25T09:41:01Z</time>
      </trkpt>
      <trkpt lat="59.071031603962183" lon="30.009757177904248">
        <ele>74.159999999999997</ele>
        <time>2026-04-25T09:41:13Z</time>
      </trkpt>
      <trkpt lat="59.071083571761847" lon="30.009842086583376">
        <ele>74.159999999999997</ele>
        <time>2026-04-25T09:41:22Z</time>
      </trkpt>
      <trkpt lat="59.071127157658339" lon="30.009881146252155">
        <ele>74.159999999999997</ele>
        <time>2026-04-25T09:41:30Z</time>
      </trkpt>
      <trkpt lat="59.071183819323778" lon="30.009939149022102">
        <ele>74.159999999999997</ele>
        <time>2026-04-25T09:41:40Z</time>
      </trkpt>
      <trkpt lat="59.071190189570189" lon="30.009983573108912">
        <ele>74.159999999999997</ele>
        <time>2026-04-25T09:41:49Z</time>
      </trkpt>
      <trkpt lat="59.071223884820938" lon="30.00991559587419">
        <ele>74.159999999999997</ele>
        <time>2026-04-25T09:42:07Z</time>
      </trkpt>
      <trkpt lat="59.071294460445642" lon="30.009841835126281">
        <ele>74.159999999999997</ele>
        <time>2026-04-25T09:42:17Z</time>
      </trkpt>
      <trkpt lat="59.071308793500066" lon="30.009767487645149">
        <ele>74.159999999999997</ele>
        <time>2026-04-25T09:42:28Z</time>
      </trkpt>
      <trkpt lat="59.071216760203242" lon="30.009791543707252">
        <ele>74.159999999999997</ele>
        <time>2026-04-25T09:42:40Z</time>
      </trkpt>
      <trkpt lat="59.07116923481226" lon="30.009846612811089">
        <ele>74.159999999999997</ele>
        <time>2026-04-25T09:42:56Z</time>
      </trkpt>
      <trkpt lat="59.0711360424757" lon="30.01007342711091">
        <ele>74.159999999999997</ele>
        <time>2026-04-25T09:43:11Z</time>
      </trkpt>
      <trkpt lat="59.071159260347486" lon="30.010167304426432">
        <ele>74.159999999999997</ele>
        <time>2026-04-25T09:43:17Z</time>
      </trkpt>
      <trkpt lat="59.071197146549821" lon="30.010352963581681">
        <ele>74.159999999999997</ele>
        <time>2026-04-25T09:43:38Z</time>
      </trkpt>
      <trkpt lat="59.071321533992887" lon="30.01035438850522">
        <ele>74.640000000000001</ele>
        <time>2026-04-25T09:44:04Z</time>
      </trkpt>
      <trkpt lat="59.071470145136118" lon="30.010351371020079">
        <ele>74.640000000000001</ele>
        <time>2026-04-25T09:44:31Z</time>
      </trkpt>
      <trkpt lat="59.071357911452651" lon="30.010445332154632">
        <ele>74.640000000000001</ele>
        <time>2026-04-25T09:44:46Z</time>
      </trkpt>
      <trkpt lat="59.071250203996897" lon="30.01054490916431">
        <ele>74.640000000000001</ele>
        <time>2026-04-25T09:44:59Z</time>
      </trkpt>
      <trkpt lat="59.071181137114763" lon="30.010717744007707">
        <ele>74.640000000000001</ele>
        <time>2026-04-25T09:45:14Z</time>
      </trkpt>
      <trkpt lat="59.071124391630292" lon="30.010764012113214">
        <ele>74.640000000000001</ele>
        <time>2026-04-25T09:45:21Z</time>
      </trkpt>
      <trkpt lat="59.071032861247659" lon="30.010943720117211">
        <ele>74.640000000000001</ele>
        <time>2026-04-25T09:45:37Z</time>
      </trkpt>
      <trkpt lat="59.070978965610266" lon="30.011071460321546">
        <ele>74.640000000000001</ele>
        <time>2026-04-25T09:45:49Z</time>
      </trkpt>
      <trkpt lat="59.071011990308762" lon="30.011241864413023">
        <ele>74.640000000000001</ele>
        <time>2026-04-25T09:45:59Z</time>
      </trkpt>
      <trkpt lat="59.071055660024285" lon="30.011362982913852">
        <ele>74.640000000000001</ele>
        <time>2026-04-25T09:46:08Z</time>
      </trkpt>
      <trkpt lat="59.071069993078709" lon="30.011472534388304">
        <ele>75.120000000000005</ele>
        <time>2026-04-25T09:46:14Z</time>
      </trkpt>
      <trkpt lat="59.071119446307421" lon="30.011639585718513">
        <ele>75.120000000000005</ele>
        <time>2026-04-25T09:46:31Z</time>
      </trkpt>
      <trkpt lat="59.071132019162178" lon="30.011846702545881">
        <ele>75.120000000000005</ele>
        <time>2026-04-25T09:46:42Z</time>
      </trkpt>
      <trkpt lat="59.07119907438755" lon="30.011874781921506">
        <ele>75.120000000000005</ele>
        <time>2026-04-25T09:46:51Z</time>
      </trkpt>
      <trkpt lat="59.071272499859333" lon="30.011844942346215">
        <ele>75.120000000000005</ele>
        <time>2026-04-25T09:46:59Z</time>
      </trkpt>
      <trkpt lat="59.071366628631949" lon="30.011838153004646">
        <ele>75.120000000000005</ele>
        <time>2026-04-25T09:47:35Z</time>
      </trkpt>
      <trkpt lat="59.07139596529305" lon="30.011843349784613">
        <ele>75.599999999999994</ele>
        <time>2026-04-25T09:47:46Z</time>
      </trkpt>
      <trkpt lat="59.07146142795682" lon="30.011887354776263">
        <ele>75.599999999999994</ele>
        <time>2026-04-25T09:47:54Z</time>
      </trkpt>
      <trkpt lat="59.071484142914414" lon="30.011910740286112">
        <ele>75.599999999999994</ele>
        <time>2026-04-25T09:48:06Z</time>
      </trkpt>
      <trkpt lat="59.071427397429943" lon="30.011909566819668">
        <ele>75.599999999999994</ele>
        <time>2026-04-25T09:48:30Z</time>
      </trkpt>
      <trkpt lat="59.071467546746135" lon="30.011892216280103">
        <ele>75.599999999999994</ele>
        <time>2026-04-25T09:48:42Z</time>
      </trkpt>
      <trkpt lat="59.071478191763163" lon="30.011764978989959">
        <ele>75.599999999999994</ele>
        <time>2026-04-25T09:48:50Z</time>
      </trkpt>
      <trkpt lat="59.071558322757483" lon="30.011694487184286">
        <ele>76.079999999999998</ele>
        <time>2026-04-25T09:49:00Z</time>
      </trkpt>
      <trkpt lat="59.071736605837941" lon="30.011719800531864">
        <ele>77.040000000000006</ele>
        <time>2026-04-25T09:49:23Z</time>
      </trkpt>
      <trkpt lat="59.071776671335101" lon="30.011635478585958">
        <ele>77.040000000000006</ele>
        <time>2026-04-25T09:49:29Z</time>
      </trkpt>
      <trkpt lat="59.071800140663981" lon="30.011578314006329">
        <ele>77.040000000000006</ele>
        <time>2026-04-25T09:49:33Z</time>
      </trkpt>
      <trkpt lat="59.071886306628585" lon="30.011539589613676">
        <ele>77.040000000000006</ele>
        <time>2026-04-25T09:49:42Z</time>
      </trkpt>
      <trkpt lat="59.071963503956795" lon="30.011530118063092">
        <ele>77.040000000000006</ele>
        <time>2026-04-25T09:49:52Z</time>
      </trkpt>
      <trkpt lat="59.072049167007208" lon="30.011521065607667">
        <ele>77.040000000000006</ele>
        <time>2026-04-25T09:50:07Z</time>
      </trkpt>
      <trkpt lat="59.072149666026235" lon="30.011490220203996">
        <ele>77.040000000000006</ele>
        <time>2026-04-25T09:50:19Z</time>
      </trkpt>
      <trkpt lat="59.072232060134411" lon="30.011467086151242">
        <ele>77.040000000000006</ele>
        <time>2026-04-25T09:50:30Z</time>
      </trkpt>
      <trkpt lat="59.072291739284992" lon="30.011460464447737">
        <ele>77.040000000000006</ele>
        <time>2026-04-25T09:50:39Z</time>
      </trkpt>
      <trkpt lat="59.072357369586825" lon="30.011442275717854">
        <ele>77.040000000000006</ele>
        <time>2026-04-25T09:51:02Z</time>
      </trkpt>
      <trkpt lat="59.072474045678973" lon="30.011373460292816">
        <ele>77.040000000000006</ele>
        <time>2026-04-25T09:51:16Z</time>
      </trkpt>
      <trkpt lat="59.072584351524711" lon="30.01130766235292">
        <ele>77.040000000000006</ele>
        <time>2026-04-25T09:51:29Z</time>
      </trkpt>
      <trkpt lat="59.072630451992154" lon="30.011294251307845">
        <ele>77.040000000000006</ele>
        <time>2026-04-25T09:51:38Z</time>
      </trkpt>
      <trkpt lat="59.072673115879297" lon="30.011302046477795">
        <ele>77.040000000000006</ele>
        <time>2026-04-25T09:51:46Z</time>
      </trkpt>
      <trkpt lat="59.072686275467277" lon="30.011291652917862">
        <ele>77.040000000000006</ele>
        <time>2026-04-25T09:52:05Z</time>
      </trkpt>
      <trkpt lat="59.072707565501332" lon="30.011295508593321">
        <ele>77.040000000000006</ele>
        <time>2026-04-25T09:53:00Z</time>
      </trkpt>
      <trkpt lat="59.072708990424871" lon="30.011298609897494">
        <ele>77.040000000000006</ele>
        <time>2026-04-25T09:53:09Z</time>
      </trkpt>
      <trkpt lat="59.072716031223536" lon="30.011325599625707">
        <ele>77.040000000000006</ele>
        <time>2026-04-25T09:53:27Z</time>
      </trkpt>
      <trkpt lat="59.072743440046906" lon="30.01127639785409">
        <ele>77.040000000000006</ele>
        <time>2026-04-25T09:53:36Z</time>
      </trkpt>
      <trkpt lat="59.072762131690979" lon="30.011259466409683">
        <ele>76.560000000000002</ele>
        <time>2026-04-25T09:53:39Z</time>
      </trkpt>
      <trkpt lat="59.072839077562094" lon="30.011205906048417">
        <ele>76.560000000000002</ele>
        <time>2026-04-25T09:53:49Z</time>
      </trkpt>
      <trkpt lat="59.072899091988802" lon="30.011153435334563">
        <ele>76.560000000000002</ele>
        <time>2026-04-25T09:53:57Z</time>
      </trkpt>
      <trkpt lat="59.072958352044225" lon="30.011090906336904">
        <ele>76.560000000000002</ele>
        <time>2026-04-25T09:54:07Z</time>
      </trkpt>
      <trkpt lat="59.073014510795474" lon="30.011073220521212">
        <ele>76.560000000000002</ele>
        <time>2026-04-25T09:54:19Z</time>
      </trkpt>
      <trkpt lat="59.073087433353066" lon="30.011069783940911">
        <ele>76.560000000000002</ele>
        <time>2026-04-25T09:54:29Z</time>
      </trkpt>
      <trkpt lat="59.073150549083948" lon="30.011011948809028">
        <ele>76.560000000000002</ele>
        <time>2026-04-25T09:54:39Z</time>
      </trkpt>
      <trkpt lat="59.073203438892961" lon="30.010973392054439">
        <ele>76.560000000000002</ele>
        <time>2026-04-25T09:54:49Z</time>
      </trkpt>
      <trkpt lat="59.073240989819169" lon="30.010963166132569">
        <ele>76.560000000000002</ele>
        <time>2026-04-25T09:54:58Z</time>
      </trkpt>
      <trkpt lat="59.073295723646879" lon="30.011002561077476">
        <ele>76.560000000000002</ele>
        <time>2026-04-25T09:55:06Z</time>
      </trkpt>
      <trkpt lat="59.073363114148378" lon="30.010995855554938">
        <ele>76.560000000000002</ele>
        <time>2026-04-25T09:55:16Z</time>
      </trkpt>
      <trkpt lat="59.073399994522333" lon="30.010957214981318">
        <ele>76.560000000000002</ele>
        <time>2026-04-25T09:55:23Z</time>
      </trkpt>
      <trkpt lat="59.073440730571747" lon="30.010954700410366">
        <ele>76.560000000000002</ele>
        <time>2026-04-25T09:55:31Z</time>
      </trkpt>
      <trkpt lat="59.073481969535351" lon="30.01095050945878">
        <ele>76.560000000000002</ele>
        <time>2026-04-25T09:55:39Z</time>
      </trkpt>
      <trkpt lat="59.073527818545699" lon="30.010943720117211">
        <ele>76.560000000000002</ele>
        <time>2026-04-25T09:55:47Z</time>
      </trkpt>
      <trkpt lat="59.073567045852542" lon="30.010932069271803">
        <ele>76.560000000000002</ele>
        <time>2026-04-25T09:55:56Z</time>
      </trkpt>
      <trkpt lat="59.073632340878248" lon="30.010878005996346">
        <ele>76.560000000000002</ele>
        <time>2026-04-25T09:56:07Z</time>
      </trkpt>
      <trkpt lat="59.073678944259882" lon="30.010812878608704">
        <ele>76.560000000000002</ele>
        <time>2026-04-25T09:56:15Z</time>
      </trkpt>
      <trkpt lat="59.073749352246523" lon="30.0107457395643">
        <ele>76.560000000000002</ele>
        <time>2026-04-25T09:56:25Z</time>
      </trkpt>
      <trkpt lat="59.073820263147354" lon="30.01078337430954">
        <ele>76.560000000000002</ele>
        <time>2026-04-25T09:56:35Z</time>
      </trkpt>
      <trkpt lat="59.073873991146684" lon="30.010816147550941">
        <ele>76.560000000000002</ele>
        <time>2026-04-25T09:56:44Z</time>
      </trkpt>
      <trkpt lat="59.07392218708992" lon="30.010793097317219">
        <ele>76.560000000000002</ele>
        <time>2026-04-25T09:56:52Z</time>
      </trkpt>
      <trkpt lat="59.073954541236162" lon="30.010781781747937">
        <ele>76.560000000000002</ele>
        <time>2026-04-25T09:56:59Z</time>
      </trkpt>
      <trkpt lat="59.07401941716671" lon="30.010781278833747">
        <ele>76.560000000000002</ele>
        <time>2026-04-25T09:57:09Z</time>
      </trkpt>
      <trkpt lat="59.074059650301933" lon="30.010744566097856">
        <ele>77.040000000000006</ele>
        <time>2026-04-25T09:57:16Z</time>
      </trkpt>
      <trkpt lat="59.074101811274886" lon="30.010749846696854">
        <ele>77.040000000000006</ele>
        <time>2026-04-25T09:57:24Z</time>
      </trkpt>
      <trkpt lat="59.074114467948675" lon="30.010686898604035">
        <ele>77.040000000000006</ele>
        <time>2026-04-25T09:57:31Z</time>
      </trkpt>
      <trkpt lat="59.074133243411779" lon="30.010651191696525">
        <ele>77.040000000000006</ele>
        <time>2026-04-25T09:57:38Z</time>
      </trkpt>
      <trkpt lat="59.074228294193745" lon="30.010595954954624">
        <ele>77.040000000000006</ele>
        <time>2026-04-25T09:57:50Z</time>
      </trkpt>
      <trkpt lat="59.074271209537983" lon="30.01060014590621">
        <ele>77.040000000000006</ele>
        <time>2026-04-25T09:57:58Z</time>
      </trkpt>
      <trkpt lat="59.074319824576378" lon="30.010626213625073">
        <ele>77.040000000000006</ele>
        <time>2026-04-25T09:58:08Z</time>
      </trkpt>
      <trkpt lat="59.074358716607094" lon="30.010649766772985">
        <ele>77.040000000000006</ele>
        <time>2026-04-25T09:58:15Z</time>
      </trkpt>
      <trkpt lat="59.07440104521811" lon="30.010646497830749">
        <ele>77.040000000000006</ele>
        <time>2026-04-25T09:58:22Z</time>
      </trkpt>
      <trkpt lat="59.074419904500246" lon="30.010581118986011">
        <ele>77.040000000000006</ele>
        <time>2026-04-25T09:58:28Z</time>
      </trkpt>
      <trkpt lat="59.074436835944653" lon="30.010475758463144">
        <ele>77.040000000000006</ele>
        <time>2026-04-25T09:58:37Z</time>
      </trkpt>
      <trkpt lat="59.074492324143648" lon="30.010448098182678">
        <ele>77.040000000000006</ele>
        <time>2026-04-25T09:58:46Z</time>
      </trkpt>
      <trkpt lat="59.074543369933963" lon="30.010439548641443">
        <ele>77.040000000000006</ele>
        <time>2026-04-25T09:58:53Z</time>
      </trkpt>
      <trkpt lat="59.074582764878869" lon="30.010463856160641">
        <ele>77.040000000000006</ele>
        <time>2026-04-25T09:59:02Z</time>
      </trkpt>
      <trkpt lat="59.074628027155995" lon="30.010460503399372">
        <ele>77.040000000000006</ele>
        <time>2026-04-25T09:59:10Z</time>
      </trkpt>
      <trkpt lat="59.074681084603071" lon="30.010463017970324">
        <ele>77.040000000000006</ele>
        <time>2026-04-25T09:59:18Z</time>
      </trkpt>
      <trkpt lat="59.074745122343302" lon="30.010415576398373">
        <ele>77.040000000000006</ele>
        <time>2026-04-25T09:59:28Z</time>
      </trkpt>
      <trkpt lat="59.074781583622098" lon="30.010349024087191">
        <ele>77.040000000000006</ele>
        <time>2026-04-25T09:59:37Z</time>
      </trkpt>
      <trkpt lat="59.074817709624767" lon="30.010300576686859">
        <ele>77.040000000000006</ele>
        <time>2026-04-25T09:59:46Z</time>
      </trkpt>
      <trkpt lat="59.074831623584032" lon="30.01033334992826">
        <ele>77.040000000000006</ele>
        <time>2026-04-25T10:00:24Z</time>
      </trkpt>
      <trkpt lat="59.074859032407403" lon="30.010332176461816">
        <ele>77.040000000000006</ele>
        <time>2026-04-25T10:00:50Z</time>
      </trkpt>
      <trkpt lat="59.074847549200058" lon="30.010303426533937">
        <ele>77.040000000000006</ele>
        <time>2026-04-25T10:01:13Z</time>
      </trkpt>
      <trkpt lat="59.074849309399724" lon="30.010319603607059">
        <ele>77.040000000000006</ele>
        <time>2026-04-25T10:01:27Z</time>
      </trkpt>
      <trkpt lat="59.074915694072843" lon="30.010337792336941">
        <ele>77.040000000000006</ele>
        <time>2026-04-25T10:01:37Z</time>
      </trkpt>
      <trkpt lat="59.074972104281187" lon="30.010346677154303">
        <ele>77.040000000000006</ele>
        <time>2026-04-25T10:01:46Z</time>
      </trkpt>
      <trkpt lat="59.075006134808064" lon="30.010276604443789">
        <ele>77.040000000000006</ele>
        <time>2026-04-25T10:01:54Z</time>
      </trkpt>
      <trkpt lat="59.075067741796374" lon="30.010215668007731">
        <ele>77.040000000000006</ele>
        <time>2026-04-25T10:02:04Z</time>
      </trkpt>
      <trkpt lat="59.07512079924345" lon="30.010164370760322">
        <ele>77.040000000000006</ele>
        <time>2026-04-25T10:02:13Z</time>
      </trkpt>
      <trkpt lat="59.075177293270826" lon="30.010154061019421">
        <ele>77.040000000000006</ele>
        <time>2026-04-25T10:02:21Z</time>
      </trkpt>
      <trkpt lat="59.075213586911559" lon="30.01017652451992">
        <ele>77.040000000000006</ele>
        <time>2026-04-25T10:02:31Z</time>
      </trkpt>
      <trkpt lat="59.075233116745949" lon="30.010135285556316">
        <ele>77.040000000000006</ele>
        <time>2026-04-25T10:02:55Z</time>
      </trkpt>
      <trkpt lat="59.075227249413729" lon="30.010120449587703">
        <ele>77.040000000000006</ele>
        <time>2026-04-25T10:03:30Z</time>
      </trkpt>
      <trkpt lat="59.075275529175997" lon="30.010162023827434">
        <ele>77.040000000000006</ele>
        <time>2026-04-25T10:03:40Z</time>
      </trkpt>
      <trkpt lat="59.075297154486179" lon="30.010194629430771">
        <ele>77.040000000000006</ele>
        <time>2026-04-25T10:03:50Z</time>
      </trkpt>
      <trkpt lat="59.075324730947614" lon="30.010202173143625">
        <ele>77.040000000000006</ele>
        <time>2026-04-25T10:03:59Z</time>
      </trkpt>
      <trkpt lat="59.075366808101535" lon="30.010211644694209">
        <ele>77.040000000000006</ele>
        <time>2026-04-25T10:04:06Z</time>
      </trkpt>
      <trkpt lat="59.075405951589346" lon="30.010216757655144">
        <ele>77.040000000000006</ele>
        <time>2026-04-25T10:04:18Z</time>
      </trkpt>
      <trkpt lat="59.07544819638133" lon="30.010159760713577">
        <ele>77.040000000000006</ele>
        <time>2026-04-25T10:04:26Z</time>
      </trkpt>
      <trkpt lat="59.075483651831746" lon="30.01013251952827">
        <ele>77.040000000000006</ele>
        <time>2026-04-25T10:04:36Z</time>
      </trkpt>
      <trkpt lat="59.075513072311878" lon="30.010119611397386">
        <ele>77.040000000000006</ele>
        <time>2026-04-25T10:04:45Z</time>
      </trkpt>
      <trkpt lat="59.075538888573647" lon="30.010108379647136">
        <ele>77.040000000000006</ele>
        <time>2026-04-25T10:04:55Z</time>
      </trkpt>
      <trkpt lat="59.075572583824396" lon="30.010067895054817">
        <ele>77.040000000000006</ele>
        <time>2026-04-25T10:05:03Z</time>
      </trkpt>
      <trkpt lat="59.075598903000355" lon="30.009978879243135">
        <ele>77.040000000000006</ele>
        <time>2026-04-25T10:05:10Z</time>
      </trkpt>
      <trkpt lat="59.07563092187047" lon="30.009922217577696">
        <ele>77.040000000000006</ele>
        <time>2026-04-25T10:05:19Z</time>
      </trkpt>
      <trkpt lat="59.075666712597013" lon="30.009956499561667">
        <ele>77.040000000000006</ele>
        <time>2026-04-25T10:05:26Z</time>
      </trkpt>
      <trkpt lat="59.07573058269918" lon="30.009972928091884">
        <ele>77.040000000000006</ele>
        <time>2026-04-25T10:05:35Z</time>
      </trkpt>
      <trkpt lat="59.075763020664454" lon="30.009977538138628">
        <ele>77.040000000000006</ele>
        <time>2026-04-25T10:05:43Z</time>
      </trkpt>
      <trkpt lat="59.07581708393991" lon="30.009975442662835">
        <ele>77.040000000000006</ele>
        <time>2026-04-25T10:05:52Z</time>
      </trkpt>
      <trkpt lat="59.075865279883146" lon="30.009959600865841">
        <ele>77.519999999999996</ele>
        <time>2026-04-25T10:05:59Z</time>
      </trkpt>
      <trkpt lat="59.075936945155263" lon="30.009924899786711">
        <ele>77.519999999999996</ele>
        <time>2026-04-25T10:06:10Z</time>
      </trkpt>
      <trkpt lat="59.076008778065443" lon="30.00991459004581">
        <ele>77.519999999999996</ele>
        <time>2026-04-25T10:06:19Z</time>
      </trkpt>
      <trkpt lat="59.076030487194657" lon="30.009911991655827">
        <ele>77.519999999999996</ele>
        <time>2026-04-25T10:06:27Z</time>
      </trkpt>
      <trkpt lat="59.076064852997661" lon="30.009901681914926">
        <ele>77.519999999999996</ele>
        <time>2026-04-25T10:06:35Z</time>
      </trkpt>
      <trkpt lat="59.076095782220364" lon="30.009895311668515">
        <ele>77.519999999999996</ele>
        <time>2026-04-25T10:06:41Z</time>
      </trkpt>
      <trkpt lat="59.076130483299494" lon="30.009836805984378">
        <ele>77.519999999999996</ele>
        <time>2026-04-25T10:06:48Z</time>
      </trkpt>
      <trkpt lat="59.076183876022696" lon="30.009797494858503">
        <ele>77.519999999999996</ele>
        <time>2026-04-25T10:06:56Z</time>
      </trkpt>
      <trkpt lat="59.076220840215683" lon="30.009776707738638">
        <ele>77.519999999999996</ele>
        <time>2026-04-25T10:07:03Z</time>
      </trkpt>
      <trkpt lat="59.076273897662759" lon="30.009773271158338">
        <ele>77.519999999999996</ele>
        <time>2026-04-25T10:07:10Z</time>
      </trkpt>
      <trkpt lat="59.076325697824359" lon="30.009758183732629">
        <ele>77.519999999999996</ele>
        <time>2026-04-25T10:07:17Z</time>
      </trkpt>
      <trkpt lat="59.076365595683455" lon="30.009728008881211">
        <ele>77.519999999999996</ele>
        <time>2026-04-25T10:07:23Z</time>
      </trkpt>
      <trkpt lat="59.076389651745558" lon="30.009713340550661">
        <ele>77.519999999999996</ele>
        <time>2026-04-25T10:07:29Z</time>
      </trkpt>
      <trkpt lat="59.076446983963251" lon="30.009688613936305">
        <ele>77.519999999999996</ele>
        <time>2026-04-25T10:07:42Z</time>
      </trkpt>
      <trkpt lat="59.076502807438374" lon="30.009653326123953">
        <ele>77.519999999999996</ele>
        <time>2026-04-25T10:07:53Z</time>
      </trkpt>
      <trkpt lat="59.076572461053729" lon="30.009595407173038">
        <ele>77.519999999999996</ele>
        <time>2026-04-25T10:08:10Z</time>
      </trkpt>
      <trkpt lat="59.076567767187953" lon="30.009559951722622">
        <ele>77.519999999999996</ele>
        <time>2026-04-25T10:08:19Z</time>
      </trkpt>
      <trkpt lat="59.076569946482778" lon="30.009570177644491">
        <ele>77.519999999999996</ele>
        <time>2026-04-25T10:08:33Z</time>
      </trkpt>
      <trkpt lat="59.076613783836365" lon="30.00961066223681">
        <ele>77.519999999999996</ele>
        <time>2026-04-25T10:08:44Z</time>
      </trkpt>
      <trkpt lat="59.076698776334524" lon="30.00967369414866">
        <ele>77.519999999999996</ele>
        <time>2026-04-25T10:09:05Z</time>
      </trkpt>
      <trkpt lat="59.076680252328515" lon="30.009611835703254">
        <ele>77.519999999999996</ele>
        <time>2026-04-25T10:09:16Z</time>
      </trkpt>
      <trkpt lat="59.076700787991285" lon="30.009587025269866">
        <ele>77.519999999999996</ele>
        <time>2026-04-25T10:09:21Z</time>
      </trkpt>
      <trkpt lat="59.076748564839363" lon="30.009554335847497">
        <ele>77.519999999999996</ele>
        <time>2026-04-25T10:09:28Z</time>
      </trkpt>
      <trkpt lat="59.076807573437691" lon="30.009528268128633">
        <ele>77.519999999999996</ele>
        <time>2026-04-25T10:09:35Z</time>
      </trkpt>
      <trkpt lat="59.076878735795617" lon="30.009502284228802">
        <ele>77.519999999999996</ele>
        <time>2026-04-25T10:09:43Z</time>
      </trkpt>
      <trkpt lat="59.076933553442359" lon="30.009490633383393">
        <ele>77.519999999999996</ele>
        <time>2026-04-25T10:09:51Z</time>
      </trkpt>
      <trkpt lat="59.076963979750872" lon="30.009452914819121">
        <ele>77.519999999999996</ele>
        <time>2026-04-25T10:09:57Z</time>
      </trkpt>
      <trkpt lat="59.077036567032337" lon="30.009424583986402">
        <ele>77.519999999999996</ele>
        <time>2026-04-25T10:10:05Z</time>
      </trkpt>
      <trkpt lat="59.077059701085091" lon="30.009425757452846">
        <ele>77.519999999999996</ele>
        <time>2026-04-25T10:10:08Z</time>
      </trkpt>
      <trkpt lat="59.077083254233003" lon="30.009430283680558">
        <ele>78</ele>
        <time>2026-04-25T10:10:13Z</time>
      </trkpt>
      <trkpt lat="59.077139580622315" lon="30.009421482682228">
        <ele>78</ele>
        <time>2026-04-25T10:10:20Z</time>
      </trkpt>
      <trkpt lat="59.077212754637003" lon="30.009429361671209">
        <ele>78</ele>
        <time>2026-04-25T10:10:28Z</time>
      </trkpt>
      <trkpt lat="59.0772819891572" lon="30.009444616734982">
        <ele>78</ele>
        <time>2026-04-25T10:10:37Z</time>
      </trkpt>
      <trkpt lat="59.077328676357865" lon="30.009368089959025">
        <ele>78</ele>
        <time>2026-04-25T10:10:45Z</time>
      </trkpt>
      <trkpt lat="59.077351475134492" lon="30.009325090795755">
        <ele>78</ele>
        <time>2026-04-25T10:10:49Z</time>
      </trkpt>
      <trkpt lat="59.077360611408949" lon="30.009266249835491">
        <ele>78</ele>
        <time>2026-04-25T10:10:55Z</time>
      </trkpt>
      <trkpt lat="59.077387014403939" lon="30.009215539321303">
        <ele>78</ele>
        <time>2026-04-25T10:11:01Z</time>
      </trkpt>
      <trkpt lat="59.077443089336157" lon="30.009174467995763">
        <ele>78</ele>
        <time>2026-04-25T10:11:09Z</time>
      </trkpt>
      <trkpt lat="59.077486759051681" lon="30.009211516007781">
        <ele>78</ele>
        <time>2026-04-25T10:11:17Z</time>
      </trkpt>
      <trkpt lat="59.077509809285402" lon="30.00923490151763">
        <ele>78</ele>
        <time>2026-04-25T10:11:22Z</time>
      </trkpt>
      <trkpt lat="59.07756244763732" lon="30.009181089699268">
        <ele>78</ele>
        <time>2026-04-25T10:11:31Z</time>
      </trkpt>
      <trkpt lat="59.077594047412276" lon="30.009147142991424">
        <ele>78</ele>
        <time>2026-04-25T10:11:45Z</time>
      </trkpt>
      <trkpt lat="59.077631514519453" lon="30.009171199053526">
        <ele>78</ele>
        <time>2026-04-25T10:11:55Z</time>
      </trkpt>
      <trkpt lat="59.077686499804258" lon="30.009195674210787">
        <ele>78.969999999999999</ele>
        <time>2026-04-25T10:12:05Z</time>
      </trkpt>
      <trkpt lat="59.077726481482387" lon="30.009177234023809">
        <ele>78.969999999999999</ele>
        <time>2026-04-25T10:12:09Z</time>
      </trkpt>
      <trkpt lat="59.077875008806586" lon="30.009151753038168">
        <ele>78.969999999999999</ele>
        <time>2026-04-25T10:12:31Z</time>
      </trkpt>
      <trkpt lat="59.077974585816264" lon="30.009125014767051">
        <ele>78.969999999999999</ele>
        <time>2026-04-25T10:12:43Z</time>
      </trkpt>
      <trkpt lat="59.078091345727444" lon="30.009156195446849">
        <ele>78.969999999999999</ele>
        <time>2026-04-25T10:12:58Z</time>
      </trkpt>
      <trkpt lat="59.078126717358828" lon="30.009073885157704">
        <ele>78.969999999999999</ele>
        <time>2026-04-25T10:13:06Z</time>
      </trkpt>
      <trkpt lat="59.078295277431607" lon="30.008918149396777">
        <ele>78.969999999999999</ele>
        <time>2026-04-25T10:13:29Z</time>
      </trkpt>
      <trkpt lat="59.078425532206893" lon="30.008918233215809">
        <ele>79.450000000000003</ele>
        <time>2026-04-25T10:13:45Z</time>
      </trkpt>
      <trkpt lat="59.078455455601215" lon="30.008872132748365">
        <ele>79.450000000000003</ele>
        <time>2026-04-25T10:13:53Z</time>
      </trkpt>
      <trkpt lat="59.078524019569159" lon="30.008887555450201">
        <ele>79.450000000000003</ele>
        <time>2026-04-25T10:14:03Z</time>
      </trkpt>
      <trkpt lat="59.078616052865982" lon="30.008885292336345">
        <ele>79.450000000000003</ele>
        <time>2026-04-25T10:14:16Z</time>
      </trkpt>
      <trkpt lat="59.078623596578836" lon="30.008829385042191">
        <ele>79.450000000000003</ele>
        <time>2026-04-25T10:14:19Z</time>
      </trkpt>
      <trkpt lat="59.078622255474329" lon="30.008780853822827">
        <ele>79.450000000000003</ele>
        <time>2026-04-25T10:14:23Z</time>
      </trkpt>
      <trkpt lat="59.078639186918736" lon="30.008740620687604">
        <ele>79.450000000000003</ele>
        <time>2026-04-25T10:14:26Z</time>
      </trkpt>
      <trkpt lat="59.078646646812558" lon="30.008738860487938">
        <ele>79.450000000000003</ele>
        <time>2026-04-25T10:14:30Z</time>
      </trkpt>
      <trkpt lat="59.078797688707709" lon="30.008849082514644">
        <ele>79.450000000000003</ele>
        <time>2026-04-25T10:14:48Z</time>
      </trkpt>
      <trkpt lat="59.078824678435922" lon="30.008798288181424">
        <ele>79.450000000000003</ele>
        <time>2026-04-25T10:14:55Z</time>
      </trkpt>
      <trkpt lat="59.078904557973146" lon="30.008798120543361">
        <ele>79.930000000000007</ele>
        <time>2026-04-25T10:15:24Z</time>
      </trkpt>
      <trkpt lat="59.078994998708367" lon="30.008886298164725">
        <ele>79.930000000000007</ele>
        <time>2026-04-25T10:15:52Z</time>
      </trkpt>
      <trkpt lat="59.078978653997183" lon="30.008874898776412">
        <ele>79.930000000000007</ele>
        <time>2026-04-25T10:16:06Z</time>
      </trkpt>
      <trkpt lat="59.078960884362459" lon="30.008856793865561">
        <ele>79.930000000000007</ele>
        <time>2026-04-25T10:16:26Z</time>
      </trkpt>
      <trkpt lat="59.078921154141426" lon="30.008762245997787">
        <ele>79.930000000000007</ele>
        <time>2026-04-25T10:16:48Z</time>
      </trkpt>
      <trkpt lat="59.078922662883997" lon="30.00875755213201">
        <ele>79.930000000000007</ele>
        <time>2026-04-25T10:17:03Z</time>
      </trkpt>
      <trkpt lat="59.078915538266301" lon="30.008778674528003">
        <ele>79.930000000000007</ele>
        <time>2026-04-25T10:17:19Z</time>
      </trkpt>
      <trkpt lat="59.078969182446599" lon="30.008747493848205">
        <ele>80.409999999999997</ele>
        <time>2026-04-25T10:17:35Z</time>
      </trkpt>
      <trkpt lat="59.078961722552776" lon="30.008721090853214">
        <ele>80.409999999999997</ele>
        <time>2026-04-25T10:17:52Z</time>
      </trkpt>
      <trkpt lat="59.078994076699018" lon="30.008654957637191">
        <ele>80.409999999999997</ele>
        <time>2026-04-25T10:18:01Z</time>
      </trkpt>
      <trkpt lat="59.079033806920052" lon="30.008579436689615">
        <ele>80.409999999999997</ele>
        <time>2026-04-25T10:18:10Z</time>
      </trkpt>
      <trkpt lat="59.079053085297346" lon="30.008561415597796">
        <ele>80.409999999999997</ele>
        <time>2026-04-25T10:18:15Z</time>
      </trkpt>
      <trkpt lat="59.079103544354439" lon="30.008487235754728">
        <ele>80.409999999999997</ele>
        <time>2026-04-25T10:18:22Z</time>
      </trkpt>
      <trkpt lat="59.079144783318043" lon="30.008475668728352">
        <ele>80.409999999999997</ele>
        <time>2026-04-25T10:18:30Z</time>
      </trkpt>
      <trkpt lat="59.079188872128725" lon="30.008437614887953">
        <ele>80.409999999999997</ele>
        <time>2026-04-25T10:18:38Z</time>
      </trkpt>
      <trkpt lat="59.07922524958849" lon="30.008399561047554">
        <ele>80.409999999999997</ele>
        <time>2026-04-25T10:18:44Z</time>
      </trkpt>
      <trkpt lat="59.079227931797504" lon="30.008395621553063">
        <ele>80.409999999999997</ele>
        <time>2026-04-25T10:18:45Z</time>
      </trkpt>
      <trkpt lat="59.07927562482655" lon="30.008360166102648">
        <ele>80.409999999999997</ele>
        <time>2026-04-25T10:18:49Z</time>
      </trkpt>
      <trkpt lat="59.079316528514028" lon="30.008353376761079">
        <ele>80.409999999999997</ele>
        <time>2026-04-25T10:18:55Z</time>
      </trkpt>
      <trkpt lat="59.079325748607516" lon="30.008352370932698">
        <ele>80.409999999999997</ele>
        <time>2026-04-25T10:18:57Z</time>
      </trkpt>
      <trkpt lat="59.079345529899001" lon="30.008366368710995">
        <ele>80.409999999999997</ele>
        <time>2026-04-25T10:19:01Z</time>
      </trkpt>
      <trkpt lat="59.079401521012187" lon="30.008371397852898">
        <ele>80.409999999999997</ele>
        <time>2026-04-25T10:19:07Z</time>
      </trkpt>
      <trkpt lat="59.079437311738729" lon="30.008337618783116">
        <ele>80.409999999999997</ele>
        <time>2026-04-25T10:19:14Z</time>
      </trkpt>
      <trkpt lat="59.079463044181466" lon="30.008344994857907">
        <ele>80.409999999999997</ele>
        <time>2026-04-25T10:19:18Z</time>
      </trkpt>
      <trkpt lat="59.079500595107675" lon="30.008344408124685">
        <ele>80.409999999999997</ele>
        <time>2026-04-25T10:19:22Z</time>
      </trkpt>
      <trkpt lat="59.07952138222754" lon="30.008260505273938">
        <ele>80.409999999999997</ele>
        <time>2026-04-25T10:19:29Z</time>
      </trkpt>
      <trkpt lat="59.079555412754416" lon="30.008238879963756">
        <ele>80.409999999999997</ele>
        <time>2026-04-25T10:19:35Z</time>
      </trkpt>
      <trkpt lat="59.079636381939054" lon="30.008197976276278">
        <ele>80.409999999999997</ele>
        <time>2026-04-25T10:19:43Z</time>
      </trkpt>
      <trkpt lat="59.079733109101653" lon="30.008209962397814">
        <ele>80.409999999999997</ele>
        <time>2026-04-25T10:19:52Z</time>
      </trkpt>
      <trkpt lat="59.079807875677943" lon="30.008244663476944">
        <ele>80.409999999999997</ele>
        <time>2026-04-25T10:20:01Z</time>
      </trkpt>
      <trkpt lat="59.079851796850562" lon="30.008241813629866">
        <ele>80.409999999999997</ele>
        <time>2026-04-25T10:20:08Z</time>
      </trkpt>
      <trkpt lat="59.079912984743714" lon="30.008225636556745">
        <ele>80.409999999999997</ele>
        <time>2026-04-25T10:20:15Z</time>
      </trkpt>
      <trkpt lat="59.079978363588452" lon="30.008190181106329">
        <ele>80.409999999999997</ele>
        <time>2026-04-25T10:20:23Z</time>
      </trkpt>
      <trkpt lat="59.080007197335362" lon="30.008227564394474">
        <ele>80.409999999999997</ele>
        <time>2026-04-25T10:20:30Z</time>
      </trkpt>
      <trkpt lat="59.080065451562405" lon="30.008244076743722">
        <ele>80.409999999999997</ele>
        <time>2026-04-25T10:20:37Z</time>
      </trkpt>
      <trkpt lat="59.080095291137695" lon="30.008241645991802">
        <ele>80.890000000000001</ele>
        <time>2026-04-25T10:20:45Z</time>
      </trkpt>
      <trkpt lat="59.08011800609529" lon="30.008313646540046">
        <ele>80.890000000000001</ele>
        <time>2026-04-25T10:20:51Z</time>
      </trkpt>
      <trkpt lat="59.080165363848209" lon="30.008334601297975">
        <ele>80.890000000000001</ele>
        <time>2026-04-25T10:20:59Z</time>
      </trkpt>
      <trkpt lat="59.080173242837191" lon="30.008341558277607">
        <ele>80.890000000000001</ele>
        <time>2026-04-25T10:21:02Z</time>
      </trkpt>
      <trkpt lat="59.080191180109978" lon="30.008318508043885">
        <ele>80.890000000000001</ele>
        <time>2026-04-25T10:21:06Z</time>
      </trkpt>
      <trkpt lat="59.08022596500814" lon="30.008239969611168">
        <ele>80.890000000000001</ele>
        <time>2026-04-25T10:21:16Z</time>
      </trkpt>
      <trkpt lat="59.080259995535016" lon="30.008278274908662">
        <ele>80.890000000000001</ele>
        <time>2026-04-25T10:21:25Z</time>
      </trkpt>
      <trkpt lat="59.080312717705965" lon="30.008371649309993">
        <ele>80.890000000000001</ele>
        <time>2026-04-25T10:21:35Z</time>
      </trkpt>
      <trkpt lat="59.080335851758718" lon="30.008379109203815">
        <ele>80.890000000000001</ele>
        <time>2026-04-25T10:21:39Z</time>
      </trkpt>
      <trkpt lat="59.080396285280585" lon="30.00838371925056">
        <ele>80.890000000000001</ele>
        <time>2026-04-25T10:21:49Z</time>
      </trkpt>
      <trkpt lat="59.080447163432837" lon="30.008345078676939">
        <ele>80.890000000000001</ele>
        <time>2026-04-25T10:22:01Z</time>
      </trkpt>
      <trkpt lat="59.080482283607125" lon="30.008281711488962">
        <ele>79.930000000000007</ele>
        <time>2026-04-25T10:22:10Z</time>
      </trkpt>
      <trkpt lat="59.080520169809461" lon="30.008234269917011">
        <ele>79.930000000000007</ele>
        <time>2026-04-25T10:22:20Z</time>
      </trkpt>
      <trkpt lat="59.0805699583143" lon="30.008181212469935">
        <ele>79.930000000000007</ele>
        <time>2026-04-25T10:22:28Z</time>
      </trkpt>
      <trkpt lat="59.080601306632161" lon="30.008173082023859">
        <ele>79.450000000000003</ele>
        <time>2026-04-25T10:22:35Z</time>
      </trkpt>
      <trkpt lat="59.080667020753026" lon="30.008147349581122">
        <ele>79.450000000000003</ele>
        <time>2026-04-25T10:22:43Z</time>
      </trkpt>
      <trkpt lat="59.080733992159367" lon="30.008136285468936">
        <ele>79.450000000000003</ele>
        <time>2026-04-25T10:22:51Z</time>
      </trkpt>
      <trkpt lat="59.080739608034492" lon="30.008128825575113">
        <ele>79.450000000000003</ele>
        <time>2026-04-25T10:23:01Z</time>
      </trkpt>
      <trkpt lat="59.080772129818797" lon="30.008057244122028">
        <ele>79.450000000000003</ele>
        <time>2026-04-25T10:23:13Z</time>
      </trkpt>
      <trkpt lat="59.080773470923305" lon="30.008028410375118">
        <ele>79.450000000000003</ele>
        <time>2026-04-25T10:23:23Z</time>
      </trkpt>
      <trkpt lat="59.080776488408446" lon="30.008011981844902">
        <ele>79.450000000000003</ele>
        <time>2026-04-25T10:23:30Z</time>
      </trkpt>
      <trkpt lat="59.080812446773052" lon="30.008040647953749">
        <ele>79.450000000000003</ele>
        <time>2026-04-25T10:23:40Z</time>
      </trkpt>
      <trkpt lat="59.080835916101933" lon="30.008018687367439">
        <ele>79.450000000000003</ele>
        <time>2026-04-25T10:23:51Z</time>
      </trkpt>
      <trkpt lat="59.080887800082564" lon="30.007952470332384">
        <ele>79.450000000000003</ele>
        <time>2026-04-25T10:24:01Z</time>
      </trkpt>
      <trkpt lat="59.080889644101262" lon="30.007961271330714">
        <ele>79.450000000000003</ele>
        <time>2026-04-25T10:24:06Z</time>
      </trkpt>
      <trkpt lat="59.080918561667204" lon="30.007899915799499">
        <ele>79.450000000000003</ele>
        <time>2026-04-25T10:24:13Z</time>
      </trkpt>
      <trkpt lat="59.080926021561027" lon="30.007845936343074">
        <ele>79.450000000000003</ele>
        <time>2026-04-25T10:24:38Z</time>
      </trkpt>
      <trkpt lat="59.080953011289239" lon="30.007841242477298">
        <ele>79.450000000000003</ele>
        <time>2026-04-25T10:24:45Z</time>
      </trkpt>
      <trkpt lat="59.081046553328633" lon="30.007835710421205">
        <ele>79.450000000000003</ele>
        <time>2026-04-25T10:25:03Z</time>
      </trkpt>
      <trkpt lat="59.081058539450169" lon="30.00788482837379">
        <ele>79.450000000000003</ele>
        <time>2026-04-25T10:25:29Z</time>
      </trkpt>
      <trkpt lat="59.081096341833472" lon="30.007866136729717">
        <ele>79.450000000000003</ele>
        <time>2026-04-25T10:25:44Z</time>
      </trkpt>
      <trkpt lat="59.081057365983725" lon="30.007811402902007">
        <ele>79.450000000000003</ele>
        <time>2026-04-25T10:26:00Z</time>
      </trkpt>
      <trkpt lat="59.081070190295577" lon="30.007790196686983">
        <ele>79.450000000000003</ele>
        <time>2026-04-25T10:26:17Z</time>
      </trkpt>
      <trkpt lat="59.081095000728965" lon="30.007802518084645">
        <ele>79.450000000000003</ele>
        <time>2026-04-25T10:26:28Z</time>
      </trkpt>
      <trkpt lat="59.081091228872538" lon="30.007880972698331">
        <ele>80.409999999999997</ele>
        <time>2026-04-25T10:26:48Z</time>
      </trkpt>
      <trkpt lat="59.081061892211437" lon="30.007918691262603">
        <ele>80.409999999999997</ele>
        <time>2026-04-25T10:27:03Z</time>
      </trkpt>
      <trkpt lat="59.081096509471536" lon="30.0078652985394">
        <ele>80.409999999999997</ele>
        <time>2026-04-25T10:27:22Z</time>
      </trkpt>
      <trkpt lat="59.081137580797076" lon="30.007756585255265">
        <ele>80.409999999999997</ele>
        <time>2026-04-25T10:27:35Z</time>
      </trkpt>
      <trkpt lat="59.081154428422451" lon="30.007706629112363">
        <ele>80.409999999999997</ele>
        <time>2026-04-25T10:27:44Z</time>
      </trkpt>
      <trkpt lat="59.081134060397744" lon="30.007742503657937">
        <ele>80.409999999999997</ele>
        <time>2026-04-25T10:27:57Z</time>
      </trkpt>
      <trkpt lat="59.081123080104589" lon="30.007760608568788">
        <ele>80.409999999999997</ele>
        <time>2026-04-25T10:28:14Z</time>
      </trkpt>
      <trkpt lat="59.081202708184719" lon="30.007727332413197">
        <ele>80.890000000000001</ele>
        <time>2026-04-25T10:28:24Z</time>
      </trkpt>
      <trkpt lat="59.081291640177369" lon="30.00768986530602">
        <ele>80.890000000000001</ele>
        <time>2026-04-25T10:28:33Z</time>
      </trkpt>
      <trkpt lat="59.081384260207415" lon="30.007671508938074">
        <ele>80.890000000000001</ele>
        <time>2026-04-25T10:28:49Z</time>
      </trkpt>
      <trkpt lat="59.081478137522936" lon="30.007653823122382">
        <ele>80.890000000000001</ele>
        <time>2026-04-25T10:29:02Z</time>
      </trkpt>
      <trkpt lat="59.081526920199394" lon="30.007597077637911">
        <ele>80.890000000000001</ele>
        <time>2026-04-25T10:29:10Z</time>
      </trkpt>
      <trkpt lat="59.08160244114697" lon="30.007634209468961">
        <ele>80.890000000000001</ele>
        <time>2026-04-25T10:29:29Z</time>
      </trkpt>
      <trkpt lat="59.081658516079187" lon="30.007629850879312">
        <ele>80.890000000000001</ele>
        <time>2026-04-25T10:29:56Z</time>
      </trkpt>
      <trkpt lat="59.081679554656148" lon="30.007592719048262">
        <ele>80.890000000000001</ele>
        <time>2026-04-25T10:30:23Z</time>
      </trkpt>
      <trkpt lat="59.081720039248466" lon="30.007587606087327">
        <ele>80.890000000000001</ele>
        <time>2026-04-25T10:30:33Z</time>
      </trkpt>
      <trkpt lat="59.081799415871501" lon="30.007583582773805">
        <ele>79.930000000000007</ele>
        <time>2026-04-25T10:30:46Z</time>
      </trkpt>
      <trkpt lat="59.08187854103744" lon="30.007485011592507">
        <ele>79.930000000000007</ele>
        <time>2026-04-25T10:30:59Z</time>
      </trkpt>
      <trkpt lat="59.081929670646787" lon="30.007519293576479">
        <ele>79.930000000000007</ele>
        <time>2026-04-25T10:31:08Z</time>
      </trkpt>
      <trkpt lat="59.082045843824744" lon="30.007443353533745">
        <ele>79.930000000000007</ele>
        <time>2026-04-25T10:31:35Z</time>
      </trkpt>
      <trkpt lat="59.082156904041767" lon="30.007378980517387">
        <ele>79.930000000000007</ele>
        <time>2026-04-25T10:31:53Z</time>
      </trkpt>
      <trkpt lat="59.082196382805705" lon="30.00732340849936">
        <ele>79.930000000000007</ele>
        <time>2026-04-25T10:32:03Z</time>
      </trkpt>
      <trkpt lat="59.082233179360628" lon="30.007292730733752">
        <ele>79.930000000000007</ele>
        <time>2026-04-25T10:32:12Z</time>
      </trkpt>
      <trkpt lat="59.082309538498521" lon="30.00725937075913">
        <ele>79.930000000000007</ele>
        <time>2026-04-25T10:32:23Z</time>
      </trkpt>
      <trkpt lat="59.082395536825061" lon="30.007250234484673">
        <ele>79.930000000000007</ele>
        <time>2026-04-25T10:32:35Z</time>
      </trkpt>
      <trkpt lat="59.082462843507528" lon="30.007249396294355">
        <ele>79.930000000000007</ele>
        <time>2026-04-25T10:32:45Z</time>
      </trkpt>
      <trkpt lat="59.082545908167958" lon="30.007267082110047">
        <ele>79.450000000000003</ele>
        <time>2026-04-25T10:32:59Z</time>
      </trkpt>
      <trkpt lat="59.082564515992999" lon="30.007192902266979">
        <ele>79.450000000000003</ele>
        <time>2026-04-25T10:33:13Z</time>
      </trkpt>
      <trkpt lat="59.08264959231019" lon="30.007176138460636">
        <ele>79.450000000000003</ele>
        <time>2026-04-25T10:33:26Z</time>
      </trkpt>
      <trkpt lat="59.08264959231019" lon="30.00714311376214">
        <ele>79.450000000000003</ele>
        <time>2026-04-25T10:33:40Z</time>
      </trkpt>
      <trkpt lat="59.082706170156598" lon="30.007036244496703">
        <ele>79.450000000000003</ele>
        <time>2026-04-25T10:33:53Z</time>
      </trkpt>
      <trkpt lat="59.082748414948583" lon="30.006947312504053">
        <ele>79.450000000000003</ele>
        <time>2026-04-25T10:34:03Z</time>
      </trkpt>
      <trkpt lat="59.082804154604673" lon="30.00691294670105">
        <ele>79.450000000000003</ele>
        <time>2026-04-25T10:34:14Z</time>
      </trkpt>
      <trkpt lat="59.0828528534621" lon="30.006877239793539">
        <ele>79.450000000000003</ele>
        <time>2026-04-25T10:34:21Z</time>
      </trkpt>
      <trkpt lat="59.082897696644068" lon="30.006766431033611">
        <ele>79.450000000000003</ele>
        <time>2026-04-25T10:34:37Z</time>
      </trkpt>
      <trkpt lat="59.082869868725538" lon="30.006668781861663">
        <ele>79.450000000000003</ele>
        <time>2026-04-25T10:34:56Z</time>
      </trkpt>
      <trkpt lat="59.082838939502835" lon="30.006731897592545">
        <ele>79.450000000000003</ele>
        <time>2026-04-25T10:35:17Z</time>
      </trkpt>
      <trkpt lat="59.082840448245406" lon="30.006585633382201">
        <ele>79.450000000000003</ele>
        <time>2026-04-25T10:35:27Z</time>
      </trkpt>
      <trkpt lat="59.082835083827376" lon="30.006310287863016">
        <ele>79.450000000000003</ele>
        <time>2026-04-25T10:35:41Z</time>
      </trkpt>
      <trkpt lat="59.08277758397162" lon="30.006025051698089">
        <ele>79.450000000000003</ele>
        <time>2026-04-25T10:35:56Z</time>
      </trkpt>
      <trkpt lat="59.082768196240067" lon="30.005853055045009">
        <ele>79.450000000000003</ele>
        <time>2026-04-25T10:36:05Z</time>
      </trkpt>
      <trkpt lat="59.08277322538197" lon="30.005792202427983">
        <ele>79.450000000000003</ele>
        <time>2026-04-25T10:36:12Z</time>
      </trkpt>
      <trkpt lat="59.0828044898808" lon="30.005813911557198">
        <ele>79.450000000000003</ele>
        <time>2026-04-25T10:36:35Z</time>
      </trkpt>
      <trkpt lat="59.082807926461101" lon="30.005745766684413">
        <ele>79.450000000000003</ele>
        <time>2026-04-25T10:36:51Z</time>
      </trkpt>
      <trkpt lat="59.082814380526543" lon="30.005719279870391">
        <ele>79.450000000000003</ele>
        <time>2026-04-25T10:37:12Z</time>
      </trkpt>
      <trkpt lat="59.082838771864772" lon="30.005685333162546">
        <ele>79.450000000000003</ele>
        <time>2026-04-25T10:37:27Z</time>
      </trkpt>
      <trkpt lat="59.08280985429883" lon="30.005759345367551">
        <ele>79.450000000000003</ele>
        <time>2026-04-25T10:37:55Z</time>
      </trkpt>
      <trkpt lat="59.082777416333556" lon="30.005774097517133">
        <ele>79.450000000000003</ele>
        <time>2026-04-25T10:38:19Z</time>
      </trkpt>
      <trkpt lat="59.082727627828717" lon="30.005790274590254">
        <ele>79.450000000000003</ele>
        <time>2026-04-25T10:38:47Z</time>
      </trkpt>
      <trkpt lat="59.082678593695164" lon="30.005847020074725">
        <ele>79.450000000000003</ele>
        <time>2026-04-25T10:39:06Z</time>
      </trkpt>
      <trkpt lat="59.082691082730889" lon="30.005837213248014">
        <ele>79.450000000000003</ele>
        <time>2026-04-25T10:39:26Z</time>
      </trkpt>
      <trkpt lat="59.082727627828717" lon="30.005843248218298">
        <ele>79.450000000000003</ele>
        <time>2026-04-25T10:39:41Z</time>
      </trkpt>
      <trkpt lat="59.0827751532197" lon="30.005821539089084">
        <ele>79.450000000000003</ele>
        <time>2026-04-25T10:39:56Z</time>
      </trkpt>
      <trkpt lat="59.082821924239397" lon="30.005772253498435">
        <ele>79.450000000000003</ele>
        <time>2026-04-25T10:40:13Z</time>
      </trkpt>
      <trkpt lat="59.082784624770284" lon="30.005843080580235">
        <ele>79.930000000000007</ele>
        <time>2026-04-25T10:40:32Z</time>
      </trkpt>
      <trkpt lat="59.082833742722869" lon="30.005812989547849">
        <ele>79.930000000000007</ele>
        <time>2026-04-25T10:40:55Z</time>
      </trkpt>
      <trkpt lat="59.082855116575956" lon="30.00578423961997">
        <ele>79.930000000000007</ele>
        <time>2026-04-25T10:41:09Z</time>
      </trkpt>
      <trkpt lat="59.082869701087475" lon="30.005814917385578">
        <ele>79.930000000000007</ele>
        <time>2026-04-25T10:41:25Z</time>
      </trkpt>
      <trkpt lat="59.082842627540231" lon="30.005849534645677">
        <ele>79.930000000000007</ele>
        <time>2026-04-25T10:41:43Z</time>
      </trkpt>
      <trkpt lat="59.082835335284472" lon="30.005777031183243">
        <ele>79.930000000000007</ele>
        <time>2026-04-25T10:42:04Z</time>
      </trkpt>
      <trkpt lat="59.082839861512184" lon="30.005810642614961">
        <ele>79.930000000000007</ele>
        <time>2026-04-25T10:42:20Z</time>
      </trkpt>
      <trkpt lat="59.082831563428044" lon="30.005852719768882">
        <ele>80.890000000000001</ele>
        <time>2026-04-25T10:42:39Z</time>
      </trkpt>
      <trkpt lat="59.08282158896327" lon="30.005844254046679">
        <ele>81.370000000000005</ele>
        <time>2026-04-25T10:42:52Z</time>
      </trkpt>
      <trkpt lat="59.082748917862773" lon="30.005744928494096">
        <ele>81.370000000000005</ele>
        <time>2026-04-25T10:43:01Z</time>
      </trkpt>
      <trkpt lat="59.082710612565279" lon="30.005575194954872">
        <ele>81.370000000000005</ele>
        <time>2026-04-25T10:43:09Z</time>
      </trkpt>
      <trkpt lat="59.082700721919537" lon="30.005481233820319">
        <ele>81.370000000000005</ele>
        <time>2026-04-25T10:43:14Z</time>
      </trkpt>
      <trkpt lat="59.082689573988318" lon="30.005328431725502">
        <ele>81.370000000000005</ele>
        <time>2026-04-25T10:43:22Z</time>
      </trkpt>
      <trkpt lat="59.082682784646749" lon="30.005288701504469">
        <ele>81.370000000000005</ele>
        <time>2026-04-25T10:43:24Z</time>
      </trkpt>
      <trkpt lat="59.082649173215032" lon="30.005138162523508">
        <ele>81.370000000000005</ele>
        <time>2026-04-25T10:43:35Z</time>
      </trkpt>
      <trkpt lat="59.08264959231019" lon="30.00506641343236">
        <ele>81.370000000000005</ele>
        <time>2026-04-25T10:43:42Z</time>
      </trkpt>
      <trkpt lat="59.0826266258955" lon="30.00493448227644">
        <ele>81.370000000000005</ele>
        <time>2026-04-25T10:43:51Z</time>
      </trkpt>
      <trkpt lat="59.082600474357605" lon="30.004755361005664">
        <ele>81.370000000000005</ele>
        <time>2026-04-25T10:44:01Z</time>
      </trkpt>
      <trkpt lat="59.082572562620044" lon="30.004538604989648">
        <ele>81.370000000000005</ele>
        <time>2026-04-25T10:44:13Z</time>
      </trkpt>
      <trkpt lat="59.08253819681704" lon="30.004639439284801">
        <ele>81.370000000000005</ele>
        <time>2026-04-25T10:44:29Z</time>
      </trkpt>
      <trkpt lat="59.08249813131988" lon="30.004680175334215">
        <ele>81.370000000000005</ele>
        <time>2026-04-25T10:44:45Z</time>
      </trkpt>
      <trkpt lat="59.082437613978982" lon="30.004723258316517">
        <ele>82.329999999999998</ele>
        <time>2026-04-25T10:45:00Z</time>
      </trkpt>
      <trkpt lat="59.082371648401022" lon="30.004752930253744">
        <ele>82.810000000000002</ele>
        <time>2026-04-25T10:45:09Z</time>
      </trkpt>
      <trkpt lat="59.082334265112877" lon="30.004753433167934">
        <ele>82.810000000000002</ele>
        <time>2026-04-25T10:45:28Z</time>
      </trkpt>
      <trkpt lat="59.082312639802694" lon="30.004702219739556">
        <ele>82.810000000000002</ele>
        <time>2026-04-25T10:45:44Z</time>
      </trkpt>
      <trkpt lat="59.082285230979323" lon="30.004669446498156">
        <ele>82.810000000000002</ele>
        <time>2026-04-25T10:45:59Z</time>
      </trkpt>
      <trkpt lat="59.082257738336921" lon="30.004586465656757">
        <ele>82.810000000000002</ele>
        <time>2026-04-25T10:46:12Z</time>
      </trkpt>
      <trkpt lat="59.082219684496522" lon="30.004649749025702">
        <ele>82.810000000000002</ele>
        <time>2026-04-25T10:46:26Z</time>
      </trkpt>
      <trkpt lat="59.082187414169312" lon="30.004675900563598">
        <ele>82.810000000000002</ele>
        <time>2026-04-25T10:46:33Z</time>
      </trkpt>
      <trkpt lat="59.082155898213387" lon="30.004724599421024">
        <ele>82.810000000000002</ele>
        <time>2026-04-25T10:47:14Z</time>
      </trkpt>
      <trkpt lat="59.082138296216726" lon="30.004836246371269">
        <ele>82.810000000000002</ele>
        <time>2026-04-25T10:47:25Z</time>
      </trkpt>
      <trkpt lat="59.082169141620398" lon="30.004939511418343">
        <ele>82.810000000000002</ele>
        <time>2026-04-25T10:47:34Z</time>
      </trkpt>
      <trkpt lat="59.082170818001032" lon="30.005031544715166">
        <ele>83.290000000000006</ele>
        <time>2026-04-25T10:47:47Z</time>
      </trkpt>
      <trkpt lat="59.082193281501532" lon="30.005183005705476">
        <ele>83.290000000000006</ele>
        <time>2026-04-25T10:48:05Z</time>
      </trkpt>
      <trkpt lat="59.082238459959626" lon="30.005302112549543">
        <ele>83.290000000000006</ele>
        <time>2026-04-25T10:48:15Z</time>
      </trkpt>
      <trkpt lat="59.082318674772978" lon="30.005477042868733">
        <ele>83.290000000000006</ele>
        <time>2026-04-25T10:48:35Z</time>
      </trkpt>
      <trkpt lat="59.082281040027738" lon="30.005617439746857">
        <ele>83.290000000000006</ele>
        <time>2026-04-25T10:48:46Z</time>
      </trkpt>
      <trkpt lat="59.08228212967515" lon="30.005772421136498">
        <ele>83.290000000000006</ele>
        <time>2026-04-25T10:49:17Z</time>
      </trkpt>
      <trkpt lat="59.082309789955616" lon="30.005790526047349">
        <ele>83.290000000000006</ele>
        <time>2026-04-25T10:49:24Z</time>
      </trkpt>
      <trkpt lat="59.082352789118886" lon="30.005825227126479">
        <ele>83.290000000000006</ele>
        <time>2026-04-25T10:49:35Z</time>
      </trkpt>
      <trkpt lat="59.082383466884494" lon="30.005886917933822">
        <ele>83.290000000000006</ele>
        <time>2026-04-25T10:49:43Z</time>
      </trkpt>
      <trkpt lat="59.082407271489501" lon="30.005937125533819">
        <ele>83.290000000000006</ele>
        <time>2026-04-25T10:49:51Z</time>
      </trkpt>
      <trkpt lat="59.082415234297514" lon="30.006006276234984">
        <ele>83.290000000000006</ele>
        <time>2026-04-25T10:49:59Z</time>
      </trkpt>
      <trkpt lat="59.08240919932723" lon="30.006018094718456">
        <ele>83.290000000000006</ele>
        <time>2026-04-25T10:50:02Z</time>
      </trkpt>
      <trkpt lat="59.082439541816711" lon="30.006084144115448">
        <ele>83.290000000000006</ele>
        <time>2026-04-25T10:50:11Z</time>
      </trkpt>
      <trkpt lat="59.082437697798014" lon="30.006147427484393">
        <ele>83.290000000000006</ele>
        <time>2026-04-25T10:50:17Z</time>
      </trkpt>
      <trkpt lat="59.08243409357965" lon="30.006186151877046">
        <ele>83.290000000000006</ele>
        <time>2026-04-25T10:50:23Z</time>
      </trkpt>
      <trkpt lat="59.082410791888833" lon="30.006274497136474">
        <ele>83.290000000000006</ele>
        <time>2026-04-25T10:50:33Z</time>
      </trkpt>
      <trkpt lat="59.082369050011039" lon="30.006342055276036">
        <ele>83.290000000000006</ele>
        <time>2026-04-25T10:50:50Z</time>
      </trkpt>
      <trkpt lat="59.082379275932908" lon="30.006438447162509">
        <ele>83.290000000000006</ele>
        <time>2026-04-25T10:50:59Z</time>
      </trkpt>
      <trkpt lat="59.082406768575311" lon="30.006487648934126">
        <ele>83.290000000000006</ele>
        <time>2026-04-25T10:51:06Z</time>
      </trkpt>
      <trkpt lat="59.082435602322221" lon="30.006570545956492">
        <ele>83.290000000000006</ele>
        <time>2026-04-25T10:51:14Z</time>
      </trkpt>
      <trkpt lat="59.082424035295844" lon="30.006583537906408">
        <ele>83.290000000000006</ele>
        <time>2026-04-25T10:51:49Z</time>
      </trkpt>
      <trkpt lat="59.082433506846428" lon="30.00665252096951">
        <ele>83.290000000000006</ele>
        <time>2026-04-25T10:51:55Z</time>
      </trkpt>
      <trkpt lat="59.082453288137913" lon="30.006733406335115">
        <ele>83.290000000000006</ele>
        <time>2026-04-25T10:52:02Z</time>
      </trkpt>
      <trkpt lat="59.082450354471803" lon="30.006781602278352">
        <ele>83.290000000000006</ele>
        <time>2026-04-25T10:52:09Z</time>
      </trkpt>
      <trkpt lat="59.082404421642423" lon="30.006857877597213">
        <ele>83.290000000000006</ele>
        <time>2026-04-25T10:52:18Z</time>
      </trkpt>
      <trkpt lat="59.082373240962625" lon="30.006861481815577">
        <ele>83.290000000000006</ele>
        <time>2026-04-25T10:52:41Z</time>
      </trkpt>
      <trkpt lat="59.082331582903862" lon="30.006844969466329">
        <ele>83.290000000000006</ele>
        <time>2026-04-25T10:52:48Z</time>
      </trkpt>
      <trkpt lat="59.08231875859201" lon="30.006877658888698">
        <ele>83.290000000000006</ele>
        <time>2026-04-25T10:52:55Z</time>
      </trkpt>
      <trkpt lat="59.082294786348939" lon="30.006948821246624">
        <ele>83.290000000000006</ele>
        <time>2026-04-25T10:53:05Z</time>
      </trkpt>
      <trkpt lat="59.082257905974984" lon="30.006974302232265">
        <ele>83.290000000000006</ele>
        <time>2026-04-25T10:53:16Z</time>
      </trkpt>
      <trkpt lat="59.082237035036087" lon="30.006966507062316">
        <ele>83.290000000000006</ele>
        <time>2026-04-25T10:53:25Z</time>
      </trkpt>
      <trkpt lat="59.082205519080162" lon="30.007000537589192">
        <ele>83.290000000000006</ele>
        <time>2026-04-25T10:53:33Z</time>
      </trkpt>
      <trkpt lat="59.082204680889845" lon="30.00700724311173">
        <ele>83.290000000000006</ele>
        <time>2026-04-25T10:53:37Z</time>
      </trkpt>
      <trkpt lat="59.082136787474155" lon="30.006986958906054">
        <ele>83.290000000000006</ele>
        <time>2026-04-25T10:53:46Z</time>
      </trkpt>
      <trkpt lat="59.082093704491854" lon="30.00704144127667">
        <ele>83.290000000000006</ele>
        <time>2026-04-25T10:53:54Z</time>
      </trkpt>
      <trkpt lat="59.082047687843442" lon="30.007029874250293">
        <ele>83.290000000000006</ele>
        <time>2026-04-25T10:54:04Z</time>
      </trkpt>
      <trkpt lat="59.082041904330254" lon="30.006997771561146">
        <ele>83.290000000000006</ele>
        <time>2026-04-25T10:54:38Z</time>
      </trkpt>
      <trkpt lat="59.082026062533259" lon="30.006963154301047">
        <ele>83.290000000000006</ele>
        <time>2026-04-25T10:54:50Z</time>
      </trkpt>
      <trkpt lat="59.082030840218067" lon="30.006952844560146">
        <ele>83.290000000000006</ele>
        <time>2026-04-25T10:54:56Z</time>
      </trkpt>
      <trkpt lat="59.082023967057467" lon="30.006867935881019">
        <ele>83.769999999999996</ele>
        <time>2026-04-25T10:55:06Z</time>
      </trkpt>
      <trkpt lat="59.08200359903276" lon="30.00680398195982">
        <ele>83.769999999999996</ele>
        <time>2026-04-25T10:55:12Z</time>
      </trkpt>
      <trkpt lat="59.082016171887517" lon="30.006717899814248">
        <ele>83.769999999999996</ele>
        <time>2026-04-25T10:55:19Z</time>
      </trkpt>
      <trkpt lat="59.082007789984345" lon="30.00662662088871">
        <ele>83.769999999999996</ele>
        <time>2026-04-25T10:55:27Z</time>
      </trkpt>
      <trkpt lat="59.082018686458468" lon="30.006527462974191">
        <ele>83.769999999999996</ele>
        <time>2026-04-25T10:55:35Z</time>
      </trkpt>
      <trkpt lat="59.082002760842443" lon="30.006438363343477">
        <ele>83.769999999999996</ele>
        <time>2026-04-25T10:55:44Z</time>
      </trkpt>
      <trkpt lat="59.081991696730256" lon="30.006386479362845">
        <ele>83.769999999999996</ele>
        <time>2026-04-25T10:55:50Z</time>
      </trkpt>
      <trkpt lat="59.081968478858471" lon="30.006322022527456">
        <ele>83.769999999999996</ele>
        <time>2026-04-25T10:55:58Z</time>
      </trkpt>
      <trkpt lat="59.081943919882178" lon="30.00625136308372">
        <ele>84.25</ele>
        <time>2026-04-25T10:56:06Z</time>
      </trkpt>
      <trkpt lat="59.081950038671494" lon="30.00614776276052">
        <ele>84.25</ele>
        <time>2026-04-25T10:56:14Z</time>
      </trkpt>
      <trkpt lat="59.081942411139607" lon="30.006083389744163">
        <ele>84.25</ele>
        <time>2026-04-25T10:56:21Z</time>
      </trkpt>
      <trkpt lat="59.081962611526251" lon="30.005907118320465">
        <ele>84.25</ele>
        <time>2026-04-25T10:56:36Z</time>
      </trkpt>
      <trkpt lat="59.081893377006054" lon="30.005852384492755">
        <ele>84.730000000000004</ele>
        <time>2026-04-25T10:56:45Z</time>
      </trkpt>
      <trkpt lat="59.081852557137609" lon="30.005712322890759">
        <ele>84.730000000000004</ele>
        <time>2026-04-25T10:57:01Z</time>
      </trkpt>
      <trkpt lat="59.0818374697119" lon="30.005587935447693">
        <ele>84.730000000000004</ele>
        <time>2026-04-25T10:57:12Z</time>
      </trkpt>
      <trkpt lat="59.081795392557979" lon="30.00552624464035">
        <ele>84.730000000000004</ele>
        <time>2026-04-25T10:57:20Z</time>
      </trkpt>
      <trkpt lat="59.081866890192032" lon="30.005453238263726">
        <ele>84.730000000000004</ele>
        <time>2026-04-25T10:57:37Z</time>
      </trkpt>
      <trkpt lat="59.081872757524252" lon="30.005395235493779">
        <ele>84.730000000000004</ele>
        <time>2026-04-25T10:57:47Z</time>
      </trkpt>
      <trkpt lat="59.081854987889528" lon="30.005326755344868">
        <ele>84.730000000000004</ele>
        <time>2026-04-25T10:58:02Z</time>
      </trkpt>
      <trkpt lat="59.081841828301549" lon="30.005331365391612">
        <ele>84.25</ele>
        <time>2026-04-25T10:58:21Z</time>
      </trkpt>
      <trkpt lat="59.081907626241446" lon="30.005308398976922">
        <ele>84.25</ele>
        <time>2026-04-25T10:58:31Z</time>
      </trkpt>
      <trkpt lat="59.081891197711229" lon="30.005198260769248">
        <ele>84.25</ele>
        <time>2026-04-25T10:58:53Z</time>
      </trkpt>
      <trkpt lat="59.081867728382349" lon="30.005133887752891">
        <ele>84.25</ele>
        <time>2026-04-25T10:59:02Z</time>
      </trkpt>
      <trkpt lat="59.081836882978678" lon="30.005145203322172">
        <ele>84.25</ele>
        <time>2026-04-25T10:59:14Z</time>
      </trkpt>
      <trkpt lat="59.08180377446115" lon="30.005162889137864">
        <ele>84.25</ele>
        <time>2026-04-25T10:59:34Z</time>
      </trkpt>
      <trkpt lat="59.081817101687193" lon="30.005124751478434">
        <ele>84.25</ele>
        <time>2026-04-25T10:59:51Z</time>
      </trkpt>
      <trkpt lat="59.081813581287861" lon="30.005040597170591">
        <ele>84.25</ele>
        <time>2026-04-25T11:00:03Z</time>
      </trkpt>
      <trkpt lat="59.081777455285192" lon="30.004952251911163">
        <ele>84.25</ele>
        <time>2026-04-25T11:00:22Z</time>
      </trkpt>
      <trkpt lat="59.081788184121251" lon="30.004969770088792">
        <ele>84.25</ele>
        <time>2026-04-25T11:00:41Z</time>
      </trkpt>
      <trkpt lat="59.081762451678514" lon="30.004919143393636">
        <ele>84.25</ele>
        <time>2026-04-25T11:00:54Z</time>
      </trkpt>
      <trkpt lat="59.0817597694695" lon="30.004884023219347">
        <ele>84.25</ele>
        <time>2026-04-25T11:01:06Z</time>
      </trkpt>
      <trkpt lat="59.081674860790372" lon="30.004910007119179">
        <ele>84.730000000000004</ele>
        <time>2026-04-25T11:01:21Z</time>
      </trkpt>
      <trkpt lat="59.081632364541292" lon="30.004996759817004">
        <ele>84.730000000000004</ele>
        <time>2026-04-25T11:01:31Z</time>
      </trkpt>
      <trkpt lat="59.081624653190374" lon="30.005029449239373">
        <ele>84.730000000000004</ele>
        <time>2026-04-25T11:01:34Z</time>
      </trkpt>
      <trkpt lat="59.081589533016086" lon="30.005189292132854">
        <ele>84.730000000000004</ele>
        <time>2026-04-25T11:01:45Z</time>
      </trkpt>
      <trkpt lat="59.081579810008407" lon="30.005251066759229">
        <ele>84.730000000000004</ele>
        <time>2026-04-25T11:01:51Z</time>
      </trkpt>
      <trkpt lat="59.08154821023345" lon="30.005285767838359">
        <ele>84.730000000000004</ele>
        <time>2026-04-25T11:02:01Z</time>
      </trkpt>
      <trkpt lat="59.081537229940295" lon="30.005309991538525">
        <ele>84.730000000000004</ele>
        <time>2026-04-25T11:02:04Z</time>
      </trkpt>
      <trkpt lat="59.081523735076189" lon="30.005348129197955">
        <ele>84.730000000000004</ele>
        <time>2026-04-25T11:02:09Z</time>
      </trkpt>
      <trkpt lat="59.081491213291883" lon="30.005480982363224">
        <ele>85.209999999999994</ele>
        <time>2026-04-25T11:02:29Z</time>
      </trkpt>
      <trkpt lat="59.081487525254488" lon="30.005517611280084">
        <ele>85.209999999999994</ele>
        <time>2026-04-25T11:03:06Z</time>
      </trkpt>
      <trkpt lat="59.081529099494219" lon="30.005545690655708">
        <ele>85.209999999999994</ele>
        <time>2026-04-25T11:03:17Z</time>
      </trkpt>
      <trkpt lat="59.081529853865504" lon="30.005550803616643">
        <ele>85.209999999999994</ele>
        <time>2026-04-25T11:03:18Z</time>
      </trkpt>
      <trkpt lat="59.081557346507907" lon="30.005471929907799">
        <ele>85.209999999999994</ele>
        <time>2026-04-25T11:03:21Z</time>
      </trkpt>
      <trkpt lat="59.081501355394721" lon="30.005618529394269">
        <ele>85.209999999999994</ele>
        <time>2026-04-25T11:03:34Z</time>
      </trkpt>
      <trkpt lat="59.081452656537294" lon="30.00561417080462">
        <ele>85.209999999999994</ele>
        <time>2026-04-25T11:03:41Z</time>
      </trkpt>
      <trkpt lat="59.081470174714923" lon="30.005682986229658">
        <ele>85.209999999999994</ele>
        <time>2026-04-25T11:03:57Z</time>
      </trkpt>
      <trkpt lat="59.08149154856801" lon="30.005747945979238">
        <ele>85.209999999999994</ele>
        <time>2026-04-25T11:04:08Z</time>
      </trkpt>
      <trkpt lat="59.081483166664839" lon="30.005910135805607">
        <ele>84.730000000000004</ele>
        <time>2026-04-25T11:04:21Z</time>
      </trkpt>
      <trkpt lat="59.081489285454154" lon="30.00601097010076">
        <ele>84.730000000000004</ele>
        <time>2026-04-25T11:04:30Z</time>
      </trkpt>
      <trkpt lat="59.081504959613085" lon="30.006052041426301">
        <ele>84.730000000000004</ele>
        <time>2026-04-25T11:04:34Z</time>
      </trkpt>
      <trkpt lat="59.081497080624104" lon="30.006043827161193">
        <ele>84.730000000000004</ele>
        <time>2026-04-25T11:04:35Z</time>
      </trkpt>
      <trkpt lat="59.081480484455824" lon="30.006044078618288">
        <ele>84.730000000000004</ele>
        <time>2026-04-25T11:04:38Z</time>
      </trkpt>
      <trkpt lat="59.081466738134623" lon="30.006098309531808">
        <ele>85.209999999999994</ele>
        <time>2026-04-25T11:04:44Z</time>
      </trkpt>
      <trkpt lat="59.081421056762338" lon="30.00616142526269">
        <ele>85.209999999999994</ele>
        <time>2026-04-25T11:04:52Z</time>
      </trkpt>
      <trkpt lat="59.081403370946646" lon="30.006183469668031">
        <ele>85.209999999999994</ele>
        <time>2026-04-25T11:04:57Z</time>
      </trkpt>
      <trkpt lat="59.081418374553323" lon="30.0062454957515">
        <ele>85.209999999999994</ele>
        <time>2026-04-25T11:05:03Z</time>
      </trkpt>
      <trkpt lat="59.081436647102237" lon="30.006395447999239">
        <ele>85.209999999999994</ele>
        <time>2026-04-25T11:05:23Z</time>
      </trkpt>
      <trkpt lat="59.081486938521266" lon="30.006396621465683">
        <ele>85.209999999999994</ele>
        <time>2026-04-25T11:05:31Z</time>
      </trkpt>
      <trkpt lat="59.081565225496888" lon="30.006462754681706">
        <ele>85.209999999999994</ele>
        <time>2026-04-25T11:05:48Z</time>
      </trkpt>
      <trkpt lat="59.081547036767006" lon="30.006519248709083">
        <ele>85.209999999999994</ele>
        <time>2026-04-25T11:06:07Z</time>
      </trkpt>
      <trkpt lat="59.081512587144971" lon="30.006536431610584">
        <ele>85.209999999999994</ele>
        <time>2026-04-25T11:06:18Z</time>
      </trkpt>
      <trkpt lat="59.081504875794053" lon="30.006631314754486">
        <ele>85.209999999999994</ele>
        <time>2026-04-25T11:06:27Z</time>
      </trkpt>
      <trkpt lat="59.081519627943635" lon="30.006790151819587">
        <ele>85.209999999999994</ele>
        <time>2026-04-25T11:06:42Z</time>
      </trkpt>
      <trkpt lat="59.081524824723601" lon="30.006796522065997">
        <ele>85.209999999999994</ele>
        <time>2026-04-25T11:06:43Z</time>
      </trkpt>
      <trkpt lat="59.081541169434786" lon="30.006813034415245">
        <ele>85.209999999999994</ele>
        <time>2026-04-25T11:06:46Z</time>
      </trkpt>
      <trkpt lat="59.081535469740629" lon="30.006845640018582">
        <ele>85.209999999999994</ele>
        <time>2026-04-25T11:06:53Z</time>
      </trkpt>
      <trkpt lat="59.081583917140961" lon="30.007002465426922">
        <ele>85.209999999999994</ele>
        <time>2026-04-25T11:07:10Z</time>
      </trkpt>
      <trkpt lat="59.081609481945634" lon="30.00709667801857">
        <ele>85.209999999999994</ele>
        <time>2026-04-25T11:07:20Z</time>
      </trkpt>
      <trkpt lat="59.081552652642131" lon="30.007101371884346">
        <ele>85.209999999999994</ele>
        <time>2026-04-25T11:07:58Z</time>
      </trkpt>
      <trkpt lat="59.081470174714923" lon="30.007163397967815">
        <ele>85.209999999999994</ele>
        <time>2026-04-25T11:08:16Z</time>
      </trkpt>
      <trkpt lat="59.081397000700235" lon="30.007162308320403">
        <ele>85.209999999999994</ele>
        <time>2026-04-25T11:08:26Z</time>
      </trkpt>
      <trkpt lat="59.081334639340639" lon="30.007173959165812">
        <ele>85.209999999999994</ele>
        <time>2026-04-25T11:08:37Z</time>
      </trkpt>
      <trkpt lat="59.081276385113597" lon="30.007189968600869">
        <ele>85.209999999999994</ele>
        <time>2026-04-25T11:08:47Z</time>
      </trkpt>
      <trkpt lat="59.08123061992228" lon="30.007217796519399">
        <ele>85.209999999999994</ele>
        <time>2026-04-25T11:08:55Z</time>
      </trkpt>
      <trkpt lat="59.081152752041817" lon="30.00721930526197">
        <ele>85.209999999999994</ele>
        <time>2026-04-25T11:09:19Z</time>
      </trkpt>
      <trkpt lat="59.08114462159574" lon="30.007170774042606">
        <ele>84.730000000000004</ele>
        <time>2026-04-25T11:09:50Z</time>
      </trkpt>
      <trkpt lat="59.081137580797076" lon="30.007142443209887">
        <ele>85.209999999999994</ele>
        <time>2026-04-25T11:10:06Z</time>
      </trkpt>
      <trkpt lat="59.081104975193739" lon="30.007095001637936">
        <ele>85.209999999999994</ele>
        <time>2026-04-25T11:10:15Z</time>
      </trkpt>
      <trkpt lat="59.081095419824123" lon="30.007027862593532">
        <ele>85.209999999999994</ele>
        <time>2026-04-25T11:10:27Z</time>
      </trkpt>
      <trkpt lat="59.081123918294907" lon="30.006984025239944">
        <ele>85.209999999999994</ele>
        <time>2026-04-25T11:10:39Z</time>
      </trkpt>
      <trkpt lat="59.081137329339981" lon="30.006866175681353">
        <ele>85.209999999999994</ele>
        <time>2026-04-25T11:10:55Z</time>
      </trkpt>
      <trkpt lat="59.08116415143013" lon="30.00676492229104">
        <ele>85.209999999999994</ele>
        <time>2026-04-25T11:11:06Z</time>
      </trkpt>
      <trkpt lat="59.081158200278878" lon="30.006716810166836">
        <ele>85.209999999999994</ele>
        <time>2026-04-25T11:11:16Z</time>
      </trkpt>
      <trkpt lat="59.081154931336641" lon="30.006617987528443">
        <ele>85.209999999999994</ele>
        <time>2026-04-25T11:11:29Z</time>
      </trkpt>
      <trkpt lat="59.081171276047826" lon="30.00650349073112">
        <ele>84.730000000000004</ele>
        <time>2026-04-25T11:11:44Z</time>
      </trkpt>
      <trkpt lat="59.081113776192069" lon="30.006425036117435">
        <ele>85.209999999999994</ele>
        <time>2026-04-25T11:11:56Z</time>
      </trkpt>
      <trkpt lat="59.08107521943748" lon="30.006418582051992">
        <ele>85.209999999999994</ele>
        <time>2026-04-25T11:12:09Z</time>
      </trkpt>
      <trkpt lat="59.081049570813775" lon="30.006378516554832">
        <ele>85.209999999999994</ele>
        <time>2026-04-25T11:12:17Z</time>
      </trkpt>
      <trkpt lat="59.081080751493573" lon="30.006297463551164">
        <ele>85.209999999999994</ele>
        <time>2026-04-25T11:12:38Z</time>
      </trkpt>
      <trkpt lat="59.081054097041488" lon="30.006195623427629">
        <ele>85.209999999999994</ele>
        <time>2026-04-25T11:12:49Z</time>
      </trkpt>
      <trkpt lat="59.081073375418782" lon="30.006124209612608">
        <ele>85.209999999999994</ele>
        <time>2026-04-25T11:13:01Z</time>
      </trkpt>
      <trkpt lat="59.081102041527629" lon="30.006022285670042">
        <ele>85.209999999999994</ele>
        <time>2026-04-25T11:13:11Z</time>
      </trkpt>
      <trkpt lat="59.081099024042487" lon="30.005983142182231">
        <ele>85.209999999999994</ele>
        <time>2026-04-25T11:13:26Z</time>
      </trkpt>
      <trkpt lat="59.081087373197079" lon="30.005933940410614">
        <ele>85.209999999999994</ele>
        <time>2026-04-25T11:13:38Z</time>
      </trkpt>
      <trkpt lat="59.081094916909933" lon="30.005863700062037">
        <ele>85.209999999999994</ele>
        <time>2026-04-25T11:13:53Z</time>
      </trkpt>
      <trkpt lat="59.08107572235167" lon="30.005805948749185">
        <ele>85.209999999999994</ele>
        <time>2026-04-25T11:14:04Z</time>
      </trkpt>
      <trkpt lat="59.081064239144325" lon="30.005711233243346">
        <ele>85.689999999999998</ele>
        <time>2026-04-25T11:14:15Z</time>
      </trkpt>
      <trkpt lat="59.081098102033138" lon="30.005611153319478">
        <ele>85.209999999999994</ele>
        <time>2026-04-25T11:14:28Z</time>
      </trkpt>
      <trkpt lat="59.08106935210526" lon="30.005523562431335">
        <ele>85.209999999999994</ele>
        <time>2026-04-25T11:14:39Z</time>
      </trkpt>
      <trkpt lat="59.081036830320954" lon="30.005401438102126">
        <ele>85.209999999999994</ele>
        <time>2026-04-25T11:14:53Z</time>
      </trkpt>
      <trkpt lat="59.081021239981055" lon="30.005369503051043">
        <ele>85.209999999999994</ele>
        <time>2026-04-25T11:15:09Z</time>
      </trkpt>
      <trkpt lat="59.081019395962358" lon="30.005360450595617">
        <ele>85.209999999999994</ele>
        <time>2026-04-25T11:15:30Z</time>
      </trkpt>
      <trkpt lat="59.08104102127254" lon="30.005396408960223">
        <ele>84.730000000000004</ele>
        <time>2026-04-25T11:15:46Z</time>
      </trkpt>
      <trkpt lat="59.081049067899585" lon="30.005351901054382">
        <ele>84.730000000000004</ele>
        <time>2026-04-25T11:15:59Z</time>
      </trkpt>
      <trkpt lat="59.08111872151494" lon="30.005353493615985">
        <ele>85.209999999999994</ele>
        <time>2026-04-25T11:16:12Z</time>
      </trkpt>
      <trkpt lat="59.08108888193965" lon="30.005332622677088">
        <ele>85.209999999999994</ele>
        <time>2026-04-25T11:16:56Z</time>
      </trkpt>
      <trkpt lat="59.08110455609858" lon="30.005271686241031">
        <ele>85.209999999999994</ele>
        <time>2026-04-25T11:17:06Z</time>
      </trkpt>
      <trkpt lat="59.08110992051661" lon="30.005200188606977">
        <ele>85.209999999999994</ele>
        <time>2026-04-25T11:17:14Z</time>
      </trkpt>
      <trkpt lat="59.081119978800416" lon="30.005145035684109">
        <ele>84.730000000000004</ele>
        <time>2026-04-25T11:17:21Z</time>
      </trkpt>
      <trkpt lat="59.081132300198078" lon="30.005087871104479">
        <ele>84.730000000000004</ele>
        <time>2026-04-25T11:17:31Z</time>
      </trkpt>
      <trkpt lat="59.08115048892796" lon="30.005075549706817">
        <ele>84.730000000000004</ele>
        <time>2026-04-25T11:17:36Z</time>
      </trkpt>
      <trkpt lat="59.081196254119277" lon="30.005030455067754">
        <ele>84.730000000000004</ele>
        <time>2026-04-25T11:17:46Z</time>
      </trkpt>
      <trkpt lat="59.081175047904253" lon="30.004966333508492">
        <ele>84.730000000000004</ele>
        <time>2026-04-25T11:17:56Z</time>
      </trkpt>
      <trkpt lat="59.081164821982384" lon="30.004887208342552">
        <ele>84.730000000000004</ele>
        <time>2026-04-25T11:18:05Z</time>
      </trkpt>
      <trkpt lat="59.081179406493902" lon="30.004881676286459">
        <ele>84.25</ele>
        <time>2026-04-25T11:18:37Z</time>
      </trkpt>
      <trkpt lat="59.081154596060514" lon="30.004934314638376">
        <ele>84.25</ele>
        <time>2026-04-25T11:18:55Z</time>
      </trkpt>
      <trkpt lat="59.081107070669532" lon="30.004953593015671">
        <ele>84.25</ele>
        <time>2026-04-25T11:19:02Z</time>
      </trkpt>
      <trkpt lat="59.081090474501252" lon="30.004983684048057">
        <ele>84.25</ele>
        <time>2026-04-25T11:19:10Z</time>
      </trkpt>
      <trkpt lat="59.081046469509602" lon="30.005005979910493">
        <ele>84.25</ele>
        <time>2026-04-25T11:19:19Z</time>
      </trkpt>
      <trkpt lat="59.081010343506932" lon="30.004984689876437">
        <ele>84.25</ele>
        <time>2026-04-25T11:19:27Z</time>
      </trkpt>
      <trkpt lat="59.080944713205099" lon="30.005004471167922">
        <ele>84.25</ele>
        <time>2026-04-25T11:19:36Z</time>
      </trkpt>
      <trkpt lat="59.080904563888907" lon="30.005016541108489">
        <ele>83.769999999999996</ele>
        <time>2026-04-25T11:19:44Z</time>
      </trkpt>
      <trkpt lat="59.080841867253184" lon="30.005065156146884">
        <ele>83.769999999999996</ele>
        <time>2026-04-25T11:19:55Z</time>
      </trkpt>
      <trkpt lat="59.080828623846173" lon="30.005098432302475">
        <ele>83.769999999999996</ele>
        <time>2026-04-25T11:20:02Z</time>
      </trkpt>
      <trkpt lat="59.08081965520978" lon="30.005120895802975">
        <ele>83.769999999999996</ele>
        <time>2026-04-25T11:20:11Z</time>
      </trkpt>
      <trkpt lat="59.080804316326976" lon="30.005143443122506">
        <ele>83.769999999999996</ele>
        <time>2026-04-25T11:20:51Z</time>
      </trkpt>
      <trkpt lat="59.080776907503605" lon="30.005175042897463">
        <ele>83.769999999999996</ele>
        <time>2026-04-25T11:21:03Z</time>
      </trkpt>
      <trkpt lat="59.080753438174725" lon="30.005181916058064">
        <ele>83.290000000000006</ele>
        <time>2026-04-25T11:21:11Z</time>
      </trkpt>
      <trkpt lat="59.080719323828816" lon="30.005202032625675">
        <ele>83.290000000000006</ele>
        <time>2026-04-25T11:21:19Z</time>
      </trkpt>
      <trkpt lat="59.080687137320638" lon="30.005256934091449">
        <ele>83.290000000000006</ele>
        <time>2026-04-25T11:21:28Z</time>
      </trkpt>
      <trkpt lat="59.08066282980144" lon="30.00527260825038">
        <ele>83.290000000000006</ele>
        <time>2026-04-25T11:21:36Z</time>
      </trkpt>
      <trkpt lat="59.080643802881241" lon="30.005273530259728">
        <ele>83.290000000000006</ele>
        <time>2026-04-25T11:21:47Z</time>
      </trkpt>
      <trkpt lat="59.080615052953362" lon="30.005301274359226">
        <ele>83.290000000000006</ele>
        <time>2026-04-25T11:21:54Z</time>
      </trkpt>
      <trkpt lat="59.080608263611794" lon="30.005330694839358">
        <ele>83.769999999999996</ele>
        <time>2026-04-25T11:22:01Z</time>
      </trkpt>
      <trkpt lat="59.080630978569388" lon="30.005361288785934">
        <ele>83.769999999999996</ele>
        <time>2026-04-25T11:22:24Z</time>
      </trkpt>
      <trkpt lat="59.080669116228819" lon="30.005399426445365">
        <ele>83.769999999999996</ele>
        <time>2026-04-25T11:22:33Z</time>
      </trkpt>
      <trkpt lat="59.08068286255002" lon="30.005516773089767">
        <ele>83.769999999999996</ele>
        <time>2026-04-25T11:22:43Z</time>
      </trkpt>
      <trkpt lat="59.080646736547351" lon="30.005624732002616">
        <ele>83.290000000000006</ele>
        <time>2026-04-25T11:22:52Z</time>
      </trkpt>
      <trkpt lat="59.080643635243177" lon="30.00567820854485">
        <ele>83.290000000000006</ele>
        <time>2026-04-25T11:22:59Z</time>
      </trkpt>
      <trkpt lat="59.080657884478569" lon="30.005733277648687">
        <ele>83.290000000000006</ele>
        <time>2026-04-25T11:23:05Z</time>
      </trkpt>
      <trkpt lat="59.080688310787082" lon="30.005803182721138">
        <ele>83.290000000000006</ele>
        <time>2026-04-25T11:23:13Z</time>
      </trkpt>
      <trkpt lat="59.080733489245176" lon="30.005902843549848">
        <ele>83.290000000000006</ele>
        <time>2026-04-25T11:23:22Z</time>
      </trkpt>
      <trkpt lat="59.08071605488658" lon="30.005945507436991">
        <ele>83.290000000000006</ele>
        <time>2026-04-25T11:23:32Z</time>
      </trkpt>
      <trkpt lat="59.080688478425145" lon="30.005983728915453">
        <ele>83.290000000000006</ele>
        <time>2026-04-25T11:23:39Z</time>
      </trkpt>
      <trkpt lat="59.080677749589086" lon="30.006056735292077">
        <ele>83.290000000000006</ele>
        <time>2026-04-25T11:23:45Z</time>
      </trkpt>
      <trkpt lat="59.080669032409787" lon="30.006141643971205">
        <ele>83.290000000000006</ele>
        <time>2026-04-25T11:23:53Z</time>
      </trkpt>
      <trkpt lat="59.080670373514295" lon="30.006183888763189">
        <ele>83.290000000000006</ele>
        <time>2026-04-25T11:24:01Z</time>
      </trkpt>
      <trkpt lat="59.080669870600104" lon="30.006265193223953">
        <ele>83.290000000000006</ele>
        <time>2026-04-25T11:24:12Z</time>
      </trkpt>
      <trkpt lat="59.080683616921306" lon="30.00632562674582">
        <ele>82.810000000000002</ele>
        <time>2026-04-25T11:24:21Z</time>
      </trkpt>
      <trkpt lat="59.080695603042841" lon="30.006409026682377">
        <ele>82.810000000000002</ele>
        <time>2026-04-25T11:24:31Z</time>
      </trkpt>
      <trkpt lat="59.080705242231488" lon="30.00646241940558">
        <ele>82.810000000000002</ele>
        <time>2026-04-25T11:25:00Z</time>
      </trkpt>
      <trkpt lat="59.080728543922305" lon="30.006493097171187">
        <ele>82.810000000000002</ele>
        <time>2026-04-25T11:25:09Z</time>
      </trkpt>
      <trkpt lat="59.080738015472889" lon="30.006527798250318">
        <ele>82.810000000000002</ele>
        <time>2026-04-25T11:25:16Z</time>
      </trkpt>
      <trkpt lat="59.080749247223139" lon="30.00664078630507">
        <ele>82.810000000000002</ele>
        <time>2026-04-25T11:25:25Z</time>
      </trkpt>
      <trkpt lat="59.080755952745676" lon="30.006710104644299">
        <ele>82.810000000000002</ele>
        <time>2026-04-25T11:25:32Z</time>
      </trkpt>
      <trkpt lat="59.080767603591084" lon="30.006791995838284">
        <ele>82.329999999999998</ele>
        <time>2026-04-25T11:25:43Z</time>
      </trkpt>
      <trkpt lat="59.08078646287322" lon="30.006883945316076">
        <ele>82.329999999999998</ele>
        <time>2026-04-25T11:25:52Z</time>
      </trkpt>
      <trkpt lat="59.08078646287322" lon="30.006931386888027">
        <ele>82.329999999999998</ele>
        <time>2026-04-25T11:25:59Z</time>
      </trkpt>
      <trkpt lat="59.080763161182404" lon="30.00704001635313">
        <ele>82.329999999999998</ele>
        <time>2026-04-25T11:26:15Z</time>
      </trkpt>
      <trkpt lat="59.080763412639499" lon="30.007101539522409">
        <ele>82.329999999999998</ele>
        <time>2026-04-25T11:26:23Z</time>
      </trkpt>
      <trkpt lat="59.080775985494256" lon="30.007155435159802">
        <ele>82.329999999999998</ele>
        <time>2026-04-25T11:26:33Z</time>
      </trkpt>
      <trkpt lat="59.08078009262681" lon="30.007205223664641">
        <ele>82.329999999999998</ele>
        <time>2026-04-25T11:26:47Z</time>
      </trkpt>
      <trkpt lat="59.080798448994756" lon="30.007231123745441">
        <ele>82.329999999999998</ele>
        <time>2026-04-25T11:26:53Z</time>
      </trkpt>
      <trkpt lat="59.080829797312617" lon="30.007227016612887">
        <ele>81.849999999999994</ele>
        <time>2026-04-25T11:27:01Z</time>
      </trkpt>
      <trkpt lat="59.080868437886238" lon="30.007334891706705">
        <ele>81.849999999999994</ele>
        <time>2026-04-25T11:27:11Z</time>
      </trkpt>
      <trkpt lat="59.080867851153016" lon="30.007428266108036">
        <ele>81.849999999999994</ele>
        <time>2026-04-25T11:27:19Z</time>
      </trkpt>
      <trkpt lat="59.080845387652516" lon="30.007460117340088">
        <ele>81.849999999999994</ele>
        <time>2026-04-25T11:27:45Z</time>
      </trkpt>
      <trkpt lat="59.080783864483237" lon="30.007483921945095">
        <ele>81.849999999999994</ele>
        <time>2026-04-25T11:28:06Z</time>
      </trkpt>
      <trkpt lat="59.080778583884239" lon="30.007443269714713">
        <ele>81.370000000000005</ele>
        <time>2026-04-25T11:28:24Z</time>
      </trkpt>
      <trkpt lat="59.08077472820878" lon="30.007498674094677">
        <ele>81.370000000000005</ele>
        <time>2026-04-25T11:28:31Z</time>
      </trkpt>
      <trkpt lat="59.080762322992086" lon="30.007494147866964">
        <ele>81.370000000000005</ele>
        <time>2026-04-25T11:28:37Z</time>
      </trkpt>
      <trkpt lat="59.080737847834826" lon="30.007539577782154">
        <ele>81.370000000000005</ele>
        <time>2026-04-25T11:28:45Z</time>
      </trkpt>
      <trkpt lat="59.080721000209451" lon="30.007542008534074">
        <ele>81.370000000000005</ele>
        <time>2026-04-25T11:28:52Z</time>
      </trkpt>
      <trkpt lat="59.080687891691923" lon="30.007493058219552">
        <ele>81.370000000000005</ele>
        <time>2026-04-25T11:29:03Z</time>
      </trkpt>
      <trkpt lat="59.080644892528653" lon="30.007560951635242">
        <ele>81.370000000000005</ele>
        <time>2026-04-25T11:29:11Z</time>
      </trkpt>
      <trkpt lat="59.080599462613463" lon="30.007568160071969">
        <ele>81.370000000000005</ele>
        <time>2026-04-25T11:29:21Z</time>
      </trkpt>
      <trkpt lat="59.080554787069559" lon="30.007567824795842">
        <ele>81.370000000000005</ele>
        <time>2026-04-25T11:29:29Z</time>
      </trkpt>
      <trkpt lat="59.08048982731998" lon="30.007529016584158">
        <ele>80.890000000000001</ele>
        <time>2026-04-25T11:29:38Z</time>
      </trkpt>
      <trkpt lat="59.080461580306292" lon="30.007534883916378">
        <ele>80.890000000000001</ele>
        <time>2026-04-25T11:29:46Z</time>
      </trkpt>
      <trkpt lat="59.080444816499949" lon="30.007465062662959">
        <ele>80.890000000000001</ele>
        <time>2026-04-25T11:30:45Z</time>
      </trkpt>
      <trkpt lat="59.080431656911969" lon="30.007406054064631">
        <ele>80.890000000000001</ele>
        <time>2026-04-25T11:30:55Z</time>
      </trkpt>
      <trkpt lat="59.080439284443855" lon="30.007342770695686">
        <ele>80.890000000000001</ele>
        <time>2026-04-25T11:31:06Z</time>
      </trkpt>
      <trkpt lat="59.080439284443855" lon="30.007274793460965">
        <ele>80.409999999999997</ele>
        <time>2026-04-25T11:31:15Z</time>
      </trkpt>
      <trkpt lat="59.08044783398509" lon="30.007207067683339">
        <ele>80.409999999999997</ele>
        <time>2026-04-25T11:31:21Z</time>
      </trkpt>
      <trkpt lat="59.080453030765057" lon="30.007122242823243">
        <ele>80.409999999999997</ele>
        <time>2026-04-25T11:31:30Z</time>
      </trkpt>
      <trkpt lat="59.080429142341018" lon="30.007098773494363">
        <ele>80.409999999999997</ele>
        <time>2026-04-25T11:31:40Z</time>
      </trkpt>
      <trkpt lat="59.080419251695275" lon="30.007031550630927">
        <ele>80.409999999999997</ele>
        <time>2026-04-25T11:31:50Z</time>
      </trkpt>
      <trkpt lat="59.080402906984091" lon="30.006941361352801">
        <ele>80.890000000000001</ele>
        <time>2026-04-25T11:31:58Z</time>
      </trkpt>
      <trkpt lat="59.080367619171739" lon="30.006904732435942">
        <ele>80.890000000000001</ele>
        <time>2026-04-25T11:32:06Z</time>
      </trkpt>
      <trkpt lat="59.080362003296614" lon="30.006788894534111">
        <ele>80.409999999999997</ele>
        <time>2026-04-25T11:32:15Z</time>
      </trkpt>
      <trkpt lat="59.080349262803793" lon="30.006707673892379">
        <ele>80.409999999999997</ele>
        <time>2026-04-25T11:32:22Z</time>
      </trkpt>
      <trkpt lat="59.080314813181758" lon="30.006605414673686">
        <ele>80.409999999999997</ele>
        <time>2026-04-25T11:32:31Z</time>
      </trkpt>
      <trkpt lat="59.080349681898952" lon="30.006531653925776">
        <ele>80.409999999999997</ele>
        <time>2026-04-25T11:32:38Z</time>
      </trkpt>
      <trkpt lat="59.080351274460554" lon="30.006454037502408">
        <ele>80.409999999999997</ele>
        <time>2026-04-25T11:32:47Z</time>
      </trkpt>
      <trkpt lat="59.080336941406131" lon="30.00637348741293">
        <ele>80.409999999999997</ele>
        <time>2026-04-25T11:32:54Z</time>
      </trkpt>
      <trkpt lat="59.08036669716239" lon="30.006312048062682">
        <ele>80.409999999999997</ele>
        <time>2026-04-25T11:33:02Z</time>
      </trkpt>
      <trkpt lat="59.080385388806462" lon="30.006203670054674">
        <ele>80.409999999999997</ele>
        <time>2026-04-25T11:33:10Z</time>
      </trkpt>
      <trkpt lat="59.08035353757441" lon="30.006120018661022">
        <ele>79.930000000000007</ele>
        <time>2026-04-25T11:33:19Z</time>
      </trkpt>
      <trkpt lat="59.080340880900621" lon="30.006065117195249">
        <ele>79.930000000000007</ele>
        <time>2026-04-25T11:33:25Z</time>
      </trkpt>
      <trkpt lat="59.080306431278586" lon="30.006008455529809">
        <ele>80.409999999999997</ele>
        <time>2026-04-25T11:33:34Z</time>
      </trkpt>
      <trkpt lat="59.080267287790775" lon="30.005942825227976">
        <ele>80.409999999999997</ele>
        <time>2026-04-25T11:33:41Z</time>
      </trkpt>
      <trkpt lat="59.080241387709975" lon="30.005839308723807">
        <ele>80.409999999999997</ele>
        <time>2026-04-25T11:33:49Z</time>
      </trkpt>
      <trkpt lat="59.080256894230843" lon="30.005705114454031">
        <ele>80.409999999999997</ele>
        <time>2026-04-25T11:33:58Z</time>
      </trkpt>
      <trkpt lat="59.080239459872246" lon="30.005610818043351">
        <ele>80.409999999999997</ele>
        <time>2026-04-25T11:34:06Z</time>
      </trkpt>
      <trkpt lat="59.080237783491611" lon="30.005513839423656">
        <ele>80.890000000000001</ele>
        <time>2026-04-25T11:34:13Z</time>
      </trkpt>
      <trkpt lat="59.080200903117657" lon="30.005439324304461">
        <ele>80.890000000000001</ele>
        <time>2026-04-25T11:34:20Z</time>
      </trkpt>
      <trkpt lat="59.0801952034235" lon="30.005440665408969">
        <ele>80.890000000000001</ele>
        <time>2026-04-25T11:34:32Z</time>
      </trkpt>
      <trkpt lat="59.080210626125336" lon="30.005395570769906">
        <ele>80.409999999999997</ele>
        <time>2026-04-25T11:34:52Z</time>
      </trkpt>
      <trkpt lat="59.08022353425622" lon="30.005255341529846">
        <ele>80.409999999999997</ele>
        <time>2026-04-25T11:35:02Z</time>
      </trkpt>
      <trkpt lat="59.080196125432849" lon="30.005169091746211">
        <ele>80.409999999999997</ele>
        <time>2026-04-25T11:35:11Z</time>
      </trkpt>
      <trkpt lat="59.080136697739363" lon="30.005098851397634">
        <ele>80.409999999999997</ele>
        <time>2026-04-25T11:35:25Z</time>
      </trkpt>
      <trkpt lat="59.080081963911653" lon="30.005185017362237">
        <ele>80.409999999999997</ele>
        <time>2026-04-25T11:35:36Z</time>
      </trkpt>
      <trkpt lat="59.080044999718666" lon="30.005234722048044">
        <ele>80.409999999999997</ele>
        <time>2026-04-25T11:35:44Z</time>
      </trkpt>
      <trkpt lat="59.080015076324344" lon="30.005341591313481">
        <ele>80.409999999999997</ele>
        <time>2026-04-25T11:35:52Z</time>
      </trkpt>
      <trkpt lat="59.079978782683611" lon="30.005398252978921">
        <ele>80.409999999999997</ele>
        <time>2026-04-25T11:35:59Z</time>
      </trkpt>
      <trkpt lat="59.079959252849221" lon="30.005443431437016">
        <ele>80.409999999999997</ele>
        <time>2026-04-25T11:36:07Z</time>
      </trkpt>
      <trkpt lat="59.079889096319675" lon="30.005477964878082">
        <ele>80.409999999999997</ele>
        <time>2026-04-25T11:36:15Z</time>
      </trkpt>
      <trkpt lat="59.079789770767093" lon="30.005463631823659">
        <ele>80.409999999999997</ele>
        <time>2026-04-25T11:36:25Z</time>
      </trkpt>
      <trkpt lat="59.079761439934373" lon="30.005470588803291">
        <ele>80.409999999999997</ele>
        <time>2026-04-25T11:36:32Z</time>
      </trkpt>
      <trkpt lat="59.079742496833205" lon="30.005466733127832">
        <ele>80.409999999999997</ele>
        <time>2026-04-25T11:36:45Z</time>
      </trkpt>
      <trkpt lat="59.079713998362422" lon="30.005475450307131">
        <ele>80.409999999999997</ele>
        <time>2026-04-25T11:36:52Z</time>
      </trkpt>
      <trkpt lat="59.0797168482095" lon="30.005455669015646">
        <ele>80.409999999999997</ele>
        <time>2026-04-25T11:37:21Z</time>
      </trkpt>
      <trkpt lat="59.079679464921355" lon="30.00545047223568">
        <ele>80.409999999999997</ele>
        <time>2026-04-25T11:37:32Z</time>
      </trkpt>
      <trkpt lat="59.07967871055007" lon="30.005450388416648">
        <ele>80.409999999999997</ele>
        <time>2026-04-25T11:37:33Z</time>
      </trkpt>
      <trkpt lat="59.07969874329865" lon="30.005384255200624">
        <ele>80.409999999999997</ele>
        <time>2026-04-25T11:37:49Z</time>
      </trkpt>
      <trkpt lat="59.079716680571437" lon="30.005460195243359">
        <ele>79.930000000000007</ele>
        <time>2026-04-25T11:37:57Z</time>
      </trkpt>
      <trkpt lat="59.079694049432874" lon="30.00544317997992">
        <ele>79.930000000000007</ele>
        <time>2026-04-25T11:38:13Z</time>
      </trkpt>
      <trkpt lat="59.079691031947732" lon="30.005453657358885">
        <ele>79.930000000000007</ele>
        <time>2026-04-25T11:38:18Z</time>
      </trkpt>
      <trkpt lat="59.079673094674945" lon="30.005416944622993">
        <ele>79.930000000000007</ele>
        <time>2026-04-25T11:38:36Z</time>
      </trkpt>
      <trkpt lat="59.079663036391139" lon="30.005321810021996">
        <ele>79.930000000000007</ele>
        <time>2026-04-25T11:38:55Z</time>
      </trkpt>
      <trkpt lat="59.079663036391139" lon="30.005340501666069">
        <ele>79.930000000000007</ele>
        <time>2026-04-25T11:39:12Z</time>
      </trkpt>
      <trkpt lat="59.079686086624861" lon="30.005347207188606">
        <ele>79.930000000000007</ele>
        <time>2026-04-25T11:39:27Z</time>
      </trkpt>
      <trkpt lat="59.079711735248566" lon="30.005319379270077">
        <ele>79.930000000000007</ele>
        <time>2026-04-25T11:39:38Z</time>
      </trkpt>
      <trkpt lat="59.079706706106663" lon="30.005356762558222">
        <ele>79.930000000000007</ele>
        <time>2026-04-25T11:39:58Z</time>
      </trkpt>
      <trkpt lat="59.079697653651237" lon="30.00534444116056">
        <ele>79.930000000000007</ele>
        <time>2026-04-25T11:40:08Z</time>
      </trkpt>
      <trkpt lat="59.079675944522023" lon="30.005348296836019">
        <ele>79.930000000000007</ele>
        <time>2026-04-25T11:40:26Z</time>
      </trkpt>
      <trkpt lat="59.079662533476949" lon="30.005318457260728">
        <ele>79.930000000000007</ele>
        <time>2026-04-25T11:40:43Z</time>
      </trkpt>
      <trkpt lat="59.079736210405827" lon="30.005377130582929">
        <ele>79.930000000000007</ele>
        <time>2026-04-25T11:41:30Z</time>
      </trkpt>
      <trkpt lat="59.079734114930034" lon="30.005311248824">
        <ele>79.930000000000007</ele>
        <time>2026-04-25T11:41:47Z</time>
      </trkpt>
      <trkpt lat="59.079711316153407" lon="30.005290545523167">
        <ele>79.930000000000007</ele>
        <time>2026-04-25T11:42:02Z</time>
      </trkpt>
      <trkpt lat="59.079703520983458" lon="30.005381070077419">
        <ele>79.930000000000007</ele>
        <time>2026-04-25T11:42:17Z</time>
      </trkpt>
      <trkpt lat="59.079733192920685" lon="30.005577374249697">
        <ele>80.409999999999997</ele>
        <time>2026-04-25T11:42:30Z</time>
      </trkpt>
      <trkpt lat="59.079726822674274" lon="30.005639735609293">
        <ele>80.409999999999997</ele>
        <time>2026-04-25T11:42:35Z</time>
      </trkpt>
      <trkpt lat="59.079752471297979" lon="30.005782814696431">
        <ele>80.409999999999997</ele>
        <time>2026-04-25T11:42:44Z</time>
      </trkpt>
      <trkpt lat="59.079780466854572" lon="30.005810307338834">
        <ele>80.409999999999997</ele>
        <time>2026-04-25T11:42:48Z</time>
      </trkpt>
      <trkpt lat="59.079807959496975" lon="30.005901837721467">
        <ele>80.890000000000001</ele>
        <time>2026-04-25T11:42:57Z</time>
      </trkpt>
      <trkpt lat="59.079764289781451" lon="30.006006360054016">
        <ele>80.890000000000001</ele>
        <time>2026-04-25T11:43:06Z</time>
      </trkpt>
      <trkpt lat="59.079742664471269" lon="30.006067464128137">
        <ele>80.890000000000001</ele>
        <time>2026-04-25T11:43:13Z</time>
      </trkpt>
      <trkpt lat="59.079772420227528" lon="30.006181122735143">
        <ele>80.890000000000001</ele>
        <time>2026-04-25T11:43:19Z</time>
      </trkpt>
      <trkpt lat="59.079788513481617" lon="30.006291093304753">
        <ele>80.890000000000001</ele>
        <time>2026-04-25T11:43:27Z</time>
      </trkpt>
      <trkpt lat="59.079814832657576" lon="30.006339624524117">
        <ele>80.890000000000001</ele>
        <time>2026-04-25T11:43:31Z</time>
      </trkpt>
      <trkpt lat="59.079846180975437" lon="30.006491085514426">
        <ele>80.890000000000001</ele>
        <time>2026-04-25T11:43:41Z</time>
      </trkpt>
      <trkpt lat="59.079871410503983" lon="30.006648832932115">
        <ele>80.890000000000001</ele>
        <time>2026-04-25T11:43:52Z</time>
      </trkpt>
      <trkpt lat="59.079885827377439" lon="30.006810016930103">
        <ele>80.890000000000001</ele>
        <time>2026-04-25T11:44:02Z</time>
      </trkpt>
      <trkpt lat="59.079927820712328" lon="30.006910683587193">
        <ele>80.890000000000001</ele>
        <time>2026-04-25T11:44:09Z</time>
      </trkpt>
      <trkpt lat="59.079971155151725" lon="30.007054517045617">
        <ele>80.890000000000001</ele>
        <time>2026-04-25T11:44:20Z</time>
      </trkpt>
      <trkpt lat="59.080020692199469" lon="30.007119476795197">
        <ele>80.890000000000001</ele>
        <time>2026-04-25T11:44:28Z</time>
      </trkpt>
      <trkpt lat="59.079964952543378" lon="30.00723397359252">
        <ele>80.890000000000001</ele>
        <time>2026-04-25T11:44:36Z</time>
      </trkpt>
      <trkpt lat="59.079943913966417" lon="30.007404293864965">
        <ele>80.409999999999997</ele>
        <time>2026-04-25T11:44:44Z</time>
      </trkpt>
      <trkpt lat="59.080004850402474" lon="30.007635382935405">
        <ele>80.409999999999997</ele>
        <time>2026-04-25T11:44:59Z</time>
      </trkpt>
      <trkpt lat="59.080058326944709" lon="30.007717609405518">
        <ele>80.409999999999997</ele>
        <time>2026-04-25T11:45:08Z</time>
      </trkpt>
      <trkpt lat="59.080057991668582" lon="30.00776463188231">
        <ele>80.409999999999997</ele>
        <time>2026-04-25T11:45:19Z</time>
      </trkpt>
      <trkpt lat="59.080044664442539" lon="30.007753735408187">
        <ele>80.409999999999997</ele>
        <time>2026-04-25T11:45:39Z</time>
      </trkpt>
      <trkpt lat="59.080013735219836" lon="30.00772406347096">
        <ele>80.409999999999997</ele>
        <time>2026-04-25T11:46:08Z</time>
      </trkpt>
      <trkpt lat="59.080010047182441" lon="30.007728086784482">
        <ele>80.409999999999997</ele>
        <time>2026-04-25T11:46:18Z</time>
      </trkpt>
      <trkpt lat="59.080013232305646" lon="30.0077357981354">
        <ele>80.409999999999997</ele>
        <time>2026-04-25T11:46:34Z</time>
      </trkpt>
      <trkpt lat="59.079915583133698" lon="30.007746694609523">
        <ele>80.409999999999997</ele>
        <time>2026-04-25T11:46:45Z</time>
      </trkpt>
      <trkpt lat="59.079868560656905" lon="30.007743341848254">
        <ele>80.409999999999997</ele>
        <time>2026-04-25T11:46:53Z</time>
      </trkpt>
      <trkpt lat="59.07978574745357" lon="30.007753483951092">
        <ele>80.409999999999997</ele>
        <time>2026-04-25T11:47:02Z</time>
      </trkpt>
      <trkpt lat="59.079703185707331" lon="30.007740994915366">
        <ele>80.409999999999997</ele>
        <time>2026-04-25T11:47:11Z</time>
      </trkpt>
      <trkpt lat="59.079625904560089" lon="30.007830848917365">
        <ele>80.409999999999997</ele>
        <time>2026-04-25T11:47:19Z</time>
      </trkpt>
      <trkpt lat="59.079594723880291" lon="30.007903771474957">
        <ele>80.409999999999997</ele>
        <time>2026-04-25T11:47:26Z</time>
      </trkpt>
      <trkpt lat="59.079575864598155" lon="30.007850043475628">
        <ele>80.409999999999997</ele>
        <time>2026-04-25T11:48:12Z</time>
      </trkpt>
      <trkpt lat="59.079596986994147" lon="30.007804110646248">
        <ele>80.409999999999997</ele>
        <time>2026-04-25T11:48:24Z</time>
      </trkpt>
      <trkpt lat="59.079555412754416" lon="30.007676621899009">
        <ele>80.409999999999997</ele>
        <time>2026-04-25T11:48:41Z</time>
      </trkpt>
      <trkpt lat="59.079551389440894" lon="30.007637981325388">
        <ele>80.409999999999997</ele>
        <time>2026-04-25T11:48:50Z</time>
      </trkpt>
      <trkpt lat="59.079533871263266" lon="30.007542762905359">
        <ele>80.409999999999997</ele>
        <time>2026-04-25T11:48:58Z</time>
      </trkpt>
      <trkpt lat="59.079519119113684" lon="30.007434971630573">
        <ele>80.409999999999997</ele>
        <time>2026-04-25T11:49:06Z</time>
      </trkpt>
      <trkpt lat="59.079508893191814" lon="30.007325671613216">
        <ele>80.409999999999997</ele>
        <time>2026-04-25T11:49:14Z</time>
      </trkpt>
      <trkpt lat="59.079486848786473" lon="30.00723933801055">
        <ele>80.890000000000001</ele>
        <time>2026-04-25T11:49:20Z</time>
      </trkpt>
      <trkpt lat="59.079459942877293" lon="30.007146717980504">
        <ele>80.890000000000001</ele>
        <time>2026-04-25T11:49:27Z</time>
      </trkpt>
      <trkpt lat="59.079432617872953" lon="30.007051331922412">
        <ele>80.890000000000001</ele>
        <time>2026-04-25T11:49:33Z</time>
      </trkpt>
      <trkpt lat="59.079417530447245" lon="30.006957286968827">
        <ele>80.890000000000001</ele>
        <time>2026-04-25T11:49:39Z</time>
      </trkpt>
      <trkpt lat="59.079432534053922" lon="30.006867935881019">
        <ele>80.890000000000001</ele>
        <time>2026-04-25T11:49:46Z</time>
      </trkpt>
      <trkpt lat="59.079419039189816" lon="30.006721755489707">
        <ele>80.890000000000001</ele>
        <time>2026-04-25T11:49:54Z</time>
      </trkpt>
      <trkpt lat="59.079435635358095" lon="30.006579598411918">
        <ele>80.890000000000001</ele>
        <time>2026-04-25T11:50:03Z</time>
      </trkpt>
      <trkpt lat="59.079399257898331" lon="30.006453869864345">
        <ele>80.409999999999997</ele>
        <time>2026-04-25T11:50:11Z</time>
      </trkpt>
      <trkpt lat="59.079376794397831" lon="30.006340462714434">
        <ele>80.890000000000001</ele>
        <time>2026-04-25T11:50:18Z</time>
      </trkpt>
      <trkpt lat="59.079371765255928" lon="30.006319507956505">
        <ele>80.890000000000001</ele>
        <time>2026-04-25T11:50:19Z</time>
      </trkpt>
      <trkpt lat="59.079353827983141" lon="30.006184140220284">
        <ele>80.890000000000001</ele>
        <time>2026-04-25T11:50:28Z</time>
      </trkpt>
      <trkpt lat="59.079354498535395" lon="30.006075091660023">
        <ele>80.890000000000001</ele>
        <time>2026-04-25T11:50:36Z</time>
      </trkpt>
      <trkpt lat="59.079308230429888" lon="30.005982387810946">
        <ele>80.890000000000001</ele>
        <time>2026-04-25T11:50:45Z</time>
      </trkpt>
      <trkpt lat="59.079267829656601" lon="30.005970150232315">
        <ele>80.890000000000001</ele>
        <time>2026-04-25T11:51:00Z</time>
      </trkpt>
      <trkpt lat="59.07936405390501" lon="30.005868058651686">
        <ele>81.370000000000005</ele>
        <time>2026-04-25T11:51:09Z</time>
      </trkpt>
      <trkpt lat="59.079376962035894" lon="30.005716681480408">
        <ele>81.370000000000005</ele>
        <time>2026-04-25T11:51:17Z</time>
      </trkpt>
      <trkpt lat="59.079373273998499" lon="30.005591623485088">
        <ele>81.370000000000005</ele>
        <time>2026-04-25T11:51:25Z</time>
      </trkpt>
      <trkpt lat="59.079351983964443" lon="30.005451142787933">
        <ele>81.370000000000005</ele>
        <time>2026-04-25T11:51:32Z</time>
      </trkpt>
      <trkpt lat="59.079333543777466" lon="30.005359528586268">
        <ele>81.370000000000005</ele>
        <time>2026-04-25T11:51:39Z</time>
      </trkpt>
      <trkpt lat="59.07931569032371" lon="30.005243439227343">
        <ele>81.370000000000005</ele>
        <time>2026-04-25T11:51:56Z</time>
      </trkpt>
      <trkpt lat="59.079295741394162" lon="30.005338154733181">
        <ele>81.370000000000005</ele>
        <time>2026-04-25T11:52:09Z</time>
      </trkpt>
      <trkpt lat="59.079278809949756" lon="30.005347542464733">
        <ele>81.370000000000005</ele>
        <time>2026-04-25T11:52:19Z</time>
      </trkpt>
      <trkpt lat="59.079312421381474" lon="30.005270764231682">
        <ele>81.370000000000005</ele>
        <time>2026-04-25T11:52:31Z</time>
      </trkpt>
      <trkpt lat="59.079283336177468" lon="30.005305632948875">
        <ele>81.370000000000005</ele>
        <time>2026-04-25T11:52:46Z</time>
      </trkpt>
      <trkpt lat="59.079206893220544" lon="30.005397330969572">
        <ele>81.370000000000005</ele>
        <time>2026-04-25T11:52:59Z</time>
      </trkpt>
      <trkpt lat="59.079143526032567" lon="30.00544854439795">
        <ele>81.370000000000005</ele>
        <time>2026-04-25T11:53:07Z</time>
      </trkpt>
      <trkpt lat="59.079127851873636" lon="30.005460446700454">
        <ele>81.370000000000005</ele>
        <time>2026-04-25T11:53:09Z</time>
      </trkpt>
      <trkpt lat="59.07906498759985" lon="30.005564801394939">
        <ele>80.890000000000001</ele>
        <time>2026-04-25T11:53:17Z</time>
      </trkpt>
      <trkpt lat="59.079005140811205" lon="30.005531357601285">
        <ele>80.890000000000001</ele>
        <time>2026-04-25T11:53:24Z</time>
      </trkpt>
      <trkpt lat="59.078929200768471" lon="30.005512665957212">
        <ele>80.890000000000001</ele>
        <time>2026-04-25T11:53:33Z</time>
      </trkpt>
      <trkpt lat="59.078866001218557" lon="30.005558514967561">
        <ele>80.890000000000001</ele>
        <time>2026-04-25T11:53:53Z</time>
      </trkpt>
      <trkpt lat="59.078875137493014" lon="30.005455585196614">
        <ele>80.890000000000001</ele>
        <time>2026-04-25T11:54:02Z</time>
      </trkpt>
      <trkpt lat="59.078855942934752" lon="30.005446365103126">
        <ele>80.890000000000001</ele>
        <time>2026-04-25T11:54:11Z</time>
      </trkpt>
      <trkpt lat="59.078847980126739" lon="30.005578463897109">
        <ele>80.890000000000001</ele>
        <time>2026-04-25T11:54:20Z</time>
      </trkpt>
      <trkpt lat="59.078840017318726" lon="30.005702516064048">
        <ele>80.890000000000001</ele>
        <time>2026-04-25T11:54:41Z</time>
      </trkpt>
      <trkpt lat="59.078824426978827" lon="30.005832351744175">
        <ele>80.890000000000001</ele>
        <time>2026-04-25T11:54:49Z</time>
      </trkpt>
      <trkpt lat="59.078830042853951" lon="30.005967048928142">
        <ele>80.890000000000001</ele>
        <time>2026-04-25T11:54:58Z</time>
      </trkpt>
      <trkpt lat="59.078802801668644" lon="30.00610820017755">
        <ele>80.890000000000001</ele>
        <time>2026-04-25T11:55:07Z</time>
      </trkpt>
      <trkpt lat="59.078796682879329" lon="30.006193108856678">
        <ele>80.890000000000001</ele>
        <time>2026-04-25T11:55:12Z</time>
      </trkpt>
      <trkpt lat="59.078826690092683" lon="30.006335601210594">
        <ele>80.890000000000001</ele>
        <time>2026-04-25T11:55:21Z</time>
      </trkpt>
      <trkpt lat="59.07886222936213" lon="30.006427969783545">
        <ele>80.890000000000001</ele>
        <time>2026-04-25T11:55:28Z</time>
      </trkpt>
      <trkpt lat="59.078871449455619" lon="30.006629889830947">
        <ele>80.890000000000001</ele>
        <time>2026-04-25T11:55:39Z</time>
      </trkpt>
      <trkpt lat="59.078875388950109" lon="30.006784535944462">
        <ele>80.409999999999997</ele>
        <time>2026-04-25T11:55:50Z</time>
      </trkpt>
      <trkpt lat="59.078876059502363" lon="30.007043872028589">
        <ele>80.409999999999997</ele>
        <time>2026-04-25T11:56:05Z</time>
      </trkpt>
      <trkpt lat="59.078879244625568" lon="30.007228022441268">
        <ele>80.409999999999997</ele>
        <time>2026-04-25T11:56:15Z</time>
      </trkpt>
      <trkpt lat="59.078860385343432" lon="30.007374286651611">
        <ele>80.409999999999997</ele>
        <time>2026-04-25T11:56:31Z</time>
      </trkpt>
      <trkpt lat="59.07891696318984" lon="30.007506301626563">
        <ele>80.409999999999997</ele>
        <time>2026-04-25T11:56:45Z</time>
      </trkpt>
      <trkpt lat="59.078972786664963" lon="30.00763370655477">
        <ele>80.409999999999997</ele>
        <time>2026-04-25T11:56:57Z</time>
      </trkpt>
      <trkpt lat="59.079026430845261" lon="30.007735462859273">
        <ele>79.930000000000007</ele>
        <time>2026-04-25T11:57:08Z</time>
      </trkpt>
      <trkpt lat="59.079052582383156" lon="30.007685171440244">
        <ele>79.930000000000007</ele>
        <time>2026-04-25T11:57:42Z</time>
      </trkpt>
      <trkpt lat="59.078979659825563" lon="30.007733115926385">
        <ele>79.930000000000007</ele>
        <time>2026-04-25T11:57:51Z</time>
      </trkpt>
      <trkpt lat="59.078966584056616" lon="30.007740072906017">
        <ele>79.930000000000007</ele>
        <time>2026-04-25T11:57:52Z</time>
      </trkpt>
      <trkpt lat="59.078914532437921" lon="30.007793381810188">
        <ele>79.930000000000007</ele>
        <time>2026-04-25T11:58:01Z</time>
      </trkpt>
      <trkpt lat="59.078838424757123" lon="30.007782904431224">
        <ele>79.930000000000007</ele>
        <time>2026-04-25T11:58:09Z</time>
      </trkpt>
      <trkpt lat="59.078749073669314" lon="30.007808720692992">
        <ele>79.930000000000007</ele>
        <time>2026-04-25T11:58:20Z</time>
      </trkpt>
      <trkpt lat="59.078659387305379" lon="30.007784329354763">
        <ele>79.930000000000007</ele>
        <time>2026-04-25T11:58:32Z</time>
      </trkpt>
      <trkpt lat="59.078646562993526" lon="30.00781643204391">
        <ele>79.450000000000003</ele>
        <time>2026-04-25T11:58:49Z</time>
      </trkpt>
      <trkpt lat="59.078677073121071" lon="30.007947022095323">
        <ele>79.450000000000003</ele>
        <time>2026-04-25T11:58:58Z</time>
      </trkpt>
      <trkpt lat="59.078683275729418" lon="30.008148942142725">
        <ele>79.450000000000003</ele>
        <time>2026-04-25T11:59:10Z</time>
      </trkpt>
      <trkpt lat="59.078685371205211" lon="30.00819806009531">
        <ele>79.450000000000003</ele>
        <time>2026-04-25T11:59:42Z</time>
      </trkpt>
      <trkpt lat="59.078655196353793" lon="30.008066799491644">
        <ele>79.450000000000003</ele>
        <time>2026-04-25T11:59:58Z</time>
      </trkpt>
      <trkpt lat="59.078564336523414" lon="30.008067134767771">
        <ele>79.450000000000003</ele>
        <time>2026-04-25T12:00:15Z</time>
      </trkpt>
      <trkpt lat="59.078564671799541" lon="30.00800502486527">
        <ele>78.969999999999999</ele>
        <time>2026-04-25T12:00:21Z</time>
      </trkpt>
      <trkpt lat="59.078590655699372" lon="30.007973676547408">
        <ele>78.969999999999999</ele>
        <time>2026-04-25T12:00:35Z</time>
      </trkpt>
      <trkpt lat="59.078604569658637" lon="30.008101332932711">
        <ele>78.969999999999999</ele>
        <time>2026-04-25T12:00:53Z</time>
      </trkpt>
      <trkpt lat="59.078603647649288" lon="30.008105775341392">
        <ele>78.969999999999999</ele>
        <time>2026-04-25T12:00:54Z</time>
      </trkpt>
      <trkpt lat="59.078613286837935" lon="30.008177859708667">
        <ele>78.969999999999999</ele>
        <time>2026-04-25T12:01:08Z</time>
      </trkpt>
      <trkpt lat="59.078634493052959" lon="30.008173836395144">
        <ele>78.969999999999999</ele>
        <time>2026-04-25T12:01:24Z</time>
      </trkpt>
      <trkpt lat="59.07861496321857" lon="30.008122622966766">
        <ele>78.969999999999999</ele>
        <time>2026-04-25T12:01:47Z</time>
      </trkpt>
      <trkpt lat="59.078639019280672" lon="30.008125975728035">
        <ele>78.969999999999999</ele>
        <time>2026-04-25T12:01:59Z</time>
      </trkpt>
      <trkpt lat="59.078665170818567" lon="30.008149361237884">
        <ele>78.480000000000004</ele>
        <time>2026-04-25T12:02:13Z</time>
      </trkpt>
      <trkpt lat="59.078658213838935" lon="30.00814382918179">
        <ele>78.480000000000004</ele>
        <time>2026-04-25T12:02:18Z</time>
      </trkpt>
      <trkpt lat="59.078618232160807" lon="30.008166627958417">
        <ele>78.480000000000004</ele>
        <time>2026-04-25T12:02:32Z</time>
      </trkpt>
      <trkpt lat="59.078602893278003" lon="30.008186995983124">
        <ele>78.480000000000004</ele>
        <time>2026-04-25T12:02:57Z</time>
      </trkpt>
      <trkpt lat="59.0785719640553" lon="30.008170064538717">
        <ele>78.969999999999999</ele>
        <time>2026-04-25T12:03:08Z</time>
      </trkpt>
      <trkpt lat="59.078594511374831" lon="30.008120778948069">
        <ele>79.450000000000003</ele>
        <time>2026-04-25T12:03:27Z</time>
      </trkpt>
      <trkpt lat="59.078565258532763" lon="30.008125640451908">
        <ele>79.450000000000003</ele>
        <time>2026-04-25T12:03:48Z</time>
      </trkpt>
      <trkpt lat="59.0785978641361" lon="30.008043330162764">
        <ele>78.969999999999999</ele>
        <time>2026-04-25T12:03:56Z</time>
      </trkpt>
      <trkpt lat="59.078592834994197" lon="30.00798549503088">
        <ele>78.969999999999999</ele>
        <time>2026-04-25T12:04:03Z</time>
      </trkpt>
      <trkpt lat="59.078615130856633" lon="30.007970323786139">
        <ele>78.969999999999999</ele>
        <time>2026-04-25T12:04:19Z</time>
      </trkpt>
      <trkpt lat="59.078622674569488" lon="30.00789413228631">
        <ele>78.969999999999999</ele>
        <time>2026-04-25T12:04:30Z</time>
      </trkpt>
      <trkpt lat="59.078609934076667" lon="30.007882229983807">
        <ele>78.969999999999999</ele>
        <time>2026-04-25T12:04:54Z</time>
      </trkpt>
      <trkpt lat="59.078587638214231" lon="30.00782179646194">
        <ele>78.969999999999999</ele>
        <time>2026-04-25T12:05:13Z</time>
      </trkpt>
      <trkpt lat="59.078540531918406" lon="30.007789190858603">
        <ele>78.969999999999999</ele>
        <time>2026-04-25T12:05:27Z</time>
      </trkpt>
      <trkpt lat="59.078528042882681" lon="30.007742000743747">
        <ele>78.969999999999999</ele>
        <time>2026-04-25T12:05:36Z</time>
      </trkpt>
      <trkpt lat="59.078508513048291" lon="30.007622139528394">
        <ele>78.480000000000004</ele>
        <time>2026-04-25T12:05:44Z</time>
      </trkpt>
      <trkpt lat="59.078501891344786" lon="30.007537733763456">
        <ele>78.480000000000004</ele>
        <time>2026-04-25T12:05:49Z</time>
      </trkpt>
      <trkpt lat="59.078493677079678" lon="30.007413597777486">
        <ele>78.480000000000004</ele>
        <time>2026-04-25T12:05:57Z</time>
      </trkpt>
      <trkpt lat="59.078467022627592" lon="30.007286025211215">
        <ele>78.480000000000004</ele>
        <time>2026-04-25T12:06:05Z</time>
      </trkpt>
      <trkpt lat="59.07847716473043" lon="30.007126433774829">
        <ele>78.480000000000004</ele>
        <time>2026-04-25T12:06:13Z</time>
      </trkpt>
      <trkpt lat="59.07846936956048" lon="30.0069828517735">
        <ele>78.969999999999999</ele>
        <time>2026-04-25T12:06:21Z</time>
      </trkpt>
      <trkpt lat="59.078482780605555" lon="30.006878497079015">
        <ele>78.969999999999999</ele>
        <time>2026-04-25T12:06:27Z</time>
      </trkpt>
      <trkpt lat="59.078445145860314" lon="30.006751846522093">
        <ele>78.969999999999999</ele>
        <time>2026-04-25T12:06:36Z</time>
      </trkpt>
      <trkpt lat="59.078432908281684" lon="30.006730891764164">
        <ele>78.969999999999999</ele>
        <time>2026-04-25T12:06:38Z</time>
      </trkpt>
      <trkpt lat="59.078407343477011" lon="30.006656711921096">
        <ele>78.969999999999999</ele>
        <time>2026-04-25T12:06:45Z</time>
      </trkpt>
      <trkpt lat="59.078421592712402" lon="30.006560906767845">
        <ele>78.969999999999999</ele>
        <time>2026-04-25T12:06:51Z</time>
      </trkpt>
      <trkpt lat="59.078404409810901" lon="30.006435932591558">
        <ele>78.969999999999999</ele>
        <time>2026-04-25T12:06:59Z</time>
      </trkpt>
      <trkpt lat="59.078402314335108" lon="30.006381366401911">
        <ele>78.969999999999999</ele>
        <time>2026-04-25T12:07:03Z</time>
      </trkpt>
      <trkpt lat="59.078376749530435" lon="30.006263265386224">
        <ele>78.969999999999999</ele>
        <time>2026-04-25T12:07:10Z</time>
      </trkpt>
      <trkpt lat="59.078348418697715" lon="30.006215488538146">
        <ele>78.969999999999999</ele>
        <time>2026-04-25T12:07:18Z</time>
      </trkpt>
      <trkpt lat="59.078305838629603" lon="30.006135776638985">
        <ele>78.480000000000004</ele>
        <time>2026-04-25T12:07:27Z</time>
      </trkpt>
      <trkpt lat="59.078282620757818" lon="30.006098980084062">
        <ele>78.480000000000004</ele>
        <time>2026-04-25T12:07:30Z</time>
      </trkpt>
      <trkpt lat="59.078262336552143" lon="30.006117504090071">
        <ele>78.480000000000004</ele>
        <time>2026-04-25T12:07:42Z</time>
      </trkpt>
      <trkpt lat="59.078245908021927" lon="30.006135944277048">
        <ele>78.969999999999999</ele>
        <time>2026-04-25T12:08:01Z</time>
      </trkpt>
      <trkpt lat="59.078202908858657" lon="30.006162095814943">
        <ele>78.969999999999999</ele>
        <time>2026-04-25T12:08:06Z</time>
      </trkpt>
      <trkpt lat="59.078133422881365" lon="30.006198221817613">
        <ele>78.969999999999999</ele>
        <time>2026-04-25T12:08:14Z</time>
      </trkpt>
      <trkpt lat="59.078111713752151" lon="30.006221439689398">
        <ele>78.969999999999999</ele>
        <time>2026-04-25T12:08:21Z</time>
      </trkpt>
      <trkpt lat="59.078042563050985" lon="30.006276927888393">
        <ele>78.969999999999999</ele>
        <time>2026-04-25T12:08:33Z</time>
      </trkpt>
      <trkpt lat="59.077973328530788" lon="30.00629679299891">
        <ele>78.969999999999999</ele>
        <time>2026-04-25T12:08:43Z</time>
      </trkpt>
      <trkpt lat="59.077917756512761" lon="30.006307270377874">
        <ele>78.969999999999999</ele>
        <time>2026-04-25T12:08:51Z</time>
      </trkpt>
      <trkpt lat="59.077823292464018" lon="30.006355885416269">
        <ele>78.969999999999999</ele>
        <time>2026-04-25T12:09:01Z</time>
      </trkpt>
      <trkpt lat="59.077790603041649" lon="30.006347168236971">
        <ele>78.480000000000004</ele>
        <time>2026-04-25T12:09:13Z</time>
      </trkpt>
      <trkpt lat="59.077768390998244" lon="30.006428640335798">
        <ele>78.480000000000004</ele>
        <time>2026-04-25T12:09:41Z</time>
      </trkpt>
      <trkpt lat="59.077805355191231" lon="30.006511369720101">
        <ele>78.480000000000004</ele>
        <time>2026-04-25T12:09:49Z</time>
      </trkpt>
      <trkpt lat="59.07782781869173" lon="30.006629638373852">
        <ele>78.480000000000004</ele>
        <time>2026-04-25T12:09:57Z</time>
      </trkpt>
      <trkpt lat="59.077819772064686" lon="30.006761569529772">
        <ele>78.480000000000004</ele>
        <time>2026-04-25T12:10:05Z</time>
      </trkpt>
      <trkpt lat="59.077837122604251" lon="30.006862487643957">
        <ele>78.480000000000004</ele>
        <time>2026-04-25T12:10:12Z</time>
      </trkpt>
      <trkpt lat="59.077863693237305" lon="30.00693934969604">
        <ele>78.480000000000004</ele>
        <time>2026-04-25T12:10:19Z</time>
      </trkpt>
      <trkpt lat="59.077870482578874" lon="30.007088212296367">
        <ele>78.480000000000004</ele>
        <time>2026-04-25T12:10:28Z</time>
      </trkpt>
      <trkpt lat="59.077888252213597" lon="30.007204134017229">
        <ele>78</ele>
        <time>2026-04-25T12:10:36Z</time>
      </trkpt>
      <trkpt lat="59.077918510884047" lon="30.007270434871316">
        <ele>78</ele>
        <time>2026-04-25T12:10:41Z</time>
      </trkpt>
      <trkpt lat="59.077966958284378" lon="30.00736054033041">
        <ele>78</ele>
        <time>2026-04-25T12:10:49Z</time>
      </trkpt>
      <trkpt lat="59.077968969941139" lon="30.007446203380823">
        <ele>78</ele>
        <time>2026-04-25T12:10:55Z</time>
      </trkpt>
      <trkpt lat="59.077987996861339" lon="30.007609482854605">
        <ele>78</ele>
        <time>2026-04-25T12:11:04Z</time>
      </trkpt>
      <trkpt lat="59.078015070408583" lon="30.007754741236567">
        <ele>78</ele>
        <time>2026-04-25T12:11:13Z</time>
      </trkpt>
      <trkpt lat="59.078027978539467" lon="30.007854234427214">
        <ele>78</ele>
        <time>2026-04-25T12:11:20Z</time>
      </trkpt>
      <trkpt lat="59.078057147562504" lon="30.007940735667944">
        <ele>78</ele>
        <time>2026-04-25T12:11:27Z</time>
      </trkpt>
      <trkpt lat="59.078074162825942" lon="30.008068643510342">
        <ele>78</ele>
        <time>2026-04-25T12:11:35Z</time>
      </trkpt>
      <trkpt lat="59.078067373484373" lon="30.008140057325363">
        <ele>78</ele>
        <time>2026-04-25T12:11:43Z</time>
      </trkpt>
      <trkpt lat="59.078066367655993" lon="30.008235275745392">
        <ele>77.519999999999996</ele>
        <time>2026-04-25T12:11:55Z</time>
      </trkpt>
      <trkpt lat="59.07807357609272" lon="30.008327141404152">
        <ele>77.519999999999996</ele>
        <time>2026-04-25T12:12:02Z</time>
      </trkpt>
      <trkpt lat="59.078101487830281" lon="30.008400315418839">
        <ele>77.519999999999996</ele>
        <time>2026-04-25T12:12:10Z</time>
      </trkpt>
      <trkpt lat="59.078069636598229" lon="30.008507100865245">
        <ele>77.519999999999996</ele>
        <time>2026-04-25T12:12:26Z</time>
      </trkpt>
      <trkpt lat="59.078055303543806" lon="30.00853082165122">
        <ele>77.519999999999996</ele>
        <time>2026-04-25T12:12:36Z</time>
      </trkpt>
      <trkpt lat="59.078026385977864" lon="30.008614053949714">
        <ele>77.519999999999996</ele>
        <time>2026-04-25T12:12:58Z</time>
      </trkpt>
      <trkpt lat="59.078016160055995" lon="30.008552866056561">
        <ele>78</ele>
        <time>2026-04-25T12:13:28Z</time>
      </trkpt>
      <trkpt lat="59.077971987426281" lon="30.008490672335029">
        <ele>78</ele>
        <time>2026-04-25T12:13:37Z</time>
      </trkpt>
      <trkpt lat="59.077922785654664" lon="30.008442057296634">
        <ele>78</ele>
        <time>2026-04-25T12:13:45Z</time>
      </trkpt>
      <trkpt lat="59.077837290242314" lon="30.008512549102306">
        <ele>78</ele>
        <time>2026-04-25T12:13:57Z</time>
      </trkpt>
      <trkpt lat="59.077737461775541" lon="30.008559403941035">
        <ele>78</ele>
        <time>2026-04-25T12:14:09Z</time>
      </trkpt>
      <trkpt lat="59.077626150101423" lon="30.008507939055562">
        <ele>78</ele>
        <time>2026-04-25T12:14:23Z</time>
      </trkpt>
      <trkpt lat="59.077602345496416" lon="30.008514476940036">
        <ele>78</ele>
        <time>2026-04-25T12:14:35Z</time>
      </trkpt>
      <trkpt lat="59.077580468729138" lon="30.008445158600807">
        <ele>78</ele>
        <time>2026-04-25T12:15:06Z</time>
      </trkpt>
      <trkpt lat="59.077584994956851" lon="30.008359998464584">
        <ele>78</ele>
        <time>2026-04-25T12:15:10Z</time>
      </trkpt>
      <trkpt lat="59.077551132068038" lon="30.008238377049565">
        <ele>78</ele>
        <time>2026-04-25T12:15:19Z</time>
      </trkpt>
      <trkpt lat="59.077482987195253" lon="30.008210800588131">
        <ele>78</ele>
        <time>2026-04-25T12:15:28Z</time>
      </trkpt>
      <trkpt lat="59.077443005517125" lon="30.008146846666932">
        <ele>78.480000000000004</ele>
        <time>2026-04-25T12:15:35Z</time>
      </trkpt>
      <trkpt lat="59.077439652755857" lon="30.007902598008513">
        <ele>78.480000000000004</ele>
        <time>2026-04-25T12:15:50Z</time>
      </trkpt>
      <trkpt lat="59.077427247539163" lon="30.007717777043581">
        <ele>78.480000000000004</ele>
        <time>2026-04-25T12:16:04Z</time>
      </trkpt>
      <trkpt lat="59.077402269467711" lon="30.007528597488999">
        <ele>78.480000000000004</ele>
        <time>2026-04-25T12:16:16Z</time>
      </trkpt>
      <trkpt lat="59.077382404357195" lon="30.007432205602527">
        <ele>78.480000000000004</ele>
        <time>2026-04-25T12:16:25Z</time>
      </trkpt>
      <trkpt lat="59.077380057424307" lon="30.007287617772818">
        <ele>78</ele>
        <time>2026-04-25T12:16:34Z</time>
      </trkpt>
      <trkpt lat="59.077358348295093" lon="30.007204385474324">
        <ele>78</ele>
        <time>2026-04-25T12:16:44Z</time>
      </trkpt>
      <trkpt lat="59.077340578660369" lon="30.007092738524079">
        <ele>78</ele>
        <time>2026-04-25T12:17:02Z</time>
      </trkpt>
      <trkpt lat="59.077304368838668" lon="30.006995592266321">
        <ele>78</ele>
        <time>2026-04-25T12:17:12Z</time>
      </trkpt>
      <trkpt lat="59.077294897288084" lon="30.006960304453969">
        <ele>78</ele>
        <time>2026-04-25T12:17:20Z</time>
      </trkpt>
      <trkpt lat="59.07736748456955" lon="30.006767520681024">
        <ele>78</ele>
        <time>2026-04-25T12:17:34Z</time>
      </trkpt>
      <trkpt lat="59.077382739633322" lon="30.006646402180195">
        <ele>78</ele>
        <time>2026-04-25T12:17:43Z</time>
      </trkpt>
      <trkpt lat="59.077322809025645" lon="30.006619077175856">
        <ele>78</ele>
        <time>2026-04-25T12:18:13Z</time>
      </trkpt>
      <trkpt lat="59.077307553961873" lon="30.006537437438965">
        <ele>78.480000000000004</ele>
        <time>2026-04-25T12:18:35Z</time>
      </trkpt>
      <trkpt lat="59.077301351353526" lon="30.006424868479371">
        <ele>78</ele>
        <time>2026-04-25T12:18:46Z</time>
      </trkpt>
      <trkpt lat="59.077281402423978" lon="30.006466191262007">
        <ele>78</ele>
        <time>2026-04-25T12:18:58Z</time>
      </trkpt>
      <trkpt lat="59.077253071591258" lon="30.006543723866343">
        <ele>78</ele>
        <time>2026-04-25T12:19:07Z</time>
      </trkpt>
      <trkpt lat="59.077243683859706" lon="30.00659829005599">
        <ele>78</ele>
        <time>2026-04-25T12:19:13Z</time>
      </trkpt>
      <trkpt lat="59.077205630019307" lon="30.006614634767175">
        <ele>78</ele>
        <time>2026-04-25T12:19:30Z</time>
      </trkpt>
      <trkpt lat="59.077164558693767" lon="30.006544729694724">
        <ele>78</ele>
        <time>2026-04-25T12:19:40Z</time>
      </trkpt>
      <trkpt lat="59.077127007767558" lon="30.006461748853326">
        <ele>78</ele>
        <time>2026-04-25T12:19:50Z</time>
      </trkpt>
      <trkpt lat="59.077092474326491" lon="30.006386311724782">
        <ele>78</ele>
        <time>2026-04-25T12:19:59Z</time>
      </trkpt>
      <trkpt lat="59.07706405967474" lon="30.006353538483381">
        <ele>78</ele>
        <time>2026-04-25T12:20:12Z</time>
      </trkpt>
      <trkpt lat="59.077019803225994" lon="30.006315987557173">
        <ele>78</ele>
        <time>2026-04-25T12:20:21Z</time>
      </trkpt>
      <trkpt lat="59.076962806284428" lon="30.006312634795904">
        <ele>78</ele>
        <time>2026-04-25T12:20:32Z</time>
      </trkpt>
      <trkpt lat="59.076902372762561" lon="30.006309701129794">
        <ele>77.519999999999996</ele>
        <time>2026-04-25T12:20:41Z</time>
      </trkpt>
      <trkpt lat="59.076874628663063" lon="30.006321184337139">
        <ele>77.519999999999996</ele>
        <time>2026-04-25T12:20:52Z</time>
      </trkpt>
      <trkpt lat="59.076865492388606" lon="30.006403746083379">
        <ele>77.519999999999996</ele>
        <time>2026-04-25T12:21:23Z</time>
      </trkpt>
      <trkpt lat="59.076841101050377" lon="30.006479769945145">
        <ele>77.519999999999996</ele>
        <time>2026-04-25T12:21:31Z</time>
      </trkpt>
      <trkpt lat="59.076797096058726" lon="30.006481697782874">
        <ele>77.519999999999996</ele>
        <time>2026-04-25T12:21:42Z</time>
      </trkpt>
      <trkpt lat="59.07670590095222" lon="30.006470466032624">
        <ele>77.519999999999996</ele>
        <time>2026-04-25T12:21:56Z</time>
      </trkpt>
      <trkpt lat="59.076648065820336" lon="30.006567444652319">
        <ele>77.519999999999996</ele>
        <time>2026-04-25T12:22:08Z</time>
      </trkpt>
      <trkpt lat="59.076649155467749" lon="30.006651096045971">
        <ele>77.040000000000006</ele>
        <time>2026-04-25T12:22:18Z</time>
      </trkpt>
      <trkpt lat="59.076690226793289" lon="30.006794510409236">
        <ele>77.519999999999996</ele>
        <time>2026-04-25T12:22:30Z</time>
      </trkpt>
      <trkpt lat="59.076711433008313" lon="30.006933733820915">
        <ele>77.519999999999996</ele>
        <time>2026-04-25T12:22:40Z</time>
      </trkpt>
      <trkpt lat="59.076742026954889" lon="30.007102293893695">
        <ele>77.519999999999996</ele>
        <time>2026-04-25T12:22:52Z</time>
      </trkpt>
      <trkpt lat="59.07678309828043" lon="30.007249983027577">
        <ele>77.519999999999996</ele>
        <time>2026-04-25T12:23:09Z</time>
      </trkpt>
      <trkpt lat="59.076781421899796" lon="30.007300022989511">
        <ele>77.519999999999996</ele>
        <time>2026-04-25T12:23:12Z</time>
      </trkpt>
      <trkpt lat="59.076781421899796" lon="30.007483251392841">
        <ele>77.519999999999996</ele>
        <time>2026-04-25T12:23:24Z</time>
      </trkpt>
      <trkpt lat="59.076767507940531" lon="30.007616188377142">
        <ele>77.519999999999996</ele>
        <time>2026-04-25T12:23:34Z</time>
      </trkpt>
      <trkpt lat="59.076782930642366" lon="30.007831016555429">
        <ele>77.040000000000006</ele>
        <time>2026-04-25T12:23:49Z</time>
      </trkpt>
      <trkpt lat="59.076828192919493" lon="30.007911399006844">
        <ele>77.040000000000006</ele>
        <time>2026-04-25T12:23:55Z</time>
      </trkpt>
      <trkpt lat="59.076847806572914" lon="30.007994128391147">
        <ele>77.040000000000006</ele>
        <time>2026-04-25T12:24:03Z</time>
      </trkpt>
      <trkpt lat="59.076853087171912" lon="30.00810326077044">
        <ele>77.040000000000006</ele>
        <time>2026-04-25T12:24:11Z</time>
      </trkpt>
      <trkpt lat="59.076861804351211" lon="30.008247597143054">
        <ele>77.040000000000006</ele>
        <time>2026-04-25T12:24:20Z</time>
      </trkpt>
      <trkpt lat="59.076886614784598" lon="30.008311802521348">
        <ele>77.519999999999996</ele>
        <time>2026-04-25T12:24:27Z</time>
      </trkpt>
      <trkpt lat="59.076934643089771" lon="30.008377097547054">
        <ele>77.519999999999996</ele>
        <time>2026-04-25T12:24:34Z</time>
      </trkpt>
      <trkpt lat="59.076967751607299" lon="30.008442727848887">
        <ele>77.519999999999996</ele>
        <time>2026-04-25T12:24:39Z</time>
      </trkpt>
      <trkpt lat="59.076989209279418" lon="30.008504586294293">
        <ele>77.519999999999996</ele>
        <time>2026-04-25T12:24:48Z</time>
      </trkpt>
      <trkpt lat="59.077031286433339" lon="30.0086285546422">
        <ele>77.519999999999996</ele>
        <time>2026-04-25T12:24:57Z</time>
      </trkpt>
      <trkpt lat="59.077046206220984" lon="30.00875310972333">
        <ele>77.519999999999996</ele>
        <time>2026-04-25T12:25:05Z</time>
      </trkpt>
      <trkpt lat="59.077031621709466" lon="30.008766856044531">
        <ele>77.519999999999996</ele>
        <time>2026-04-25T12:25:14Z</time>
      </trkpt>
      <trkpt lat="59.077011253684759" lon="30.008800802752376">
        <ele>77.519999999999996</ele>
        <time>2026-04-25T12:25:34Z</time>
      </trkpt>
      <trkpt lat="59.076972110196948" lon="30.008814632892609">
        <ele>77.519999999999996</ele>
        <time>2026-04-25T12:25:48Z</time>
      </trkpt>
      <trkpt lat="59.076944701373577" lon="30.008819745853543">
        <ele>77.519999999999996</ele>
        <time>2026-04-25T12:25:54Z</time>
      </trkpt>
      <trkpt lat="59.076907737180591" lon="30.008791163563728">
        <ele>77.519999999999996</ele>
        <time>2026-04-25T12:26:02Z</time>
      </trkpt>
      <trkpt lat="59.076891141012311" lon="30.008808514103293">
        <ele>77.519999999999996</ele>
        <time>2026-04-25T12:26:09Z</time>
      </trkpt>
      <trkpt lat="59.076886363327503" lon="30.00882787629962">
        <ele>77.519999999999996</ele>
        <time>2026-04-25T12:26:21Z</time>
      </trkpt>
      <trkpt lat="59.076923159882426" lon="30.008863667026162">
        <ele>77.519999999999996</ele>
        <time>2026-04-25T12:26:36Z</time>
      </trkpt>
      <trkpt lat="59.076924836263061" lon="30.00877657905221">
        <ele>77.040000000000006</ele>
        <time>2026-04-25T12:26:49Z</time>
      </trkpt>
      <trkpt lat="59.076903546229005" lon="30.008718073368073">
        <ele>77.040000000000006</ele>
        <time>2026-04-25T12:27:05Z</time>
      </trkpt>
      <trkpt lat="59.076866917312145" lon="30.008772052824497">
        <ele>77.040000000000006</ele>
        <time>2026-04-25T12:27:08Z</time>
      </trkpt>
      <trkpt lat="59.076846800744534" lon="30.008783200755715">
        <ele>77.040000000000006</ele>
        <time>2026-04-25T12:27:18Z</time>
      </trkpt>
      <trkpt lat="59.076859792694449" lon="30.008784038946033">
        <ele>77.040000000000006</ele>
        <time>2026-04-25T12:27:25Z</time>
      </trkpt>
      <trkpt lat="59.076848980039358" lon="30.008856374770403">
        <ele>77.040000000000006</ele>
        <time>2026-04-25T12:27:37Z</time>
      </trkpt>
      <trkpt lat="59.076827857643366" lon="30.008914126083255">
        <ele>77.519999999999996</ele>
        <time>2026-04-25T12:27:43Z</time>
      </trkpt>
      <trkpt lat="59.076782176271081" lon="30.008926363661885">
        <ele>77.519999999999996</ele>
        <time>2026-04-25T12:27:50Z</time>
      </trkpt>
      <trkpt lat="59.076718641445041" lon="30.008964333683252">
        <ele>77.519999999999996</ele>
        <time>2026-04-25T12:27:58Z</time>
      </trkpt>
      <trkpt lat="59.076700704172254" lon="30.008973302319646">
        <ele>77.519999999999996</ele>
        <time>2026-04-25T12:28:00Z</time>
      </trkpt>
      <trkpt lat="59.076623674482107" lon="30.009005069732666">
        <ele>77.519999999999996</ele>
        <time>2026-04-25T12:28:09Z</time>
      </trkpt>
      <trkpt lat="59.076595595106483" lon="30.009046224877238">
        <ele>77.519999999999996</ele>
        <time>2026-04-25T12:28:13Z</time>
      </trkpt>
      <trkpt lat="59.076572628691792" lon="30.009078998118639">
        <ele>77.519999999999996</ele>
        <time>2026-04-25T12:28:21Z</time>
      </trkpt>
      <trkpt lat="59.076598864048719" lon="30.009012781083584">
        <ele>77.519999999999996</ele>
        <time>2026-04-25T12:28:48Z</time>
      </trkpt>
      <trkpt lat="59.07656273804605" lon="30.008880011737347">
        <ele>77.040000000000006</ele>
        <time>2026-04-25T12:28:58Z</time>
      </trkpt>
      <trkpt lat="59.07654169946909" lon="30.008826954290271">
        <ele>77.040000000000006</ele>
        <time>2026-04-25T12:29:08Z</time>
      </trkpt>
      <trkpt lat="59.076536502689123" lon="30.008814297616482">
        <ele>77.040000000000006</ele>
        <time>2026-04-25T12:29:09Z</time>
      </trkpt>
      <trkpt lat="59.07647917047143" lon="30.008636601269245">
        <ele>77.040000000000006</ele>
        <time>2026-04-25T12:29:19Z</time>
      </trkpt>
      <trkpt lat="59.076464083045721" lon="30.008525205776095">
        <ele>77.040000000000006</ele>
        <time>2026-04-25T12:29:29Z</time>
      </trkpt>
      <trkpt lat="59.076422927901149" lon="30.008454713970423">
        <ele>77.040000000000006</ele>
        <time>2026-04-25T12:29:38Z</time>
      </trkpt>
      <trkpt lat="59.07635654322803" lon="30.008360166102648">
        <ele>77.040000000000006</ele>
        <time>2026-04-25T12:29:48Z</time>
      </trkpt>
      <trkpt lat="59.076317818835378" lon="30.008256062865257">
        <ele>77.040000000000006</ele>
        <time>2026-04-25T12:29:57Z</time>
      </trkpt>
      <trkpt lat="59.076310191303492" lon="30.008138632401824">
        <ele>77.040000000000006</ele>
        <time>2026-04-25T12:30:04Z</time>
      </trkpt>
      <trkpt lat="59.076297534629703" lon="30.008051544427872">
        <ele>77.040000000000006</ele>
        <time>2026-04-25T12:30:12Z</time>
      </trkpt>
      <trkpt lat="59.076268281787634" lon="30.007980465888977">
        <ele>76.560000000000002</ele>
        <time>2026-04-25T12:30:19Z</time>
      </trkpt>
      <trkpt lat="59.076234670355916" lon="30.007881307974458">
        <ele>76.560000000000002</ele>
        <time>2026-04-25T12:30:26Z</time>
      </trkpt>
      <trkpt lat="59.07619628123939" lon="30.007750047370791">
        <ele>76.560000000000002</ele>
        <time>2026-04-25T12:30:36Z</time>
      </trkpt>
      <trkpt lat="59.076166860759258" lon="30.007611745968461">
        <ele>76.560000000000002</ele>
        <time>2026-04-25T12:30:48Z</time>
      </trkpt>
      <trkpt lat="59.076171051710844" lon="30.007422566413879">
        <ele>76.560000000000002</ele>
        <time>2026-04-25T12:31:00Z</time>
      </trkpt>
      <trkpt lat="59.0761698782444" lon="30.007293904200196">
        <ele>76.560000000000002</ele>
        <time>2026-04-25T12:31:09Z</time>
      </trkpt>
      <trkpt lat="59.076142217963934" lon="30.007176557555795">
        <ele>76.560000000000002</ele>
        <time>2026-04-25T12:31:19Z</time>
      </trkpt>
      <trkpt lat="59.076119503006339" lon="30.007104137912393">
        <ele>76.560000000000002</ele>
        <time>2026-04-25T12:31:26Z</time>
      </trkpt>
      <trkpt lat="59.076095698401332" lon="30.007043452933431">
        <ele>77.040000000000006</ele>
        <time>2026-04-25T12:31:36Z</time>
      </trkpt>
      <trkpt lat="59.076061164960265" lon="30.006978074088693">
        <ele>76.560000000000002</ele>
        <time>2026-04-25T12:32:02Z</time>
      </trkpt>
      <trkpt lat="59.076074492186308" lon="30.007011350244284">
        <ele>76.560000000000002</ele>
        <time>2026-04-25T12:32:20Z</time>
      </trkpt>
      <trkpt lat="59.076063260436058" lon="30.007000453770161">
        <ele>76.560000000000002</ele>
        <time>2026-04-25T12:32:29Z</time>
      </trkpt>
      <trkpt lat="59.076075665652752" lon="30.007010512053967">
        <ele>77.040000000000006</ele>
        <time>2026-04-25T12:32:42Z</time>
      </trkpt>
      <trkpt lat="59.076050771400332" lon="30.007058875635266">
        <ele>77.040000000000006</ele>
        <time>2026-04-25T12:32:55Z</time>
      </trkpt>
      <trkpt lat="59.075993523001671" lon="30.007032556459308">
        <ele>77.040000000000006</ele>
        <time>2026-04-25T12:33:03Z</time>
      </trkpt>
      <trkpt lat="59.075958486646414" lon="30.007024258375168">
        <ele>77.040000000000006</ele>
        <time>2026-04-25T12:33:10Z</time>
      </trkpt>
      <trkpt lat="59.075902411714196" lon="30.007087793201208">
        <ele>77.040000000000006</ele>
        <time>2026-04-25T12:33:20Z</time>
      </trkpt>
      <trkpt lat="59.07587818801403" lon="30.007066503167152">
        <ele>77.040000000000006</ele>
        <time>2026-04-25T12:33:29Z</time>
      </trkpt>
      <trkpt lat="59.075869889929891" lon="30.007068682461977">
        <ele>77.040000000000006</ele>
        <time>2026-04-25T12:33:31Z</time>
      </trkpt>
      <trkpt lat="59.075811300426722" lon="30.007068011909723">
        <ele>76.560000000000002</ele>
        <time>2026-04-25T12:33:39Z</time>
      </trkpt>
      <trkpt lat="59.075791435316205" lon="30.007040183991194">
        <ele>76.560000000000002</ele>
        <time>2026-04-25T12:33:45Z</time>
      </trkpt>
      <trkpt lat="59.075730331242085" lon="30.00696131028235">
        <ele>76.560000000000002</ele>
        <time>2026-04-25T12:33:55Z</time>
      </trkpt>
      <trkpt lat="59.075665455311537" lon="30.006929626688361">
        <ele>76.560000000000002</ele>
        <time>2026-04-25T12:34:05Z</time>
      </trkpt>
      <trkpt lat="59.075613990426064" lon="30.006941864266992">
        <ele>76.560000000000002</ele>
        <time>2026-04-25T12:34:18Z</time>
      </trkpt>
      <trkpt lat="59.075571745634079" lon="30.006957538425922">
        <ele>76.560000000000002</ele>
        <time>2026-04-25T12:34:27Z</time>
      </trkpt>
      <trkpt lat="59.075583228841424" lon="30.006963824853301">
        <ele>76.560000000000002</ele>
        <time>2026-04-25T12:34:35Z</time>
      </trkpt>
      <trkpt lat="59.075583564117551" lon="30.006974805146456">
        <ele>77.040000000000006</ele>
        <time>2026-04-25T12:34:43Z</time>
      </trkpt>
      <trkpt lat="59.075588593259454" lon="30.006974721327424">
        <ele>77.040000000000006</ele>
        <time>2026-04-25T12:34:49Z</time>
      </trkpt>
      <trkpt lat="59.075590940192342" lon="30.006984947249293">
        <ele>77.040000000000006</ele>
        <time>2026-04-25T12:34:54Z</time>
      </trkpt>
      <trkpt lat="59.075595550239086" lon="30.007075220346451">
        <ele>76.560000000000002</ele>
        <time>2026-04-25T12:35:02Z</time>
      </trkpt>
      <trkpt lat="59.075611978769302" lon="30.007152836769819">
        <ele>76.560000000000002</ele>
        <time>2026-04-25T12:35:08Z</time>
      </trkpt>
      <trkpt lat="59.075619354844093" lon="30.007221065461636">
        <ele>76.560000000000002</ele>
        <time>2026-04-25T12:35:13Z</time>
      </trkpt>
      <trkpt lat="59.075676184147596" lon="30.007308991625905">
        <ele>76.560000000000002</ele>
        <time>2026-04-25T12:35:20Z</time>
      </trkpt>
      <trkpt lat="59.075678531080484" lon="30.007331958040595">
        <ele>76.560000000000002</ele>
        <time>2026-04-25T12:35:23Z</time>
      </trkpt>
      <trkpt lat="59.07567635178566" lon="30.007402701303363">
        <ele>76.560000000000002</ele>
        <time>2026-04-25T12:35:27Z</time>
      </trkpt>
      <trkpt lat="59.075676687061787" lon="30.007442766800523">
        <ele>76.560000000000002</ele>
        <time>2026-04-25T12:35:29Z</time>
      </trkpt>
      <trkpt lat="59.075688002631068" lon="30.007516527548432">
        <ele>76.560000000000002</ele>
        <time>2026-04-25T12:35:35Z</time>
      </trkpt>
      <trkpt lat="59.075695965439081" lon="30.007554329931736">
        <ele>76.560000000000002</ele>
        <time>2026-04-25T12:35:38Z</time>
      </trkpt>
      <trkpt lat="59.07570862211287" lon="30.007654493674636">
        <ele>76.560000000000002</ele>
        <time>2026-04-25T12:35:45Z</time>
      </trkpt>
      <trkpt lat="59.075723709538579" lon="30.007744431495667">
        <ele>76.560000000000002</ele>
        <time>2026-04-25T12:35:52Z</time>
      </trkpt>
      <trkpt lat="59.075725469738245" lon="30.007753735408187">
        <ele>76.560000000000002</ele>
        <time>2026-04-25T12:35:53Z</time>
      </trkpt>
      <trkpt lat="59.075716836377978" lon="30.007794639095664">
        <ele>76.560000000000002</ele>
        <time>2026-04-25T12:35:57Z</time>
      </trkpt>
      <trkpt lat="59.075723793357611" lon="30.00784425996244">
        <ele>76.560000000000002</ele>
        <time>2026-04-25T12:36:02Z</time>
      </trkpt>
      <trkpt lat="59.075752794742584" lon="30.007939897477627">
        <ele>76.560000000000002</ele>
        <time>2026-04-25T12:36:10Z</time>
      </trkpt>
      <trkpt lat="59.075762098655105" lon="30.007979292422533">
        <ele>76.560000000000002</ele>
        <time>2026-04-25T12:36:14Z</time>
      </trkpt>
      <trkpt lat="59.075782969594002" lon="30.008101752027869">
        <ele>76.079999999999998</ele>
        <time>2026-04-25T12:36:21Z</time>
      </trkpt>
      <trkpt lat="59.07579705119133" lon="30.008190432563424">
        <ele>76.079999999999998</ele>
        <time>2026-04-25T12:36:26Z</time>
      </trkpt>
      <trkpt lat="59.075815323740244" lon="30.00826695933938">
        <ele>76.079999999999998</ele>
        <time>2026-04-25T12:36:31Z</time>
      </trkpt>
      <trkpt lat="59.075839463621378" lon="30.008370392024517">
        <ele>76.079999999999998</ele>
        <time>2026-04-25T12:36:39Z</time>
      </trkpt>
      <trkpt lat="59.075840469449759" lon="30.008387826383114">
        <ele>76.079999999999998</ele>
        <time>2026-04-25T12:36:40Z</time>
      </trkpt>
      <trkpt lat="59.075856311246753" lon="30.008402494713664">
        <ele>76.079999999999998</ele>
        <time>2026-04-25T12:36:42Z</time>
      </trkpt>
      <trkpt lat="59.0758693870157" lon="30.008436441421509">
        <ele>76.079999999999998</ele>
        <time>2026-04-25T12:36:45Z</time>
      </trkpt>
      <trkpt lat="59.075862765312195" lon="30.008503161370754">
        <ele>76.079999999999998</ele>
        <time>2026-04-25T12:36:48Z</time>
      </trkpt>
      <trkpt lat="59.07587232068181" lon="30.008557979017496">
        <ele>76.079999999999998</ele>
        <time>2026-04-25T12:36:53Z</time>
      </trkpt>
      <trkpt lat="59.075870225206017" lon="30.00857038423419">
        <ele>76.079999999999998</ele>
        <time>2026-04-25T12:36:55Z</time>
      </trkpt>
      <trkpt lat="59.075912889093161" lon="30.008623776957393">
        <ele>76.079999999999998</ele>
        <time>2026-04-25T12:37:00Z</time>
      </trkpt>
      <trkpt lat="59.075925294309855" lon="30.00866224989295">
        <ele>76.079999999999998</ele>
        <time>2026-04-25T12:37:03Z</time>
      </trkpt>
      <trkpt lat="59.075913978740573" lon="30.00872285105288">
        <ele>76.079999999999998</ele>
        <time>2026-04-25T12:37:07Z</time>
      </trkpt>
      <trkpt lat="59.075944069772959" lon="30.008756630122662">
        <ele>76.079999999999998</ele>
        <time>2026-04-25T12:37:11Z</time>
      </trkpt>
      <trkpt lat="59.075995367020369" lon="30.008820751681924">
        <ele>76.079999999999998</ele>
        <time>2026-04-25T12:37:19Z</time>
      </trkpt>
      <trkpt lat="59.076001569628716" lon="30.00885377638042">
        <ele>76.079999999999998</ele>
        <time>2026-04-25T12:37:22Z</time>
      </trkpt>
      <trkpt lat="59.076028894633055" lon="30.008946480229497">
        <ele>76.079999999999998</ele>
        <time>2026-04-25T12:37:28Z</time>
      </trkpt>
      <trkpt lat="59.076050855219364" lon="30.009045051410794">
        <ele>76.079999999999998</ele>
        <time>2026-04-25T12:37:36Z</time>
      </trkpt>
      <trkpt lat="59.076053202152252" lon="30.009089224040508">
        <ele>75.599999999999994</ele>
        <time>2026-04-25T12:37:40Z</time>
      </trkpt>
      <trkpt lat="59.076052028685808" lon="30.009100874885917">
        <ele>75.599999999999994</ele>
        <time>2026-04-25T12:37:44Z</time>
      </trkpt>
      <trkpt lat="59.07605504617095" lon="30.009116549044847">
        <ele>75.599999999999994</ele>
        <time>2026-04-25T12:37:48Z</time>
      </trkpt>
      <trkpt lat="59.076058063656092" lon="30.009127864614129">
        <ele>75.599999999999994</ele>
        <time>2026-04-25T12:37:52Z</time>
      </trkpt>
      <trkpt lat="59.076076755300164" lon="30.009153177961707">
        <ele>75.599999999999994</ele>
        <time>2026-04-25T12:37:55Z</time>
      </trkpt>
      <trkpt lat="59.076078683137894" lon="30.009205145761371">
        <ele>75.599999999999994</ele>
        <time>2026-04-25T12:37:59Z</time>
      </trkpt>
      <trkpt lat="59.076101062819362" lon="30.009236996993423">
        <ele>75.599999999999994</ele>
        <time>2026-04-25T12:38:02Z</time>
      </trkpt>
      <trkpt lat="59.076165100559592" lon="30.009253425523639">
        <ele>75.599999999999994</ele>
        <time>2026-04-25T12:38:10Z</time>
      </trkpt>
      <trkpt lat="59.07622218132019" lon="30.009305728599429">
        <ele>75.599999999999994</ele>
        <time>2026-04-25T12:38:18Z</time>
      </trkpt>
      <trkpt lat="59.076207093894482" lon="30.009411843493581">
        <ele>75.599999999999994</ele>
        <time>2026-04-25T12:38:25Z</time>
      </trkpt>
      <trkpt lat="59.076176751405001" lon="30.009463978931308">
        <ele>75.599999999999994</ele>
        <time>2026-04-25T12:38:43Z</time>
      </trkpt>
      <trkpt lat="59.076130734756589" lon="30.009469594806433">
        <ele>76.079999999999998</ele>
        <time>2026-04-25T12:38:55Z</time>
      </trkpt>
      <trkpt lat="59.076050519943237" lon="30.009464398026466">
        <ele>76.079999999999998</ele>
        <time>2026-04-25T12:39:05Z</time>
      </trkpt>
      <trkpt lat="59.076043395325541" lon="30.009466409683228">
        <ele>76.079999999999998</ele>
        <time>2026-04-25T12:39:06Z</time>
      </trkpt>
      <trkpt lat="59.075962929055095" lon="30.009448640048504">
        <ele>76.079999999999998</ele>
        <time>2026-04-25T12:39:16Z</time>
      </trkpt>
      <trkpt lat="59.075931161642075" lon="30.009457608684897">
        <ele>76.079999999999998</ele>
        <time>2026-04-25T12:39:21Z</time>
      </trkpt>
      <trkpt lat="59.075897885486484" lon="30.009457441046834">
        <ele>76.079999999999998</ele>
        <time>2026-04-25T12:39:25Z</time>
      </trkpt>
      <trkpt lat="59.075765619054437" lon="30.009465990588069">
        <ele>76.079999999999998</ele>
        <time>2026-04-25T12:39:42Z</time>
      </trkpt>
      <trkpt lat="59.075659420341253" lon="30.009482502937317">
        <ele>76.079999999999998</ele>
        <time>2026-04-25T12:39:54Z</time>
      </trkpt>
      <trkpt lat="59.075589766725898" lon="30.009443778544664">
        <ele>76.079999999999998</ele>
        <time>2026-04-25T12:40:07Z</time>
      </trkpt>
      <trkpt lat="59.075594879686832" lon="30.009438078850508">
        <ele>76.079999999999998</ele>
        <time>2026-04-25T12:40:23Z</time>
      </trkpt>
      <trkpt lat="59.075588509440422" lon="30.009416118264198">
        <ele>76.079999999999998</ele>
        <time>2026-04-25T12:40:42Z</time>
      </trkpt>
      <trkpt lat="59.075588593259454" lon="30.00942156650126">
        <ele>75.599999999999994</ele>
        <time>2026-04-25T12:41:12Z</time>
      </trkpt>
      <trkpt lat="59.075661934912205" lon="30.009386111050844">
        <ele>75.599999999999994</ele>
        <time>2026-04-25T12:41:27Z</time>
      </trkpt>
      <trkpt lat="59.075676184147596" lon="30.009330958127975">
        <ele>75.599999999999994</ele>
        <time>2026-04-25T12:41:42Z</time>
      </trkpt>
      <trkpt lat="59.075653972104192" lon="30.009304219856858">
        <ele>75.599999999999994</ele>
        <time>2026-04-25T12:41:59Z</time>
      </trkpt>
      <trkpt lat="59.075693031772971" lon="30.009274212643504">
        <ele>75.599999999999994</ele>
        <time>2026-04-25T12:42:42Z</time>
      </trkpt>
      <trkpt lat="59.075700575485826" lon="30.009262561798096">
        <ele>75.599999999999994</ele>
        <time>2026-04-25T12:43:09Z</time>
      </trkpt>
      <trkpt lat="59.075656402856112" lon="30.009353840723634">
        <ele>75.599999999999994</ele>
        <time>2026-04-25T12:43:45Z</time>
      </trkpt>
      <trkpt lat="59.0756915230304" lon="30.009262058883905">
        <ele>75.599999999999994</ele>
        <time>2026-04-25T12:44:18Z</time>
      </trkpt>
      <trkpt lat="59.07563871704042" lon="30.009305477142334">
        <ele>75.599999999999994</ele>
        <time>2026-04-25T12:44:43Z</time>
      </trkpt>
      <trkpt lat="59.075648272410035" lon="30.009327437728643">
        <ele>75.599999999999994</ele>
        <time>2026-04-25T12:45:03Z</time>
      </trkpt>
      <trkpt lat="59.075679536908865" lon="30.009339423850179">
        <ele>75.599999999999994</ele>
        <time>2026-04-25T12:45:18Z</time>
      </trkpt>
      <trkpt lat="59.075614577159286" lon="30.009297765791416">
        <ele>75.599999999999994</ele>
        <time>2026-04-25T12:45:42Z</time>
      </trkpt>
      <trkpt lat="59.075655648484826" lon="30.009257365018129">
        <ele>75.599999999999994</ele>
        <time>2026-04-25T12:46:01Z</time>
      </trkpt>
      <trkpt lat="59.075664114207029" lon="30.00923590734601">
        <ele>75.599999999999994</ele>
        <time>2026-04-25T12:46:15Z</time>
      </trkpt>
      <trkpt lat="59.075629329308867" lon="30.009196177124977">
        <ele>76.079999999999998</ele>
        <time>2026-04-25T12:46:34Z</time>
      </trkpt>
      <trkpt lat="59.075663527473807" lon="30.009166337549686">
        <ele>76.079999999999998</ele>
        <time>2026-04-25T12:46:58Z</time>
      </trkpt>
      <trkpt lat="59.075658833608031" lon="30.009110178798437">
        <ele>76.079999999999998</ele>
        <time>2026-04-25T12:47:17Z</time>
      </trkpt>
      <trkpt lat="59.075732761994004" lon="30.009205648675561">
        <ele>76.079999999999998</ele>
        <time>2026-04-25T12:47:55Z</time>
      </trkpt>
      <trkpt lat="59.075743155553937" lon="30.00926080159843">
        <ele>76.079999999999998</ele>
        <time>2026-04-25T12:48:13Z</time>
      </trkpt>
      <trkpt lat="59.075703676789999" lon="30.009308662265539">
        <ele>76.079999999999998</ele>
        <time>2026-04-25T12:48:34Z</time>
      </trkpt>
      <trkpt lat="59.075663527473807" lon="30.009317798539996">
        <ele>76.079999999999998</ele>
        <time>2026-04-25T12:49:00Z</time>
      </trkpt>
      <trkpt lat="59.075637040659785" lon="30.009293491020799">
        <ele>76.560000000000002</ele>
        <time>2026-04-25T12:49:13Z</time>
      </trkpt>
      <trkpt lat="59.075622539967299" lon="30.009272284805775">
        <ele>76.560000000000002</ele>
        <time>2026-04-25T12:49:41Z</time>
      </trkpt>
      <trkpt lat="59.075623042881489" lon="30.009363731369376">
        <ele>76.560000000000002</ele>
        <time>2026-04-25T12:50:12Z</time>
      </trkpt>
      <trkpt lat="59.075600244104862" lon="30.009338669478893">
        <ele>76.560000000000002</ele>
        <time>2026-04-25T12:50:19Z</time>
      </trkpt>
      <trkpt lat="59.075599908828735" lon="30.0093331374228">
        <ele>76.560000000000002</ele>
        <time>2026-04-25T12:50:20Z</time>
      </trkpt>
      <trkpt lat="59.075602926313877" lon="30.009321318939328">
        <ele>76.560000000000002</ele>
        <time>2026-04-25T12:50:24Z</time>
      </trkpt>
      <trkpt lat="59.075597310438752" lon="30.00932433642447">
        <ele>76.560000000000002</ele>
        <time>2026-04-25T12:50:26Z</time>
      </trkpt>
      <trkpt lat="59.07558842562139" lon="30.00929944217205">
        <ele>76.560000000000002</ele>
        <time>2026-04-25T12:50:31Z</time>
      </trkpt>
      <trkpt lat="59.075567051768303" lon="30.009330119937658">
        <ele>76.560000000000002</ele>
        <time>2026-04-25T12:50:35Z</time>
      </trkpt>
      <trkpt lat="59.075625725090504" lon="30.009271698072553">
        <ele>76.560000000000002</ele>
        <time>2026-04-25T12:50:43Z</time>
      </trkpt>
      <trkpt lat="59.075616672635078" lon="30.009245211258531">
        <ele>76.560000000000002</ele>
        <time>2026-04-25T12:50:55Z</time>
      </trkpt>
      <trkpt lat="59.075576774775982" lon="30.00921344384551">
        <ele>76.560000000000002</ele>
        <time>2026-04-25T12:51:01Z</time>
      </trkpt>
      <trkpt lat="59.075529249384999" lon="30.009113028645515">
        <ele>76.560000000000002</ele>
        <time>2026-04-25T12:51:10Z</time>
      </trkpt>
      <trkpt lat="59.075496895238757" lon="30.009013786911964">
        <ele>76.560000000000002</ele>
        <time>2026-04-25T12:51:18Z</time>
      </trkpt>
      <trkpt lat="59.075453728437424" lon="30.008945306763053">
        <ele>76.560000000000002</ele>
        <time>2026-04-25T12:51:26Z</time>
      </trkpt>
      <trkpt lat="59.075432857498527" lon="30.008850088343024">
        <ele>76.560000000000002</ele>
        <time>2026-04-25T12:51:34Z</time>
      </trkpt>
      <trkpt lat="59.075438305735588" lon="30.0088254455477">
        <ele>76.560000000000002</ele>
        <time>2026-04-25T12:51:36Z</time>
      </trkpt>
      <trkpt lat="59.07545942813158" lon="30.008798372000456">
        <ele>76.560000000000002</ele>
        <time>2026-04-25T12:51:41Z</time>
      </trkpt>
      <trkpt lat="59.075421458110213" lon="30.008710781112313">
        <ele>76.560000000000002</ele>
        <time>2026-04-25T12:51:49Z</time>
      </trkpt>
      <trkpt lat="59.075371585786343" lon="30.008672391995788">
        <ele>76.560000000000002</ele>
        <time>2026-04-25T12:51:56Z</time>
      </trkpt>
      <trkpt lat="59.075334286317229" lon="30.008538197726011">
        <ele>76.560000000000002</ele>
        <time>2026-04-25T12:52:06Z</time>
      </trkpt>
      <trkpt lat="59.075319953262806" lon="30.008482290431857">
        <ele>76.560000000000002</ele>
        <time>2026-04-25T12:52:14Z</time>
      </trkpt>
      <trkpt lat="59.075335962697864" lon="30.008474914357066">
        <ele>76.560000000000002</ele>
        <time>2026-04-25T12:52:26Z</time>
      </trkpt>
      <trkpt lat="59.075286760926247" lon="30.008441722020507">
        <ele>76.560000000000002</ele>
        <time>2026-04-25T12:53:00Z</time>
      </trkpt>
      <trkpt lat="59.075253987684846" lon="30.008382964879274">
        <ele>76.560000000000002</ele>
        <time>2026-04-25T12:53:07Z</time>
      </trkpt>
      <trkpt lat="59.075242169201374" lon="30.008273832499981">
        <ele>76.079999999999998</ele>
        <time>2026-04-25T12:53:15Z</time>
      </trkpt>
      <trkpt lat="59.075229177251458" lon="30.008092531934381">
        <ele>76.079999999999998</ele>
        <time>2026-04-25T12:53:27Z</time>
      </trkpt>
      <trkpt lat="59.07522146590054" lon="30.007963953539729">
        <ele>76.079999999999998</ele>
        <time>2026-04-25T12:53:36Z</time>
      </trkpt>
      <trkpt lat="59.075215682387352" lon="30.007837554439902">
        <ele>76.560000000000002</ele>
        <time>2026-04-25T12:53:45Z</time>
      </trkpt>
      <trkpt lat="59.075209479779005" lon="30.007800925523043">
        <ele>76.560000000000002</ele>
        <time>2026-04-25T12:53:48Z</time>
      </trkpt>
      <trkpt lat="59.075186010450125" lon="30.007691290229559">
        <ele>76.560000000000002</ele>
        <time>2026-04-25T12:53:58Z</time>
      </trkpt>
      <trkpt lat="59.07512909732759" lon="30.007585091516376">
        <ele>76.560000000000002</ele>
        <time>2026-04-25T12:54:10Z</time>
      </trkpt>
      <trkpt lat="59.075096156448126" lon="30.0075354706496">
        <ele>76.560000000000002</ele>
        <time>2026-04-25T12:54:17Z</time>
      </trkpt>
      <trkpt lat="59.075068077072501" lon="30.007490376010537">
        <ele>76.560000000000002</ele>
        <time>2026-04-25T12:54:24Z</time>
      </trkpt>
      <trkpt lat="59.075020048767328" lon="30.007439916953444">
        <ele>76.560000000000002</ele>
        <time>2026-04-25T12:54:33Z</time>
      </trkpt>
      <trkpt lat="59.074998172000051" lon="30.007494147866964">
        <ele>76.079999999999998</ele>
        <time>2026-04-25T12:55:00Z</time>
      </trkpt>
      <trkpt lat="59.074950143694878" lon="30.007507475093007">
        <ele>76.079999999999998</ele>
        <time>2026-04-25T12:55:08Z</time>
      </trkpt>
      <trkpt lat="59.074881663545966" lon="30.007559526711702">
        <ele>76.079999999999998</ele>
        <time>2026-04-25T12:55:18Z</time>
      </trkpt>
      <trkpt lat="59.074827516451478" lon="30.007628593593836">
        <ele>76.079999999999998</ele>
        <time>2026-04-25T12:55:28Z</time>
      </trkpt>
      <trkpt lat="59.074783092364669" lon="30.007717106491327">
        <ele>76.079999999999998</ele>
        <time>2026-04-25T12:55:38Z</time>
      </trkpt>
      <trkpt lat="59.074736991897225" lon="30.007729344069958">
        <ele>76.079999999999998</ele>
        <time>2026-04-25T12:55:46Z</time>
      </trkpt>
      <trkpt lat="59.074671613052487" lon="30.00770403072238">
        <ele>76.079999999999998</ele>
        <time>2026-04-25T12:55:57Z</time>
      </trkpt>
      <trkpt lat="59.074590560048819" lon="30.007705204188824">
        <ele>76.079999999999998</ele>
        <time>2026-04-25T12:56:08Z</time>
      </trkpt>
      <trkpt lat="59.074564492329955" lon="30.007727080956101">
        <ele>76.079999999999998</ele>
        <time>2026-04-25T12:56:17Z</time>
      </trkpt>
      <trkpt lat="59.07455250620842" lon="30.00771626830101">
        <ele>75.599999999999994</ele>
        <time>2026-04-25T12:56:46Z</time>
      </trkpt>
      <trkpt lat="59.074557451531291" lon="30.007740324363112">
        <ele>76.079999999999998</ele>
        <time>2026-04-25T12:57:11Z</time>
      </trkpt>
      <trkpt lat="59.07458234578371" lon="30.007855240255594">
        <ele>76.079999999999998</ele>
        <time>2026-04-25T12:57:22Z</time>
      </trkpt>
      <trkpt lat="59.074590727686882" lon="30.007962193340063">
        <ele>76.079999999999998</ele>
        <time>2026-04-25T12:57:30Z</time>
      </trkpt>
      <trkpt lat="59.074611011892557" lon="30.008100662380457">
        <ele>76.079999999999998</ele>
        <time>2026-04-25T12:57:40Z</time>
      </trkpt>
      <trkpt lat="59.074650155380368" lon="30.008185906335711">
        <ele>76.079999999999998</ele>
        <time>2026-04-25T12:57:48Z</time>
      </trkpt>
      <trkpt lat="59.074688879773021" lon="30.008281543850899">
        <ele>76.079999999999998</ele>
        <time>2026-04-25T12:57:57Z</time>
      </trkpt>
      <trkpt lat="59.074724167585373" lon="30.008415067568421">
        <ele>76.079999999999998</ele>
        <time>2026-04-25T12:58:07Z</time>
      </trkpt>
      <trkpt lat="59.074737830087543" lon="30.008536018431187">
        <ele>76.079999999999998</ele>
        <time>2026-04-25T12:58:16Z</time>
      </trkpt>
      <trkpt lat="59.074728861451149" lon="30.008630231022835">
        <ele>76.079999999999998</ele>
        <time>2026-04-25T12:58:23Z</time>
      </trkpt>
      <trkpt lat="59.074759539216757" lon="30.008734837174416">
        <ele>76.079999999999998</ele>
        <time>2026-04-25T12:58:31Z</time>
      </trkpt>
      <trkpt lat="59.074811842292547" lon="30.008781356737018">
        <ele>76.079999999999998</ele>
        <time>2026-04-25T12:58:39Z</time>
      </trkpt>
      <trkpt lat="59.07487453892827" lon="30.008881688117981">
        <ele>75.599999999999994</ele>
        <time>2026-04-25T12:58:50Z</time>
      </trkpt>
      <trkpt lat="59.074906725436449" lon="30.008965590968728">
        <ele>75.599999999999994</ele>
        <time>2026-04-25T12:58:58Z</time>
      </trkpt>
      <trkpt lat="59.074905635789037" lon="30.008996771648526">
        <ele>75.599999999999994</ele>
        <time>2026-04-25T12:59:06Z</time>
      </trkpt>
      <trkpt lat="59.074900774285197" lon="30.009021079167724">
        <ele>76.079999999999998</ele>
        <time>2026-04-25T12:59:26Z</time>
      </trkpt>
      <trkpt lat="59.074921980500221" lon="30.009110849350691">
        <ele>76.079999999999998</ele>
        <time>2026-04-25T12:59:42Z</time>
      </trkpt>
      <trkpt lat="59.074965817853808" lon="30.009144796058536">
        <ele>76.079999999999998</ele>
        <time>2026-04-25T12:59:51Z</time>
      </trkpt>
      <trkpt lat="59.074994400143623" lon="30.009193914011121">
        <ele>76.079999999999998</ele>
        <time>2026-04-25T12:59:58Z</time>
      </trkpt>
      <trkpt lat="59.075030945241451" lon="30.009255604818463">
        <ele>76.079999999999998</ele>
        <time>2026-04-25T13:00:05Z</time>
      </trkpt>
      <trkpt lat="59.075056090950966" lon="30.009310338646173">
        <ele>76.079999999999998</ele>
        <time>2026-04-25T13:00:11Z</time>
      </trkpt>
      <trkpt lat="59.075080314651132" lon="30.009402791038156">
        <ele>76.079999999999998</ele>
        <time>2026-04-25T13:00:20Z</time>
      </trkpt>
      <trkpt lat="59.07508903183043" lon="30.009421231225133">
        <ele>76.079999999999998</ele>
        <time>2026-04-25T13:00:32Z</time>
      </trkpt>
      <trkpt lat="59.07512960024178" lon="30.009480407461524">
        <ele>76.079999999999998</ele>
        <time>2026-04-25T13:00:53Z</time>
      </trkpt>
      <trkpt lat="59.075136473402381" lon="30.00953983515501">
        <ele>76.079999999999998</ele>
        <time>2026-04-25T13:01:01Z</time>
      </trkpt>
      <trkpt lat="59.075106717646122" lon="30.009595826268196">
        <ele>76.079999999999998</ele>
        <time>2026-04-25T13:01:09Z</time>
      </trkpt>
      <trkpt lat="59.07507972791791" lon="30.009633544832468">
        <ele>76.079999999999998</ele>
        <time>2026-04-25T13:01:17Z</time>
      </trkpt>
      <trkpt lat="59.075036896392703" lon="30.009683165699244">
        <ele>76.079999999999998</ele>
        <time>2026-04-25T13:01:28Z</time>
      </trkpt>
      <trkpt lat="59.074985599145293" lon="30.009714346379042">
        <ele>75.599999999999994</ele>
        <time>2026-04-25T13:01:36Z</time>
      </trkpt>
      <trkpt lat="59.074931452050805" lon="30.009729349985719">
        <ele>75.599999999999994</ele>
        <time>2026-04-25T13:01:46Z</time>
      </trkpt>
      <trkpt lat="59.07489163801074" lon="30.009752819314599">
        <ele>75.599999999999994</ele>
        <time>2026-04-25T13:01:55Z</time>
      </trkpt>
      <trkpt lat="59.074860960245132" lon="30.00974552705884">
        <ele>75.599999999999994</ele>
        <time>2026-04-25T13:02:02Z</time>
      </trkpt>
      <trkpt lat="59.074799101799726" lon="30.009787017479539">
        <ele>75.599999999999994</ele>
        <time>2026-04-25T13:02:12Z</time>
      </trkpt>
      <trkpt lat="59.074762808158994" lon="30.00985256396234">
        <ele>75.599999999999994</ele>
        <time>2026-04-25T13:02:21Z</time>
      </trkpt>
      <trkpt lat="59.074733387678862" lon="30.009887684136629">
        <ele>75.599999999999994</ele>
        <time>2026-04-25T13:02:28Z</time>
      </trkpt>
      <trkpt lat="59.074731459841132" lon="30.009880140423775">
        <ele>75.599999999999994</ele>
        <time>2026-04-25T13:02:41Z</time>
      </trkpt>
      <trkpt lat="59.074714696034789" lon="30.009879972785711">
        <ele>76.079999999999998</ele>
        <time>2026-04-25T13:03:15Z</time>
      </trkpt>
      <trkpt lat="59.074737830087543" lon="30.009828004986048">
        <ele>76.079999999999998</ele>
        <time>2026-04-25T13:03:49Z</time>
      </trkpt>
      <trkpt lat="59.074714109301567" lon="30.009722644463181">
        <ele>76.079999999999998</ele>
        <time>2026-04-25T13:03:58Z</time>
      </trkpt>
      <trkpt lat="59.074652502313256" lon="30.009614769369364">
        <ele>76.079999999999998</ele>
        <time>2026-04-25T13:04:10Z</time>
      </trkpt>
      <trkpt lat="59.074612520635128" lon="30.009543607011437">
        <ele>75.599999999999994</ele>
        <time>2026-04-25T13:04:19Z</time>
      </trkpt>
      <trkpt lat="59.074602127075195" lon="30.009474540129304">
        <ele>75.599999999999994</ele>
        <time>2026-04-25T13:04:25Z</time>
      </trkpt>
      <trkpt lat="59.074556864798069" lon="30.009357864037156">
        <ele>75.599999999999994</ele>
        <time>2026-04-25T13:04:35Z</time>
      </trkpt>
      <trkpt lat="59.074529623612761" lon="30.009229872375727">
        <ele>75.599999999999994</ele>
        <time>2026-04-25T13:04:45Z</time>
      </trkpt>
      <trkpt lat="59.074492994695902" lon="30.009165499359369">
        <ele>75.599999999999994</ele>
        <time>2026-04-25T13:04:53Z</time>
      </trkpt>
      <trkpt lat="59.074448570609093" lon="30.009041363373399">
        <ele>75.599999999999994</ele>
        <time>2026-04-25T13:05:03Z</time>
      </trkpt>
      <trkpt lat="59.074419233947992" lon="30.008922172710299">
        <ele>75.599999999999994</ele>
        <time>2026-04-25T13:05:12Z</time>
      </trkpt>
      <trkpt lat="59.074413450434804" lon="30.00883181579411">
        <ele>75.599999999999994</ele>
        <time>2026-04-25T13:05:20Z</time>
      </trkpt>
      <trkpt lat="59.074376905336976" lon="30.008773310109973">
        <ele>75.599999999999994</ele>
        <time>2026-04-25T13:05:28Z</time>
      </trkpt>
      <trkpt lat="59.074336253106594" lon="30.008670212700963">
        <ele>75.599999999999994</ele>
        <time>2026-04-25T13:05:37Z</time>
      </trkpt>
      <trkpt lat="59.074309095740318" lon="30.008518919348717">
        <ele>75.599999999999994</ele>
        <time>2026-04-25T13:05:48Z</time>
      </trkpt>
      <trkpt lat="59.074278585612774" lon="30.008383048698306">
        <ele>75.599999999999994</ele>
        <time>2026-04-25T13:05:58Z</time>
      </trkpt>
      <trkpt lat="59.074213793501258" lon="30.00830166041851">
        <ele>75.599999999999994</ele>
        <time>2026-04-25T13:06:08Z</time>
      </trkpt>
      <trkpt lat="59.074158892035484" lon="30.00820292159915">
        <ele>75.599999999999994</ele>
        <time>2026-04-25T13:06:17Z</time>
      </trkpt>
      <trkpt lat="59.074128717184067" lon="30.008033607155085">
        <ele>75.599999999999994</ele>
        <time>2026-04-25T13:06:29Z</time>
      </trkpt>
      <trkpt lat="59.074103990569711" lon="30.007937466725707">
        <ele>75.599999999999994</ele>
        <time>2026-04-25T13:06:38Z</time>
      </trkpt>
      <trkpt lat="59.074075743556023" lon="30.007851216942072">
        <ele>75.599999999999994</ele>
        <time>2026-04-25T13:06:52Z</time>
      </trkpt>
      <trkpt lat="59.074058057740331" lon="30.00776806846261">
        <ele>75.599999999999994</ele>
        <time>2026-04-25T13:07:02Z</time>
      </trkpt>
      <trkpt lat="59.074034672230482" lon="30.007708473131061">
        <ele>75.120000000000005</ele>
        <time>2026-04-25T13:07:10Z</time>
      </trkpt>
      <trkpt lat="59.073999803513288" lon="30.007630856707692">
        <ele>75.120000000000005</ele>
        <time>2026-04-25T13:07:18Z</time>
      </trkpt>
      <trkpt lat="59.07396518625319" lon="30.007501104846597">
        <ele>75.120000000000005</ele>
        <time>2026-04-25T13:07:34Z</time>
      </trkpt>
      <trkpt lat="59.073919923976064" lon="30.007551647722721">
        <ele>75.120000000000005</ele>
        <time>2026-04-25T13:07:49Z</time>
      </trkpt>
      <trkpt lat="59.073858736082911" lon="30.007631946355104">
        <ele>75.599999999999994</ele>
        <time>2026-04-25T13:07:58Z</time>
      </trkpt>
      <trkpt lat="59.073800481855869" lon="30.007730349898338">
        <ele>75.599999999999994</ele>
        <time>2026-04-25T13:08:08Z</time>
      </trkpt>
      <trkpt lat="59.073709454387426" lon="30.007763626053929">
        <ele>75.599999999999994</ele>
        <time>2026-04-25T13:08:19Z</time>
      </trkpt>
      <trkpt lat="59.073656732216477" lon="30.007782066240907">
        <ele>75.599999999999994</ele>
        <time>2026-04-25T13:08:26Z</time>
      </trkpt>
      <trkpt lat="59.073599148541689" lon="30.007818024605513">
        <ele>75.599999999999994</ele>
        <time>2026-04-25T13:08:34Z</time>
      </trkpt>
      <trkpt lat="59.073557322844863" lon="30.007883654907346">
        <ele>75.599999999999994</ele>
        <time>2026-04-25T13:08:42Z</time>
      </trkpt>
      <trkpt lat="59.073498817160726" lon="30.007982729002833">
        <ele>76.079999999999998</ele>
        <time>2026-04-25T13:09:27Z</time>
      </trkpt>
      <trkpt lat="59.073492279276252" lon="30.007930845022202">
        <ele>76.079999999999998</ele>
        <time>2026-04-25T13:09:49Z</time>
      </trkpt>
      <trkpt lat="59.073489345610142" lon="30.008014664053917">
        <ele>76.079999999999998</ele>
        <time>2026-04-25T13:10:10Z</time>
      </trkpt>
      <trkpt lat="59.073575679212809" lon="30.008118348196149">
        <ele>76.079999999999998</ele>
        <time>2026-04-25T13:10:21Z</time>
      </trkpt>
      <trkpt lat="59.073597472161055" lon="30.008136788383126">
        <ele>76.079999999999998</ele>
        <time>2026-04-25T13:10:24Z</time>
      </trkpt>
      <trkpt lat="59.073639800772071" lon="30.008249273523688">
        <ele>76.079999999999998</ele>
        <time>2026-04-25T13:10:33Z</time>
      </trkpt>
      <trkpt lat="59.073669388890266" lon="30.008359663188457">
        <ele>76.079999999999998</ele>
        <time>2026-04-25T13:10:41Z</time>
      </trkpt>
      <trkpt lat="59.073697049170732" lon="30.008480027318001">
        <ele>76.079999999999998</ele>
        <time>2026-04-25T13:10:49Z</time>
      </trkpt>
      <trkpt lat="59.073721943423152" lon="30.008592763915658">
        <ele>76.079999999999998</ele>
        <time>2026-04-25T13:10:57Z</time>
      </trkpt>
      <trkpt lat="59.073748849332333" lon="30.008711703121662">
        <ele>76.079999999999998</ele>
        <time>2026-04-25T13:11:05Z</time>
      </trkpt>
      <trkpt lat="59.073764607310295" lon="30.008781189098954">
        <ele>75.599999999999994</ele>
        <time>2026-04-25T13:11:12Z</time>
      </trkpt>
      <trkpt lat="59.07382101751864" lon="30.008815219625831">
        <ele>75.599999999999994</ele>
        <time>2026-04-25T13:11:37Z</time>
      </trkpt>
      <trkpt lat="59.073797380551696" lon="30.008910102769732">
        <ele>75.599999999999994</ele>
        <time>2026-04-25T13:11:59Z</time>
      </trkpt>
      <trkpt lat="59.073815317824483" lon="30.00892804004252">
        <ele>75.599999999999994</ele>
        <time>2026-04-25T13:12:06Z</time>
      </trkpt>
      <trkpt lat="59.07381565310061" lon="30.009009763598442">
        <ele>75.599999999999994</ele>
        <time>2026-04-25T13:12:14Z</time>
      </trkpt>
      <trkpt lat="59.073846498504281" lon="30.009109927341342">
        <ele>75.599999999999994</ele>
        <time>2026-04-25T13:12:23Z</time>
      </trkpt>
      <trkpt lat="59.073889832943678" lon="30.009205900132656">
        <ele>75.599999999999994</ele>
        <time>2026-04-25T13:12:32Z</time>
      </trkpt>
      <trkpt lat="59.073936520144343" lon="30.00932676717639">
        <ele>75.599999999999994</ele>
        <time>2026-04-25T13:12:42Z</time>
      </trkpt>
      <trkpt lat="59.073966862633824" lon="30.009418046101928">
        <ele>75.599999999999994</ele>
        <time>2026-04-25T13:12:49Z</time>
      </trkpt>
      <trkpt lat="59.073997205123305" lon="30.009534722194076">
        <ele>75.599999999999994</ele>
        <time>2026-04-25T13:12:57Z</time>
      </trkpt>
      <trkpt lat="59.074039366096258" lon="30.009664725512266">
        <ele>75.599999999999994</ele>
        <time>2026-04-25T13:13:07Z</time>
      </trkpt>
      <trkpt lat="59.074074318632483" lon="30.009769583120942">
        <ele>75.599999999999994</ele>
        <time>2026-04-25T13:13:15Z</time>
      </trkpt>
      <trkpt lat="59.074112037196755" lon="30.009858682751656">
        <ele>75.599999999999994</ele>
        <time>2026-04-25T13:13:22Z</time>
      </trkpt>
      <trkpt lat="59.074149001389742" lon="30.009995391592383">
        <ele>75.599999999999994</ele>
        <time>2026-04-25T13:13:32Z</time>
      </trkpt>
      <trkpt lat="59.074159730225801" lon="30.010018441826105">
        <ele>75.599999999999994</ele>
        <time>2026-04-25T13:13:34Z</time>
      </trkpt>
      <trkpt lat="59.074195604771376" lon="30.010079462081194">
        <ele>75.120000000000005</ele>
        <time>2026-04-25T13:13:40Z</time>
      </trkpt>
      <trkpt lat="59.074221672490239" lon="30.010182810947299">
        <ele>75.120000000000005</ele>
        <time>2026-04-25T13:13:47Z</time>
      </trkpt>
      <trkpt lat="59.074246566742659" lon="30.010252129286528">
        <ele>75.120000000000005</ele>
        <time>2026-04-25T13:13:55Z</time>
      </trkpt>
      <trkpt lat="59.074248243123293" lon="30.010270066559315">
        <ele>75.120000000000005</ele>
        <time>2026-04-25T13:14:12Z</time>
      </trkpt>
      <trkpt lat="59.074210189282894" lon="30.01033091917634">
        <ele>75.120000000000005</ele>
        <time>2026-04-25T13:14:21Z</time>
      </trkpt>
      <trkpt lat="59.074146319180727" lon="30.010384144261479">
        <ele>75.120000000000005</ele>
        <time>2026-04-25T13:14:30Z</time>
      </trkpt>
      <trkpt lat="59.074078677222133" lon="30.010392526164651">
        <ele>75.120000000000005</ele>
        <time>2026-04-25T13:14:41Z</time>
      </trkpt>
      <trkpt lat="59.074038024991751" lon="30.010413145646453">
        <ele>75.120000000000005</ele>
        <time>2026-04-25T13:14:51Z</time>
      </trkpt>
      <trkpt lat="59.074036348611116" lon="30.010406691581011">
        <ele>75.120000000000005</ele>
        <time>2026-04-25T13:15:21Z</time>
      </trkpt>
      <trkpt lat="59.07399452291429" lon="30.010443488135934">
        <ele>74.640000000000001</ele>
        <time>2026-04-25T13:15:42Z</time>
      </trkpt>
      <trkpt lat="59.073990331962705" lon="30.010434435680509">
        <ele>74.640000000000001</ele>
        <time>2026-04-25T13:15:43Z</time>
      </trkpt>
      <trkpt lat="59.073935514315963" lon="30.010412894189358">
        <ele>74.640000000000001</ele>
        <time>2026-04-25T13:15:55Z</time>
      </trkpt>
      <trkpt lat="59.073876673355699" lon="30.0104486849159">
        <ele>74.640000000000001</ele>
        <time>2026-04-25T13:16:04Z</time>
      </trkpt>
      <trkpt lat="59.073802158236504" lon="30.01048581674695">
        <ele>74.640000000000001</ele>
        <time>2026-04-25T13:16:13Z</time>
      </trkpt>
      <trkpt lat="59.073762763291597" lon="30.010450864210725">
        <ele>74.640000000000001</ele>
        <time>2026-04-25T13:16:19Z</time>
      </trkpt>
      <trkpt lat="59.073717668652534" lon="30.010447511449456">
        <ele>74.640000000000001</ele>
        <time>2026-04-25T13:16:26Z</time>
      </trkpt>
      <trkpt lat="59.073685817420483" lon="30.010467544198036">
        <ele>74.640000000000001</ele>
        <time>2026-04-25T13:17:10Z</time>
      </trkpt>
      <trkpt lat="59.073635106906295" lon="30.0105004850775">
        <ele>74.159999999999997</ele>
        <time>2026-04-25T13:17:21Z</time>
      </trkpt>
      <trkpt lat="59.073630748316646" lon="30.010458491742611">
        <ele>74.159999999999997</ele>
        <time>2026-04-25T13:17:52Z</time>
      </trkpt>
      <trkpt lat="59.073619600385427" lon="30.010365787893534">
        <ele>74.159999999999997</ele>
        <time>2026-04-25T13:18:00Z</time>
      </trkpt>
      <trkpt lat="59.073619265109301" lon="30.010351957753301">
        <ele>74.159999999999997</ele>
        <time>2026-04-25T13:18:01Z</time>
      </trkpt>
      <trkpt lat="59.073583474382758" lon="30.010209465399384">
        <ele>74.159999999999997</ele>
        <time>2026-04-25T13:18:11Z</time>
      </trkpt>
      <trkpt lat="59.073545839637518" lon="30.010080216452479">
        <ele>74.159999999999997</ele>
        <time>2026-04-25T13:18:20Z</time>
      </trkpt>
      <trkpt lat="59.073516922071576" lon="30.009989524260163">
        <ele>74.159999999999997</ele>
        <time>2026-04-25T13:18:26Z</time>
      </trkpt>
      <trkpt lat="59.073459254577756" lon="30.009877877309918">
        <ele>74.159999999999997</ele>
        <time>2026-04-25T13:18:35Z</time>
      </trkpt>
      <trkpt lat="59.073441233485937" lon="30.009807804599404">
        <ele>74.159999999999997</ele>
        <time>2026-04-25T13:18:40Z</time>
      </trkpt>
      <trkpt lat="59.073415081948042" lon="30.009666988626122">
        <ele>74.640000000000001</ele>
        <time>2026-04-25T13:18:48Z</time>
      </trkpt>
      <trkpt lat="59.07339253462851" lon="30.00962239690125">
        <ele>74.640000000000001</ele>
        <time>2026-04-25T13:18:52Z</time>
      </trkpt>
      <trkpt lat="59.073342997580767" lon="30.009410753846169">
        <ele>74.640000000000001</ele>
        <time>2026-04-25T13:19:05Z</time>
      </trkpt>
      <trkpt lat="59.073287006467581" lon="30.009279325604439">
        <ele>74.640000000000001</ele>
        <time>2026-04-25T13:19:17Z</time>
      </trkpt>
      <trkpt lat="59.073262866586447" lon="30.009091822430491">
        <ele>74.640000000000001</ele>
        <time>2026-04-25T13:19:31Z</time>
      </trkpt>
      <trkpt lat="59.073267057538033" lon="30.009000794962049">
        <ele>75.120000000000005</ele>
        <time>2026-04-25T13:19:41Z</time>
      </trkpt>
      <trkpt lat="59.07325959764421" lon="30.008870456367731">
        <ele>75.120000000000005</ele>
        <time>2026-04-25T13:19:53Z</time>
      </trkpt>
      <trkpt lat="59.073237888514996" lon="30.008825194090605">
        <ele>75.120000000000005</ele>
        <time>2026-04-25T13:20:03Z</time>
      </trkpt>
      <trkpt lat="59.073220705613494" lon="30.008732993155718">
        <ele>75.120000000000005</ele>
        <time>2026-04-25T13:20:13Z</time>
      </trkpt>
      <trkpt lat="59.073154237121344" lon="30.008640037849545">
        <ele>75.120000000000005</ele>
        <time>2026-04-25T13:20:25Z</time>
      </trkpt>
      <trkpt lat="59.073122134432197" lon="30.008519422262907">
        <ele>75.120000000000005</ele>
        <time>2026-04-25T13:20:36Z</time>
      </trkpt>
      <trkpt lat="59.073094977065921" lon="30.008395118638873">
        <ele>75.120000000000005</ele>
        <time>2026-04-25T13:20:46Z</time>
      </trkpt>
      <trkpt lat="59.073065472766757" lon="30.008251704275608">
        <ele>75.120000000000005</ele>
        <time>2026-04-25T13:20:55Z</time>
      </trkpt>
      <trkpt lat="59.073014175519347" lon="30.008126981556416">
        <ele>75.120000000000005</ele>
        <time>2026-04-25T13:21:05Z</time>
      </trkpt>
      <trkpt lat="59.073004955425858" lon="30.008078198879957">
        <ele>75.120000000000005</ele>
        <time>2026-04-25T13:21:13Z</time>
      </trkpt>
      <trkpt lat="59.072972852736712" lon="30.007927073165774">
        <ele>75.599999999999994</ele>
        <time>2026-04-25T13:21:26Z</time>
      </trkpt>
      <trkpt lat="59.072954412549734" lon="30.00791466794908">
        <ele>75.599999999999994</ele>
        <time>2026-04-25T13:21:34Z</time>
      </trkpt>
      <trkpt lat="59.072916274890304" lon="30.007895892485976">
        <ele>75.599999999999994</ele>
        <time>2026-04-25T13:21:56Z</time>
      </trkpt>
      <trkpt lat="59.072877634316683" lon="30.007950961589813">
        <ele>76.079999999999998</ele>
        <time>2026-04-25T13:22:08Z</time>
      </trkpt>
      <trkpt lat="59.072834802791476" lon="30.008021034300327">
        <ele>76.079999999999998</ele>
        <time>2026-04-25T13:22:18Z</time>
      </trkpt>
      <trkpt lat="59.072789791971445" lon="30.007960265502334">
        <ele>76.079999999999998</ele>
        <time>2026-04-25T13:22:26Z</time>
      </trkpt>
      <trkpt lat="59.072662722319365" lon="30.007895641028881">
        <ele>76.079999999999998</ele>
        <time>2026-04-25T13:22:44Z</time>
      </trkpt>
      <trkpt lat="59.072611425071955" lon="30.007860101759434">
        <ele>76.079999999999998</ele>
        <time>2026-04-25T13:22:50Z</time>
      </trkpt>
      <trkpt lat="59.072549315169454" lon="30.007943669334054">
        <ele>76.079999999999998</ele>
        <time>2026-04-25T13:23:00Z</time>
      </trkpt>
      <trkpt lat="59.07248561270535" lon="30.008064787834883">
        <ele>76.079999999999998</ele>
        <time>2026-04-25T13:23:10Z</time>
      </trkpt>
      <trkpt lat="59.072429370135069" lon="30.008177356794477">
        <ele>76.079999999999998</ele>
        <time>2026-04-25T13:23:24Z</time>
      </trkpt>
      <trkpt lat="59.072413193061948" lon="30.008256146684289">
        <ele>76.079999999999998</ele>
        <time>2026-04-25T13:23:49Z</time>
      </trkpt>
      <trkpt lat="59.0724709443748" lon="30.008412385359406">
        <ele>76.079999999999998</ele>
        <time>2026-04-25T13:24:00Z</time>
      </trkpt>
      <trkpt lat="59.072530372068286" lon="30.008555799722672">
        <ele>76.079999999999998</ele>
        <time>2026-04-25T13:24:10Z</time>
      </trkpt>
      <trkpt lat="59.072600109502673" lon="30.008665435016155">
        <ele>76.079999999999998</ele>
        <time>2026-04-25T13:24:19Z</time>
      </trkpt>
      <trkpt lat="59.072589632123709" lon="30.008683791384101">
        <ele>76.079999999999998</ele>
        <time>2026-04-25T13:24:27Z</time>
      </trkpt>
      <trkpt lat="59.072506818920374" lon="30.008703069761395">
        <ele>76.079999999999998</ele>
        <time>2026-04-25T13:25:03Z</time>
      </trkpt>
      <trkpt lat="59.072452168911695" lon="30.008680438622832">
        <ele>76.560000000000002</ele>
        <time>2026-04-25T13:25:30Z</time>
      </trkpt>
      <trkpt lat="59.072457617148757" lon="30.008740788325667">
        <ele>76.560000000000002</ele>
        <time>2026-04-25T13:25:54Z</time>
      </trkpt>
      <trkpt lat="59.072460634633899" lon="30.008849082514644">
        <ele>76.560000000000002</ele>
        <time>2026-04-25T13:26:09Z</time>
      </trkpt>
      <trkpt lat="59.072482511401176" lon="30.008878754451871">
        <ele>77.040000000000006</ele>
        <time>2026-04-25T13:26:26Z</time>
      </trkpt>
      <trkpt lat="59.072502460330725" lon="30.008764090016484">
        <ele>77.040000000000006</ele>
        <time>2026-04-25T13:26:46Z</time>
      </trkpt>
      <trkpt lat="59.072504304349422" lon="30.008679432794452">
        <ele>77.040000000000006</ele>
        <time>2026-04-25T13:27:04Z</time>
      </trkpt>
      <trkpt lat="59.072593152523041" lon="30.008719163015485">
        <ele>77.040000000000006</ele>
        <time>2026-04-25T13:27:17Z</time>
      </trkpt>
      <trkpt lat="59.072641180828214" lon="30.008769370615482">
        <ele>77.040000000000006</ele>
        <time>2026-04-25T13:27:26Z</time>
      </trkpt>
      <trkpt lat="59.072631038725376" lon="30.008838772773743">
        <ele>77.040000000000006</ele>
        <time>2026-04-25T13:27:34Z</time>
      </trkpt>
      <trkpt lat="59.072631876915693" lon="30.008953521028161">
        <ele>77.040000000000006</ele>
        <time>2026-04-25T13:27:41Z</time>
      </trkpt>
      <trkpt lat="59.072629194706678" lon="30.009080423042178">
        <ele>77.040000000000006</ele>
        <time>2026-04-25T13:27:48Z</time>
      </trkpt>
      <trkpt lat="59.072632631286979" lon="30.009133145213127">
        <ele>77.040000000000006</ele>
        <time>2026-04-25T13:27:51Z</time>
      </trkpt>
      <trkpt lat="59.072671523317695" lon="30.009291479364038">
        <ele>77.040000000000006</ele>
        <time>2026-04-25T13:27:59Z</time>
      </trkpt>
      <trkpt lat="59.072727095335722" lon="30.009378232061863">
        <ele>77.040000000000006</ele>
        <time>2026-04-25T13:28:07Z</time>
      </trkpt>
      <trkpt lat="59.072765987366438" lon="30.009486358612776">
        <ele>77.040000000000006</ele>
        <time>2026-04-25T13:28:14Z</time>
      </trkpt>
      <trkpt lat="59.072790965437889" lon="30.009612757712603">
        <ele>77.040000000000006</ele>
        <time>2026-04-25T13:28:21Z</time>
      </trkpt>
      <trkpt lat="59.072814099490643" lon="30.009716944769025">
        <ele>77.040000000000006</ele>
        <time>2026-04-25T13:28:27Z</time>
      </trkpt>
      <trkpt lat="59.072852488607168" lon="30.009783497080207">
        <ele>77.040000000000006</ele>
        <time>2026-04-25T13:28:33Z</time>
      </trkpt>
      <trkpt lat="59.072903031483293" lon="30.009903023019433">
        <ele>77.040000000000006</ele>
        <time>2026-04-25T13:28:42Z</time>
      </trkpt>
      <trkpt lat="59.072921555489302" lon="30.010003438219428">
        <ele>77.040000000000006</ele>
        <time>2026-04-25T13:28:51Z</time>
      </trkpt>
      <trkpt lat="59.072940414771438" lon="30.010096644982696">
        <ele>77.040000000000006</ele>
        <time>2026-04-25T13:29:01Z</time>
      </trkpt>
      <trkpt lat="59.07294737175107" lon="30.010141655802727">
        <ele>77.040000000000006</ele>
        <time>2026-04-25T13:29:03Z</time>
      </trkpt>
      <trkpt lat="59.07296396791935" lon="30.010296972468495">
        <ele>77.040000000000006</ele>
        <time>2026-04-25T13:29:11Z</time>
      </trkpt>
      <trkpt lat="59.07300210557878" lon="30.01040811650455">
        <ele>77.040000000000006</ele>
        <time>2026-04-25T13:29:21Z</time>
      </trkpt>
      <trkpt lat="59.073022808879614" lon="30.010526049882174">
        <ele>77.040000000000006</ele>
        <time>2026-04-25T13:29:31Z</time>
      </trkpt>
      <trkpt lat="59.073037058115005" lon="30.010645156726241">
        <ele>77.040000000000006</ele>
        <time>2026-04-25T13:29:40Z</time>
      </trkpt>
      <trkpt lat="59.073053151369095" lon="30.010712882503867">
        <ele>77.040000000000006</ele>
        <time>2026-04-25T13:29:47Z</time>
      </trkpt>
      <trkpt lat="59.073049379512668" lon="30.010697292163968">
        <ele>77.519999999999996</ele>
        <time>2026-04-25T13:30:08Z</time>
      </trkpt>
      <trkpt lat="59.073049714788795" lon="30.010710535570979">
        <ele>77.040000000000006</ele>
        <time>2026-04-25T13:30:54Z</time>
      </trkpt>
      <trkpt lat="59.073036974295974" lon="30.010692933574319">
        <ele>77.040000000000006</ele>
        <time>2026-04-25T13:31:15Z</time>
      </trkpt>
      <trkpt lat="59.073005290701985" lon="30.010767113417387">
        <ele>77.040000000000006</ele>
        <time>2026-04-25T13:31:36Z</time>
      </trkpt>
      <trkpt lat="59.073033118620515" lon="30.010747667402029">
        <ele>77.519999999999996</ele>
        <time>2026-04-25T13:32:02Z</time>
      </trkpt>
      <trkpt lat="59.073048289865255" lon="30.010719252750278">
        <ele>77.519999999999996</ele>
        <time>2026-04-25T13:32:17Z</time>
      </trkpt>
      <trkpt lat="59.073006128892303" lon="30.010727131739259">
        <ele>77.519999999999996</ele>
        <time>2026-04-25T13:32:30Z</time>
      </trkpt>
      <trkpt lat="59.072951059788465" lon="30.01074037514627">
        <ele>77.040000000000006</ele>
        <time>2026-04-25T13:32:39Z</time>
      </trkpt>
      <trkpt lat="59.072876796126366" lon="30.010734843090177">
        <ele>77.040000000000006</ele>
        <time>2026-04-25T13:32:48Z</time>
      </trkpt>
      <trkpt lat="59.072809489443898" lon="30.010786056518555">
        <ele>77.040000000000006</ele>
        <time>2026-04-25T13:32:57Z</time>
      </trkpt>
      <trkpt lat="59.072740506380796" lon="30.010805753991008">
        <ele>77.040000000000006</ele>
        <time>2026-04-25T13:33:05Z</time>
      </trkpt>
      <trkpt lat="59.072681749239564" lon="30.010839784517884">
        <ele>77.040000000000006</ele>
        <time>2026-04-25T13:33:13Z</time>
      </trkpt>
      <trkpt lat="59.072608156129718" lon="30.010887142270803">
        <ele>77.040000000000006</ele>
        <time>2026-04-25T13:33:23Z</time>
      </trkpt>
      <trkpt lat="59.072587117552757" lon="30.010905666276813">
        <ele>77.040000000000006</ele>
        <time>2026-04-25T13:33:32Z</time>
      </trkpt>
      <trkpt lat="59.072579406201839" lon="30.010815476998687">
        <ele>77.040000000000006</ele>
        <time>2026-04-25T13:34:00Z</time>
      </trkpt>
      <trkpt lat="59.072535317391157" lon="30.010675834491849">
        <ele>77.040000000000006</ele>
        <time>2026-04-25T13:34:09Z</time>
      </trkpt>
      <trkpt lat="59.072502376511693" lon="30.010580280795693">
        <ele>77.040000000000006</ele>
        <time>2026-04-25T13:34:16Z</time>
      </trkpt>
      <trkpt lat="59.072454767301679" lon="30.010483805090189">
        <ele>77.519999999999996</ele>
        <time>2026-04-25T13:34:25Z</time>
      </trkpt>
      <trkpt lat="59.072405230253935" lon="30.010418258607388">
        <ele>77.519999999999996</ele>
        <time>2026-04-25T13:34:33Z</time>
      </trkpt>
      <trkpt lat="59.072389891371131" lon="30.010318933054805">
        <ele>77.519999999999996</ele>
        <time>2026-04-25T13:34:40Z</time>
      </trkpt>
      <trkpt lat="59.072366673499346" lon="30.01025665551424">
        <ele>77.519999999999996</ele>
        <time>2026-04-25T13:34:47Z</time>
      </trkpt>
      <trkpt lat="59.07234588637948" lon="30.01021952368319">
        <ele>77.519999999999996</ele>
        <time>2026-04-25T13:34:52Z</time>
      </trkpt>
      <trkpt lat="59.07227648422122" lon="30.010084323585033">
        <ele>77.519999999999996</ele>
        <time>2026-04-25T13:35:04Z</time>
      </trkpt>
      <trkpt lat="59.07228721305728" lon="30.00997569411993">
        <ele>77.519999999999996</ele>
        <time>2026-04-25T13:35:12Z</time>
      </trkpt>
      <trkpt lat="59.072259636595845" lon="30.009858850389719">
        <ele>77.519999999999996</ele>
        <time>2026-04-25T13:35:20Z</time>
      </trkpt>
      <trkpt lat="59.072247818112373" lon="30.009834123775363">
        <ele>77.519999999999996</ele>
        <time>2026-04-25T13:35:22Z</time>
      </trkpt>
      <trkpt lat="59.0721963532269" lon="30.00968350097537">
        <ele>77.519999999999996</ele>
        <time>2026-04-25T13:35:34Z</time>
      </trkpt>
      <trkpt lat="59.072190569713712" lon="30.009510833770037">
        <ele>77.519999999999996</ele>
        <time>2026-04-25T13:35:46Z</time>
      </trkpt>
      <trkpt lat="59.072163077071309" lon="30.00936096534133">
        <ele>77.519999999999996</ele>
        <time>2026-04-25T13:35:54Z</time>
      </trkpt>
      <trkpt lat="59.072126196697354" lon="30.009270524606109">
        <ele>77.519999999999996</ele>
        <time>2026-04-25T13:36:01Z</time>
      </trkpt>
      <trkpt lat="59.072100967168808" lon="30.009124344214797">
        <ele>77.519999999999996</ele>
        <time>2026-04-25T13:36:10Z</time>
      </trkpt>
      <trkpt lat="59.071996780112386" lon="30.008997609838843">
        <ele>77.519999999999996</ele>
        <time>2026-04-25T13:36:25Z</time>
      </trkpt>
      <trkpt lat="59.071978591382504" lon="30.00885721296072">
        <ele>77.519999999999996</ele>
        <time>2026-04-25T13:36:33Z</time>
      </trkpt>
      <trkpt lat="59.071960235014558" lon="30.008738609030843">
        <ele>78</ele>
        <time>2026-04-25T13:36:40Z</time>
      </trkpt>
      <trkpt lat="59.07192955724895" lon="30.008598379790783">
        <ele>78</ele>
        <time>2026-04-25T13:36:52Z</time>
      </trkpt>
      <trkpt lat="59.071820341050625" lon="30.008526798337698">
        <ele>78</ele>
        <time>2026-04-25T13:37:15Z</time>
      </trkpt>
      <trkpt lat="59.071796620264649" lon="30.008388916030526">
        <ele>78</ele>
        <time>2026-04-25T13:37:28Z</time>
      </trkpt>
      <trkpt lat="59.071846324950457" lon="30.008322279900312">
        <ele>78.480000000000004</ele>
        <time>2026-04-25T13:38:05Z</time>
      </trkpt>
      <trkpt lat="59.07188949175179" lon="30.008253129199147">
        <ele>78.480000000000004</ele>
        <time>2026-04-25T13:38:12Z</time>
      </trkpt>
      <trkpt lat="59.071834422647953" lon="30.008252710103989">
        <ele>78.480000000000004</ele>
        <time>2026-04-25T13:38:29Z</time>
      </trkpt>
      <trkpt lat="59.071777760982513" lon="30.008205939084291">
        <ele>78.480000000000004</ele>
        <time>2026-04-25T13:38:39Z</time>
      </trkpt>
      <trkpt lat="59.07173409126699" lon="30.008155396208167">
        <ele>78.480000000000004</ele>
        <time>2026-04-25T13:38:47Z</time>
      </trkpt>
      <trkpt lat="59.071664437651634" lon="30.008294619619846">
        <ele>78.480000000000004</ele>
        <time>2026-04-25T13:39:03Z</time>
      </trkpt>
      <trkpt lat="59.071578271687031" lon="30.008267378434539">
        <ele>78.480000000000004</ele>
        <time>2026-04-25T13:39:17Z</time>
      </trkpt>
      <trkpt lat="59.071550527587533" lon="30.008380617946386">
        <ele>78.480000000000004</ele>
        <time>2026-04-25T13:39:28Z</time>
      </trkpt>
      <trkpt lat="59.071552874520421" lon="30.008526463061571">
        <ele>78.480000000000004</ele>
        <time>2026-04-25T13:39:38Z</time>
      </trkpt>
      <trkpt lat="59.071479281410575" lon="30.00851665623486">
        <ele>78.480000000000004</ele>
        <time>2026-04-25T13:39:48Z</time>
      </trkpt>
      <trkpt lat="59.07146536745131" lon="30.008565858006477">
        <ele>78.480000000000004</ele>
        <time>2026-04-25T13:39:57Z</time>
      </trkpt>
      <trkpt lat="59.071486070752144" lon="30.008661160245538">
        <ele>78.480000000000004</ele>
        <time>2026-04-25T13:40:26Z</time>
      </trkpt>
      <trkpt lat="59.071508953347802" lon="30.008761659264565">
        <ele>78.969999999999999</ele>
        <time>2026-04-25T13:40:35Z</time>
      </trkpt>
      <trkpt lat="59.071521945297718" lon="30.008930135518312">
        <ele>78.969999999999999</ele>
        <time>2026-04-25T13:40:45Z</time>
      </trkpt>
      <trkpt lat="59.071549270302057" lon="30.009067934006453">
        <ele>78.969999999999999</ele>
        <time>2026-04-25T13:40:53Z</time>
      </trkpt>
      <trkpt lat="59.07163635827601" lon="30.00927546992898">
        <ele>78.969999999999999</ele>
        <time>2026-04-25T13:41:10Z</time>
      </trkpt>
      <trkpt lat="59.071687739342451" lon="30.009353840723634">
        <ele>78.969999999999999</ele>
        <time>2026-04-25T13:41:18Z</time>
      </trkpt>
      <trkpt lat="59.071734342724085" lon="30.009437659755349">
        <ele>78.969999999999999</ele>
        <time>2026-04-25T13:41:26Z</time>
      </trkpt>
      <trkpt lat="59.071799721568823" lon="30.009558023884892">
        <ele>78.969999999999999</ele>
        <time>2026-04-25T13:41:38Z</time>
      </trkpt>
      <trkpt lat="59.07174532301724" lon="30.009881900623441">
        <ele>78.969999999999999</ele>
        <time>2026-04-25T13:41:58Z</time>
      </trkpt>
      <trkpt lat="59.071750603616238" lon="30.010041324421763">
        <ele>78.969999999999999</ele>
        <time>2026-04-25T13:42:08Z</time>
      </trkpt>
      <trkpt lat="59.07182109542191" lon="30.01015548594296">
        <ele>78.969999999999999</ele>
        <time>2026-04-25T13:42:18Z</time>
      </trkpt>
      <trkpt lat="59.071865435689688" lon="30.010337037965655">
        <ele>78.969999999999999</ele>
        <time>2026-04-25T13:42:29Z</time>
      </trkpt>
      <trkpt lat="59.071913296356797" lon="30.010536275804043">
        <ele>78.969999999999999</ele>
        <time>2026-04-25T13:42:41Z</time>
      </trkpt>
      <trkpt lat="59.071984961628914" lon="30.010684467852116">
        <ele>78.969999999999999</ele>
        <time>2026-04-25T13:42:53Z</time>
      </trkpt>
      <trkpt lat="59.071990493685007" lon="30.010717492550611">
        <ele>78.480000000000004</ele>
        <time>2026-04-25T13:42:55Z</time>
      </trkpt>
      <trkpt lat="59.072000719606876" lon="30.01086643896997">
        <ele>78.480000000000004</ele>
        <time>2026-04-25T13:43:04Z</time>
      </trkpt>
      <trkpt lat="59.071998875588179" lon="30.010877000167966">
        <ele>78.480000000000004</ele>
        <time>2026-04-25T13:43:13Z</time>
      </trkpt>
      <trkpt lat="59.071958810091019" lon="30.010941624641418">
        <ele>78.480000000000004</ele>
        <time>2026-04-25T13:43:31Z</time>
      </trkpt>
      <trkpt lat="59.071871554479003" lon="30.010966937988997">
        <ele>78.480000000000004</ele>
        <time>2026-04-25T13:43:40Z</time>
      </trkpt>
      <trkpt lat="59.071794273331761" lon="30.010982779785991">
        <ele>78.480000000000004</ele>
        <time>2026-04-25T13:43:49Z</time>
      </trkpt>
      <trkpt lat="59.071736354380846" lon="30.011083781719208">
        <ele>78.480000000000004</ele>
        <time>2026-04-25T13:43:57Z</time>
      </trkpt>
      <trkpt lat="59.071675501763821" lon="30.011108759790659">
        <ele>78.480000000000004</ele>
        <time>2026-04-25T13:44:05Z</time>
      </trkpt>
      <trkpt lat="59.071595622226596" lon="30.011116219684482">
        <ele>78.480000000000004</ele>
        <time>2026-04-25T13:44:13Z</time>
      </trkpt>
      <trkpt lat="59.071552120149136" lon="30.011094678193331">
        <ele>78.480000000000004</ele>
        <time>2026-04-25T13:44:22Z</time>
      </trkpt>
      <trkpt lat="59.071533428505063" lon="30.011023934930563">
        <ele>78.480000000000004</ele>
        <time>2026-04-25T13:44:26Z</time>
      </trkpt>
      <trkpt lat="59.07153963111341" lon="30.010893763974309">
        <ele>78.969999999999999</ele>
        <time>2026-04-25T13:44:46Z</time>
      </trkpt>
      <trkpt lat="59.071524124592543" lon="30.010875156149268">
        <ele>78.969999999999999</ele>
        <time>2026-04-25T13:45:11Z</time>
      </trkpt>
      <trkpt lat="59.071505349129438" lon="30.01088940538466">
        <ele>78.969999999999999</ele>
        <time>2026-04-25T13:45:31Z</time>
      </trkpt>
      <trkpt lat="59.071502080187201" lon="30.010948833078146">
        <ele>78.969999999999999</ele>
        <time>2026-04-25T13:45:38Z</time>
      </trkpt>
      <trkpt lat="59.071503421291709" lon="30.010846490040421">
        <ele>78.969999999999999</ele>
        <time>2026-04-25T13:45:45Z</time>
      </trkpt>
      <trkpt lat="59.071522196754813" lon="30.010734004899859">
        <ele>78.969999999999999</ele>
        <time>2026-04-25T13:45:55Z</time>
      </trkpt>
      <trkpt lat="59.071515742689371" lon="30.010832073166966">
        <ele>78.969999999999999</ele>
        <time>2026-04-25T13:46:09Z</time>
      </trkpt>
      <trkpt lat="59.071507947519422" lon="30.010829558596015">
        <ele>78.969999999999999</ele>
        <time>2026-04-25T13:46:29Z</time>
      </trkpt>
      <trkpt lat="59.07150836661458" lon="30.010826122015715">
        <ele>79.450000000000003</ele>
        <time>2026-04-25T13:47:01Z</time>
      </trkpt>
      <trkpt lat="59.071497386321425" lon="30.010814387351274">
        <ele>79.450000000000003</ele>
        <time>2026-04-25T13:47:32Z</time>
      </trkpt>
      <trkpt lat="59.071508953347802" lon="30.010814974084496">
        <ele>79.450000000000003</ele>
        <time>2026-04-25T13:47:44Z</time>
      </trkpt>
      <trkpt lat="59.071544492617249" lon="30.010783206671476">
        <ele>79.450000000000003</ele>
        <time>2026-04-25T13:47:58Z</time>
      </trkpt>
      <trkpt lat="59.071547761559486" lon="30.010760491713881">
        <ele>79.930000000000007</ele>
        <time>2026-04-25T13:48:12Z</time>
      </trkpt>
      <trkpt lat="59.071516832336783" lon="30.010725287720561">
        <ele>79.930000000000007</ele>
        <time>2026-04-25T13:48:30Z</time>
      </trkpt>
      <trkpt lat="59.071511467918754" lon="30.010761078447104">
        <ele>79.930000000000007</ele>
        <time>2026-04-25T13:48:45Z</time>
      </trkpt>
      <trkpt lat="59.07150593586266" lon="30.010833414271474">
        <ele>80.409999999999997</ele>
        <time>2026-04-25T13:48:59Z</time>
      </trkpt>
      <trkpt lat="59.071526052430272" lon="30.010802317410707">
        <ele>80.409999999999997</ele>
        <time>2026-04-25T13:49:13Z</time>
      </trkpt>
      <trkpt lat="59.07149906270206" lon="30.010828971862793">
        <ele>80.409999999999997</ele>
        <time>2026-04-25T13:49:29Z</time>
      </trkpt>
      <trkpt lat="59.071492440998554" lon="30.010750433430076">
        <ele>80.409999999999997</ele>
        <time>2026-04-25T13:49:42Z</time>
      </trkpt>
      <trkpt lat="59.071449274197221" lon="30.010739704594016">
        <ele>80.890000000000001</ele>
        <time>2026-04-25T13:50:03Z</time>
      </trkpt>
      <trkpt lat="59.071500236168504" lon="30.010793348774314">
        <ele>80.890000000000001</ele>
        <time>2026-04-25T13:50:25Z</time>
      </trkpt>
      <trkpt lat="59.071483556181192" lon="30.010767616331577">
        <ele>81.370000000000005</ele>
        <time>2026-04-25T13:50:46Z</time>
      </trkpt>
      <trkpt lat="59.071518760174513" lon="30.010780524462461">
        <ele>81.370000000000005</ele>
        <time>2026-04-25T13:51:09Z</time>
      </trkpt>
      <trkpt lat="59.071428654715419" lon="30.010613556951284">
        <ele>81.370000000000005</ele>
        <time>2026-04-25T13:51:35Z</time>
      </trkpt>
      <trkpt lat="59.071419266983867" lon="30.010715899989009">
        <ele>81.849999999999994</ele>
        <time>2026-04-25T13:51:47Z</time>
      </trkpt>
      <trkpt lat="59.071419266983867" lon="30.010841377079487">
        <ele>82.329999999999998</ele>
        <time>2026-04-25T13:52:09Z</time>
      </trkpt>
      <trkpt lat="59.071467127650976" lon="30.010854871943593">
        <ele>82.329999999999998</ele>
        <time>2026-04-25T13:52:33Z</time>
      </trkpt>
      <trkpt lat="59.071458578109741" lon="30.010789325460792">
        <ele>82.329999999999998</ele>
        <time>2026-04-25T13:52:45Z</time>
      </trkpt>
      <trkpt lat="59.071453465148807" lon="30.010724198073149">
        <ele>82.329999999999998</ele>
        <time>2026-04-25T13:53:01Z</time>
      </trkpt>
      <trkpt lat="59.071454303339124" lon="30.010750349611044">
        <ele>82.329999999999998</ele>
        <time>2026-04-25T13:53:15Z</time>
      </trkpt>
      <trkpt lat="59.071434689685702" lon="30.010748254135251">
        <ele>82.329999999999998</ele>
        <time>2026-04-25T13:53:27Z</time>
      </trkpt>
      <trkpt lat="59.071430750191212" lon="30.010788235813379">
        <ele>82.329999999999998</ele>
        <time>2026-04-25T13:53:42Z</time>
      </trkpt>
      <trkpt lat="59.071457823738456" lon="30.010756719857454">
        <ele>82.810000000000002</ele>
        <time>2026-04-25T13:53:55Z</time>
      </trkpt>
      <trkpt lat="59.071520185098052" lon="30.010754121467471">
        <ele>82.810000000000002</ele>
        <time>2026-04-25T13:54:09Z</time>
      </trkpt>
      <trkpt lat="59.071484729647636" lon="30.010791923850775">
        <ele>82.810000000000002</ele>
        <time>2026-04-25T13:54:28Z</time>
      </trkpt>
      <trkpt lat="59.071542480960488" lon="30.010704919695854">
        <ele>82.810000000000002</ele>
        <time>2026-04-25T13:54:54Z</time>
      </trkpt>
      <trkpt lat="59.071563351899385" lon="30.010772394016385">
        <ele>82.810000000000002</ele>
        <time>2026-04-25T13:55:10Z</time>
      </trkpt>
      <trkpt lat="59.071523537859321" lon="30.010806256905198">
        <ele>83.290000000000006</ele>
        <time>2026-04-25T13:55:33Z</time>
      </trkpt>
      <trkpt lat="59.071495542302728" lon="30.010764095932245">
        <ele>83.290000000000006</ele>
        <time>2026-04-25T13:55:51Z</time>
      </trkpt>
      <trkpt lat="59.071508282795548" lon="30.010790163651109">
        <ele>83.769999999999996</ele>
        <time>2026-04-25T13:56:04Z</time>
      </trkpt>
      <trkpt lat="59.071536362171173" lon="30.010748924687505">
        <ele>84.25</ele>
        <time>2026-04-25T13:56:23Z</time>
      </trkpt>
      <trkpt lat="59.071557987481356" lon="30.010757390409708">
        <ele>84.25</ele>
        <time>2026-04-25T13:56:39Z</time>
      </trkpt>
      <trkpt lat="59.071581205353141" lon="30.010660076513886">
        <ele>84.25</ele>
        <time>2026-04-25T13:56:53Z</time>
      </trkpt>
      <trkpt lat="59.07153963111341" lon="30.010675163939595">
        <ele>84.730000000000004</ele>
        <time>2026-04-25T13:57:20Z</time>
      </trkpt>
      <trkpt lat="59.071522615849972" lon="30.010719588026404">
        <ele>84.730000000000004</ele>
        <time>2026-04-25T13:57:37Z</time>
      </trkpt>
      <trkpt lat="59.071494033560157" lon="30.010683797299862">
        <ele>84.730000000000004</ele>
        <time>2026-04-25T13:57:52Z</time>
      </trkpt>
      <trkpt lat="59.071486070752144" lon="30.010692682117224">
        <ele>84.730000000000004</ele>
        <time>2026-04-25T13:58:04Z</time>
      </trkpt>
      <trkpt lat="59.071506690233946" lon="30.010682372376323">
        <ele>84.730000000000004</ele>
        <time>2026-04-25T13:58:22Z</time>
      </trkpt>
      <trkpt lat="59.071538290008903" lon="30.010625626891851">
        <ele>85.209999999999994</ele>
        <time>2026-04-25T13:58:41Z</time>
      </trkpt>
      <trkpt lat="59.071561675518751" lon="30.010745991021395">
        <ele>85.209999999999994</ele>
        <time>2026-04-25T13:59:04Z</time>
      </trkpt>
      <trkpt lat="59.071581037715077" lon="30.010685808956623">
        <ele>85.209999999999994</ele>
        <time>2026-04-25T13:59:21Z</time>
      </trkpt>
      <trkpt lat="59.071552539244294" lon="30.010717744007707">
        <ele>85.209999999999994</ele>
        <time>2026-04-25T13:59:39Z</time>
      </trkpt>
      <trkpt lat="59.071524124592543" lon="30.010677510872483">
        <ele>85.209999999999994</ele>
        <time>2026-04-25T13:59:45Z</time>
      </trkpt>
      <trkpt lat="59.071504091843963" lon="30.0107042491436">
        <ele>85.209999999999994</ele>
        <time>2026-04-25T14:00:00Z</time>
      </trkpt>
      <trkpt lat="59.071482717990875" lon="30.010688826441765">
        <ele>85.209999999999994</ele>
        <time>2026-04-25T14:00:25Z</time>
      </trkpt>
      <trkpt lat="59.071475341916084" lon="30.010693352669477">
        <ele>85.209999999999994</ele>
        <time>2026-04-25T14:00:36Z</time>
      </trkpt>
      <trkpt lat="59.071501074358821" lon="30.01069544814527">
        <ele>85.689999999999998</ele>
        <time>2026-04-25T14:00:47Z</time>
      </trkpt>
      <trkpt lat="59.071507528424263" lon="30.010717660188675">
        <ele>85.689999999999998</ele>
        <time>2026-04-25T14:01:11Z</time>
      </trkpt>
      <trkpt lat="59.071502750739455" lon="30.010711373761296">
        <ele>85.689999999999998</ele>
        <time>2026-04-25T14:01:26Z</time>
      </trkpt>
      <trkpt lat="59.071502247825265" lon="30.010770047083497">
        <ele>85.689999999999998</ele>
        <time>2026-04-25T14:01:45Z</time>
      </trkpt>
      <trkpt lat="59.071485986933112" lon="30.010904325172305">
        <ele>85.689999999999998</ele>
        <time>2026-04-25T14:02:03Z</time>
      </trkpt>
      <trkpt lat="59.071489591151476" lon="30.010749343782663">
        <ele>85.689999999999998</ele>
        <time>2026-04-25T14:02:17Z</time>
      </trkpt>
      <trkpt lat="59.071510378271341" lon="30.010774154216051">
        <ele>86.180000000000007</ele>
        <time>2026-04-25T14:02:33Z</time>
      </trkpt>
      <trkpt lat="59.071454806253314" lon="30.010764431208372">
        <ele>86.180000000000007</ele>
        <time>2026-04-25T14:02:50Z</time>
      </trkpt>
      <trkpt lat="59.071449525654316" lon="30.010750349611044">
        <ele>86.180000000000007</ele>
        <time>2026-04-25T14:03:03Z</time>
      </trkpt>
      <trkpt lat="59.071483640000224" lon="30.010859314352274">
        <ele>86.180000000000007</ele>
        <time>2026-04-25T14:03:26Z</time>
      </trkpt>
      <trkpt lat="59.071458913385868" lon="30.010913293808699">
        <ele>86.659999999999997</ele>
        <time>2026-04-25T14:03:48Z</time>
      </trkpt>
      <trkpt lat="59.071416081860662" lon="30.011015301570296">
        <ele>86.659999999999997</ele>
        <time>2026-04-25T14:04:02Z</time>
      </trkpt>
      <trkpt lat="59.071465283632278" lon="30.010905833914876">
        <ele>86.659999999999997</ele>
        <time>2026-04-25T14:04:14Z</time>
      </trkpt>
      <trkpt lat="59.071520185098052" lon="30.010762251913548">
        <ele>86.659999999999997</ele>
        <time>2026-04-25T14:04:42Z</time>
      </trkpt>
      <trkpt lat="59.071521945297718" lon="30.010809358209372">
        <ele>86.659999999999997</ele>
        <time>2026-04-25T14:05:03Z</time>
      </trkpt>
      <trkpt lat="59.071535021066666" lon="30.010745320469141">
        <ele>86.659999999999997</ele>
        <time>2026-04-25T14:05:30Z</time>
      </trkpt>
      <trkpt lat="59.07150593586266" lon="30.010801646858454">
        <ele>87.140000000000001</ele>
        <time>2026-04-25T14:06:13Z</time>
      </trkpt>
      <trkpt lat="59.071528567001224" lon="30.010760743170977">
        <ele>87.140000000000001</ele>
        <time>2026-04-25T14:06:25Z</time>
      </trkpt>
      <trkpt lat="59.071527309715748" lon="30.010766023769975">
        <ele>87.140000000000001</ele>
        <time>2026-04-25T14:06:28Z</time>
      </trkpt>
      <trkpt lat="59.071543570607901" lon="30.010741800069809">
        <ele>87.140000000000001</ele>
        <time>2026-04-25T14:06:41Z</time>
      </trkpt>
      <trkpt lat="59.07151029445231" lon="30.010713217779994">
        <ele>87.140000000000001</ele>
        <time>2026-04-25T14:06:58Z</time>
      </trkpt>
      <trkpt lat="59.071486992761493" lon="30.010719923302531">
        <ele>87.140000000000001</ele>
        <time>2026-04-25T14:07:20Z</time>
      </trkpt>
      <trkpt lat="59.07150006853044" lon="30.010689832270145">
        <ele>87.140000000000001</ele>
        <time>2026-04-25T14:07:24Z</time>
      </trkpt>
      <trkpt lat="59.071537032723427" lon="30.010607857257128">
        <ele>87.620000000000005</ele>
        <time>2026-04-25T14:07:34Z</time>
      </trkpt>
      <trkpt lat="59.071558993309736" lon="30.010543987154961">
        <ele>87.620000000000005</ele>
        <time>2026-04-25T14:07:42Z</time>
      </trkpt>
      <trkpt lat="59.071565950289369" lon="30.01042521558702">
        <ele>87.620000000000005</ele>
        <time>2026-04-25T14:07:49Z</time>
      </trkpt>
      <trkpt lat="59.071551701053977" lon="30.010332092642784">
        <ele>87.620000000000005</ele>
        <time>2026-04-25T14:07:54Z</time>
      </trkpt>
      <trkpt lat="59.071494536474347" lon="30.010214913636446">
        <ele>87.620000000000005</ele>
        <time>2026-04-25T14:08:01Z</time>
      </trkpt>
      <trkpt lat="59.071437204256654" lon="30.009998325258493">
        <ele>87.620000000000005</ele>
        <time>2026-04-25T14:08:12Z</time>
      </trkpt>
      <trkpt lat="59.071421111002564" lon="30.00984133221209">
        <ele>87.620000000000005</ele>
        <time>2026-04-25T14:08:23Z</time>
      </trkpt>
      <trkpt lat="59.071415578946471" lon="30.009651314467192">
        <ele>87.620000000000005</ele>
        <time>2026-04-25T14:08:35Z</time>
      </trkpt>
      <trkpt lat="59.071387751027942" lon="30.00953740440309">
        <ele>87.620000000000005</ele>
        <time>2026-04-25T14:08:44Z</time>
      </trkpt>
      <trkpt lat="59.071365790441632" lon="30.009331880137324">
        <ele>87.620000000000005</ele>
        <time>2026-04-25T14:08:53Z</time>
      </trkpt>
      <trkpt lat="59.071357827633619" lon="30.009187208488584">
        <ele>87.620000000000005</ele>
        <time>2026-04-25T14:09:02Z</time>
      </trkpt>
      <trkpt lat="59.071354474872351" lon="30.009145382791758">
        <ele>87.620000000000005</ele>
        <time>2026-04-25T14:09:04Z</time>
      </trkpt>
      <trkpt lat="59.0713398065418" lon="30.00900917686522">
        <ele>87.620000000000005</ele>
        <time>2026-04-25T14:09:13Z</time>
      </trkpt>
      <trkpt lat="59.071320611983538" lon="30.008874479681253">
        <ele>87.620000000000005</ele>
        <time>2026-04-25T14:09:23Z</time>
      </trkpt>
      <trkpt lat="59.071306614205241" lon="30.008842963725328">
        <ele>87.620000000000005</ele>
        <time>2026-04-25T14:09:26Z</time>
      </trkpt>
      <trkpt lat="59.071270069107413" lon="30.008661076426506">
        <ele>87.620000000000005</ele>
        <time>2026-04-25T14:09:37Z</time>
      </trkpt>
      <trkpt lat="59.071244336664677" lon="30.008483296260238">
        <ele>87.620000000000005</ele>
        <time>2026-04-25T14:09:48Z</time>
      </trkpt>
      <trkpt lat="59.071248527616262" lon="30.00839495100081">
        <ele>87.620000000000005</ele>
        <time>2026-04-25T14:09:55Z</time>
      </trkpt>
      <trkpt lat="59.071265123784542" lon="30.008302079513669">
        <ele>87.620000000000005</ele>
        <time>2026-04-25T14:10:04Z</time>
      </trkpt>
      <trkpt lat="59.071262441575527" lon="30.008292943239212">
        <ele>87.620000000000005</ele>
        <time>2026-04-25T14:10:05Z</time>
      </trkpt>
      <trkpt lat="59.071242492645979" lon="30.008200574666262">
        <ele>87.620000000000005</ele>
        <time>2026-04-25T14:10:16Z</time>
      </trkpt>
      <trkpt lat="59.071218268945813" lon="30.008073337376118">
        <ele>87.620000000000005</ele>
        <time>2026-04-25T14:10:24Z</time>
      </trkpt>
      <trkpt lat="59.071202510967851" lon="30.007944675162435">
        <ele>87.620000000000005</ele>
        <time>2026-04-25T14:10:32Z</time>
      </trkpt>
      <trkpt lat="59.071155153214931" lon="30.007873177528381">
        <ele>87.620000000000005</ele>
        <time>2026-04-25T14:10:42Z</time>
      </trkpt>
      <trkpt lat="59.071086840704083" lon="30.007892623543739">
        <ele>87.620000000000005</ele>
        <time>2026-04-25T14:10:50Z</time>
      </trkpt>
      <trkpt lat="59.071030095219612" lon="30.007902514189482">
        <ele>87.620000000000005</ele>
        <time>2026-04-25T14:10:58Z</time>
      </trkpt>
      <trkpt lat="59.070974104106426" lon="30.007911482825875">
        <ele>87.620000000000005</ele>
        <time>2026-04-25T14:11:06Z</time>
      </trkpt>
      <trkpt lat="59.070973098278046" lon="30.007907627150416">
        <ele>87.620000000000005</ele>
        <time>2026-04-25T14:11:07Z</time>
      </trkpt>
      <trkpt lat="59.07090101391077" lon="30.007959846407175">
        <ele>88.099999999999994</ele>
        <time>2026-04-25T14:11:32Z</time>
      </trkpt>
      <trkpt lat="59.070925824344158" lon="30.007994128391147">
        <ele>88.099999999999994</ele>
        <time>2026-04-25T14:11:45Z</time>
      </trkpt>
      <trkpt lat="59.070900091901422" lon="30.008047940209508">
        <ele>88.099999999999994</ele>
        <time>2026-04-25T14:11:55Z</time>
      </trkpt>
      <trkpt lat="59.070860696956515" lon="30.008111475035548">
        <ele>88.099999999999994</ele>
        <time>2026-04-25T14:12:05Z</time>
      </trkpt>
      <trkpt lat="59.070835467427969" lon="30.008135279640555">
        <ele>88.099999999999994</ele>
        <time>2026-04-25T14:12:11Z</time>
      </trkpt>
      <trkpt lat="59.070813255384564" lon="30.008167549967766">
        <ele>88.099999999999994</ele>
        <time>2026-04-25T14:12:17Z</time>
      </trkpt>
      <trkpt lat="59.070770842954516" lon="30.008191941305995">
        <ele>88.099999999999994</ele>
        <time>2026-04-25T14:12:26Z</time>
      </trkpt>
      <trkpt lat="59.070698507130146" lon="30.008168974891305">
        <ele>88.099999999999994</ele>
        <time>2026-04-25T14:12:37Z</time>
      </trkpt>
      <trkpt lat="59.07069724984467" lon="30.008159503340721">
        <ele>88.099999999999994</ele>
        <time>2026-04-25T14:12:38Z</time>
      </trkpt>
      <trkpt lat="59.070663219317794" lon="30.007996475324035">
        <ele>88.099999999999994</ele>
        <time>2026-04-25T14:12:48Z</time>
      </trkpt>
      <trkpt lat="59.070665733888745" lon="30.007976023480296">
        <ele>88.099999999999994</ele>
        <time>2026-04-25T14:12:50Z</time>
      </trkpt>
      <trkpt lat="59.070637570694089" lon="30.007826322689652">
        <ele>88.099999999999994</ele>
        <time>2026-04-25T14:12:58Z</time>
      </trkpt>
      <trkpt lat="59.07062248326838" lon="30.007686093449593">
        <ele>88.099999999999994</ele>
        <time>2026-04-25T14:13:07Z</time>
      </trkpt>
      <trkpt lat="59.070601360872388" lon="30.007508983835578">
        <ele>88.099999999999994</ele>
        <time>2026-04-25T14:13:17Z</time>
      </trkpt>
      <trkpt lat="59.070592978969216" lon="30.007471097633243">
        <ele>88.099999999999994</ele>
        <time>2026-04-25T14:13:19Z</time>
      </trkpt>
      <trkpt lat="59.070534221827984" lon="30.007335059344769">
        <ele>88.099999999999994</ele>
        <time>2026-04-25T14:13:27Z</time>
      </trkpt>
      <trkpt lat="59.070524917915463" lon="30.007242187857628">
        <ele>88.099999999999994</ele>
        <time>2026-04-25T14:13:34Z</time>
      </trkpt>
      <trkpt lat="59.070528773590922" lon="30.007098186761141">
        <ele>88.099999999999994</ele>
        <time>2026-04-25T14:13:43Z</time>
      </trkpt>
      <trkpt lat="59.070515697821975" lon="30.006947312504053">
        <ele>88.099999999999994</ele>
        <time>2026-04-25T14:13:52Z</time>
      </trkpt>
      <trkpt lat="59.070499101653695" lon="30.00683868303895">
        <ele>88.099999999999994</ele>
        <time>2026-04-25T14:13:59Z</time>
      </trkpt>
      <trkpt lat="59.070484600961208" lon="30.006712870672345">
        <ele>88.099999999999994</ele>
        <time>2026-04-25T14:14:07Z</time>
      </trkpt>
      <trkpt lat="59.070448642596602" lon="30.006577419117093">
        <ele>87.620000000000005</ele>
        <time>2026-04-25T14:14:17Z</time>
      </trkpt>
      <trkpt lat="59.070443864911795" lon="30.006491169333458">
        <ele>87.620000000000005</ele>
        <time>2026-04-25T14:14:23Z</time>
      </trkpt>
      <trkpt lat="59.070441937074065" lon="30.006463760510087">
        <ele>87.620000000000005</ele>
        <time>2026-04-25T14:14:25Z</time>
      </trkpt>
      <trkpt lat="59.070425257086754" lon="30.006328979507089">
        <ele>87.620000000000005</ele>
        <time>2026-04-25T14:14:33Z</time>
      </trkpt>
      <trkpt lat="59.070381000638008" lon="30.006260918453336">
        <ele>87.620000000000005</ele>
        <time>2026-04-25T14:14:41Z</time>
      </trkpt>
      <trkpt lat="59.070340264588594" lon="30.006145164370537">
        <ele>87.620000000000005</ele>
        <time>2026-04-25T14:14:51Z</time>
      </trkpt>
      <trkpt lat="59.070341773331165" lon="30.006031086668372">
        <ele>87.620000000000005</ele>
        <time>2026-04-25T14:14:58Z</time>
      </trkpt>
      <trkpt lat="59.070313861593604" lon="30.005902424454689">
        <ele>87.620000000000005</ele>
        <time>2026-04-25T14:15:09Z</time>
      </trkpt>
      <trkpt lat="59.070271281525493" lon="30.005841068923473">
        <ele>87.620000000000005</ele>
        <time>2026-04-25T14:15:18Z</time>
      </trkpt>
      <trkpt lat="59.070210680365562" lon="30.005721962079406">
        <ele>87.620000000000005</ele>
        <time>2026-04-25T14:15:29Z</time>
      </trkpt>
      <trkpt lat="59.0701724588871" lon="30.005670916289091">
        <ele>87.620000000000005</ele>
        <time>2026-04-25T14:15:34Z</time>
      </trkpt>
      <trkpt lat="59.070069780573249" lon="30.005549546331167">
        <ele>87.140000000000001</ele>
        <time>2026-04-25T14:15:44Z</time>
      </trkpt>
      <trkpt lat="59.070014795288444" lon="30.005443515256047">
        <ele>87.140000000000001</ele>
        <time>2026-04-25T14:15:54Z</time>
      </trkpt>
      <trkpt lat="59.069959055632353" lon="30.00534544698894">
        <ele>87.140000000000001</ele>
        <time>2026-04-25T14:16:04Z</time>
      </trkpt>
      <trkpt lat="59.069959307089448" lon="30.005325749516487">
        <ele>87.140000000000001</ele>
        <time>2026-04-25T14:16:05Z</time>
      </trkpt>
      <trkpt lat="59.069976238533854" lon="30.005210246890783">
        <ele>87.140000000000001</ele>
        <time>2026-04-25T14:16:19Z</time>
      </trkpt>
      <trkpt lat="59.069958804175258" lon="30.005015200003982">
        <ele>87.140000000000001</ele>
        <time>2026-04-25T14:16:33Z</time>
      </trkpt>
      <trkpt lat="59.069937849417329" lon="30.004971865564585">
        <ele>87.140000000000001</ele>
        <time>2026-04-25T14:16:44Z</time>
      </trkpt>
      <trkpt lat="59.069918822497129" lon="30.004968848079443">
        <ele>87.140000000000001</ele>
        <time>2026-04-25T14:16:52Z</time>
      </trkpt>
      <trkpt lat="59.069840116426349" lon="30.004954431205988">
        <ele>87.140000000000001</ele>
        <time>2026-04-25T14:17:03Z</time>
      </trkpt>
      <trkpt lat="59.069762164726853" lon="30.004880921915174">
        <ele>87.140000000000001</ele>
        <time>2026-04-25T14:17:10Z</time>
      </trkpt>
      <trkpt lat="59.069737354293466" lon="30.004842784255743">
        <ele>87.140000000000001</ele>
        <time>2026-04-25T14:17:14Z</time>
      </trkpt>
      <trkpt lat="59.069712795317173" lon="30.004734909161925">
        <ele>86.659999999999997</ele>
        <time>2026-04-25T14:17:23Z</time>
      </trkpt>
      <trkpt lat="59.069713046774268" lon="30.004678666591644">
        <ele>86.659999999999997</ele>
        <time>2026-04-25T14:17:27Z</time>
      </trkpt>
      <trkpt lat="59.069687984883785" lon="30.004532402381301">
        <ele>86.659999999999997</ele>
        <time>2026-04-25T14:17:36Z</time>
      </trkpt>
      <trkpt lat="59.069633167237043" lon="30.004395861178637">
        <ele>86.659999999999997</ele>
        <time>2026-04-25T14:17:47Z</time>
      </trkpt>
      <trkpt lat="59.069596873596311" lon="30.004265690222383">
        <ele>86.659999999999997</ele>
        <time>2026-04-25T14:17:53Z</time>
      </trkpt>
      <trkpt lat="59.069543229416013" lon="30.004153288900852">
        <ele>86.659999999999997</ele>
        <time>2026-04-25T14:18:02Z</time>
      </trkpt>
      <trkpt lat="59.069502493366599" lon="30.004075588658452">
        <ele>86.659999999999997</ele>
        <time>2026-04-25T14:18:11Z</time>
      </trkpt>
      <trkpt lat="59.069432504475117" lon="30.003980286419392">
        <ele>86.659999999999997</ele>
        <time>2026-04-25T14:18:19Z</time>
      </trkpt>
      <trkpt lat="59.069421608000994" lon="30.003960421308875">
        <ele>86.659999999999997</ele>
        <time>2026-04-25T14:18:20Z</time>
      </trkpt>
      <trkpt lat="59.069401323795319" lon="30.003891019150615">
        <ele>86.659999999999997</ele>
        <time>2026-04-25T14:18:24Z</time>
      </trkpt>
      <trkpt lat="59.069357151165605" lon="30.003785826265812">
        <ele>86.659999999999997</ele>
        <time>2026-04-25T14:18:33Z</time>
      </trkpt>
      <trkpt lat="59.069265453144908" lon="30.003770319744945">
        <ele>86.659999999999997</ele>
        <time>2026-04-25T14:18:42Z</time>
      </trkpt>
      <trkpt lat="59.069247096776962" lon="30.003796890377998">
        <ele>86.659999999999997</ele>
        <time>2026-04-25T14:18:45Z</time>
      </trkpt>
      <trkpt lat="59.06919127330184" lon="30.003814743831754">
        <ele>86.659999999999997</ele>
        <time>2026-04-25T14:18:59Z</time>
      </trkpt>
      <trkpt lat="59.06917174346745" lon="30.003827316686511">
        <ele>86.659999999999997</ele>
        <time>2026-04-25T14:19:01Z</time>
      </trkpt>
      <trkpt lat="59.069075770676136" lon="30.003882050514221">
        <ele>86.659999999999997</ele>
        <time>2026-04-25T14:19:10Z</time>
      </trkpt>
      <trkpt lat="59.068969823420048" lon="30.003934856504202">
        <ele>86.659999999999997</ele>
        <time>2026-04-25T14:19:19Z</time>
      </trkpt>
      <trkpt lat="59.068883825093508" lon="30.003990428522229">
        <ele>86.659999999999997</ele>
        <time>2026-04-25T14:19:29Z</time>
      </trkpt>
      <trkpt lat="59.06878718174994" lon="30.004000905901194">
        <ele>86.659999999999997</ele>
        <time>2026-04-25T14:19:38Z</time>
      </trkpt>
      <trkpt lat="59.068723814561963" lon="30.004072738811374">
        <ele>86.659999999999997</ele>
        <time>2026-04-25T14:19:46Z</time>
      </trkpt>
      <trkpt lat="59.068649215623736" lon="30.004056813195348">
        <ele>87.140000000000001</ele>
        <time>2026-04-25T14:19:55Z</time>
      </trkpt>
      <trkpt lat="59.068573024123907" lon="30.004037283360958">
        <ele>87.140000000000001</ele>
        <time>2026-04-25T14:20:04Z</time>
      </trkpt>
      <trkpt lat="59.068480404093862" lon="30.004075756296515">
        <ele>87.140000000000001</ele>
        <time>2026-04-25T14:20:14Z</time>
      </trkpt>
      <trkpt lat="59.068476213142276" lon="30.00402269884944">
        <ele>87.140000000000001</ele>
        <time>2026-04-25T14:20:24Z</time>
      </trkpt>
      <trkpt lat="59.068428017199039" lon="30.004041390493512">
        <ele>87.140000000000001</ele>
        <time>2026-04-25T14:20:32Z</time>
      </trkpt>
      <trkpt lat="59.068331122398376" lon="30.004149181768298">
        <ele>87.140000000000001</ele>
        <time>2026-04-25T14:20:47Z</time>
      </trkpt>
      <trkpt lat="59.068258618935943" lon="30.004182038828731">
        <ele>87.140000000000001</ele>
        <time>2026-04-25T14:20:55Z</time>
      </trkpt>
      <trkpt lat="59.068214194849133" lon="30.004201484844089">
        <ele>87.140000000000001</ele>
        <time>2026-04-25T14:21:02Z</time>
      </trkpt>
      <trkpt lat="59.068177817389369" lon="30.004233000800014">
        <ele>87.140000000000001</ele>
        <time>2026-04-25T14:21:06Z</time>
      </trkpt>
      <trkpt lat="59.068100033327937" lon="30.004263678565621">
        <ele>87.140000000000001</ele>
        <time>2026-04-25T14:21:17Z</time>
      </trkpt>
      <trkpt lat="59.068047562614083" lon="30.004264432936907">
        <ele>87.140000000000001</ele>
        <time>2026-04-25T14:21:22Z</time>
      </trkpt>
      <trkpt lat="59.067984111607075" lon="30.004264516755939">
        <ele>87.140000000000001</ele>
        <time>2026-04-25T14:21:27Z</time>
      </trkpt>
      <trkpt lat="59.067896017804742" lon="30.004314053803682">
        <ele>87.140000000000001</ele>
        <time>2026-04-25T14:21:37Z</time>
      </trkpt>
      <trkpt lat="59.067834746092558" lon="30.004299972206354">
        <ele>87.140000000000001</ele>
        <time>2026-04-25T14:21:47Z</time>
      </trkpt>
      <trkpt lat="59.067761488258839" lon="30.004356047138572">
        <ele>87.620000000000005</ele>
        <time>2026-04-25T14:21:56Z</time>
      </trkpt>
      <trkpt lat="59.067705161869526" lon="30.004371302202344">
        <ele>87.620000000000005</ele>
        <time>2026-04-25T14:22:03Z</time>
      </trkpt>
      <trkpt lat="59.067610278725624" lon="30.004431065171957">
        <ele>87.620000000000005</ele>
        <time>2026-04-25T14:22:13Z</time>
      </trkpt>
      <trkpt lat="59.06756803393364" lon="30.004441710188985">
        <ele>87.620000000000005</ele>
        <time>2026-04-25T14:22:20Z</time>
      </trkpt>
      <trkpt lat="59.067546995356679" lon="30.004458893090487">
        <ele>87.620000000000005</ele>
        <time>2026-04-25T14:22:22Z</time>
      </trkpt>
      <trkpt lat="59.06747180968523" lon="30.004525361582637">
        <ele>87.620000000000005</ele>
        <time>2026-04-25T14:22:30Z</time>
      </trkpt>
      <trkpt lat="59.067375501617789" lon="30.004612784832716">
        <ele>87.620000000000005</ele>
        <time>2026-04-25T14:22:39Z</time>
      </trkpt>
      <trkpt lat="59.067336861044168" lon="30.004662992432714">
        <ele>87.620000000000005</ele>
        <time>2026-04-25T14:22:44Z</time>
      </trkpt>
      <trkpt lat="59.067298555746675" lon="30.004741782322526">
        <ele>87.620000000000005</ele>
        <time>2026-04-25T14:22:50Z</time>
      </trkpt>
      <trkpt lat="59.067231332883239" lon="30.004839515313506">
        <ele>86.659999999999997</ele>
        <time>2026-04-25T14:23:01Z</time>
      </trkpt>
      <trkpt lat="59.067200487479568" lon="30.00494722276926">
        <ele>86.659999999999997</ele>
        <time>2026-04-25T14:23:10Z</time>
      </trkpt>
      <trkpt lat="59.067189004272223" lon="30.005080914124846">
        <ele>86.659999999999997</ele>
        <time>2026-04-25T14:23:18Z</time>
      </trkpt>
      <trkpt lat="59.067181628197432" lon="30.005110753700137">
        <ele>86.659999999999997</ele>
        <time>2026-04-25T14:23:22Z</time>
      </trkpt>
      <trkpt lat="59.067119350656867" lon="30.005227765068412">
        <ele>86.659999999999997</ele>
        <time>2026-04-25T14:23:32Z</time>
      </trkpt>
      <trkpt lat="59.067059168592095" lon="30.005322983488441">
        <ele>86.659999999999997</ele>
        <time>2026-04-25T14:23:40Z</time>
      </trkpt>
      <trkpt lat="59.067045757547021" lon="30.005341758951545">
        <ele>86.659999999999997</ele>
        <time>2026-04-25T14:23:42Z</time>
      </trkpt>
      <trkpt lat="59.066977528855205" lon="30.005458854138851">
        <ele>86.659999999999997</ele>
        <time>2026-04-25T14:23:51Z</time>
      </trkpt>
      <trkpt lat="59.066955903545022" lon="30.005508894100785">
        <ele>86.659999999999997</ele>
        <time>2026-04-25T14:23:54Z</time>
      </trkpt>
      <trkpt lat="59.066904103383422" lon="30.0057378038764">
        <ele>86.659999999999997</ele>
        <time>2026-04-25T14:24:04Z</time>
      </trkpt>
      <trkpt lat="59.066882813349366" lon="30.005786586552858">
        <ele>86.659999999999997</ele>
        <time>2026-04-25T14:24:09Z</time>
      </trkpt>
      <trkpt lat="59.066839395090938" lon="30.005938550457358">
        <ele>86.659999999999997</ele>
        <time>2026-04-25T14:24:17Z</time>
      </trkpt>
      <trkpt lat="59.066826570779085" lon="30.005966797471046">
        <ele>86.659999999999997</ele>
        <time>2026-04-25T14:24:19Z</time>
      </trkpt>
      <trkpt lat="59.066815758123994" lon="30.006069391965866">
        <ele>86.659999999999997</ele>
        <time>2026-04-25T14:24:25Z</time>
      </trkpt>
      <trkpt lat="59.066777369007468" lon="30.006111972033978">
        <ele>86.659999999999997</ele>
        <time>2026-04-25T14:24:30Z</time>
      </trkpt>
      <trkpt lat="59.066712828353047" lon="30.006207609549165">
        <ele>86.659999999999997</ele>
        <time>2026-04-25T14:24:40Z</time>
      </trkpt>
      <trkpt lat="59.066704865545034" lon="30.006226887926459">
        <ele>86.659999999999997</ele>
        <time>2026-04-25T14:24:47Z</time>
      </trkpt>
      <trkpt lat="59.06670612283051" lon="30.006295535713434">
        <ele>86.659999999999997</ele>
        <time>2026-04-25T14:24:52Z</time>
      </trkpt>
      <trkpt lat="59.066681228578091" lon="30.006502401083708">
        <ele>86.659999999999997</ele>
        <time>2026-04-25T14:25:02Z</time>
      </trkpt>
      <trkpt lat="59.066664464771748" lon="30.006662830710411">
        <ele>86.659999999999997</ele>
        <time>2026-04-25T14:25:11Z</time>
      </trkpt>
      <trkpt lat="59.066625488922" lon="30.006816890090704">
        <ele>87.140000000000001</ele>
        <time>2026-04-25T14:25:20Z</time>
      </trkpt>
      <trkpt lat="59.066562792286277" lon="30.006895428523421">
        <ele>87.140000000000001</ele>
        <time>2026-04-25T14:25:27Z</time>
      </trkpt>
      <trkpt lat="59.066546866670251" lon="30.006935996934772">
        <ele>87.140000000000001</ele>
        <time>2026-04-25T14:25:30Z</time>
      </trkpt>
      <trkpt lat="59.06649892218411" lon="30.00705317594111">
        <ele>87.140000000000001</ele>
        <time>2026-04-25T14:25:40Z</time>
      </trkpt>
      <trkpt lat="59.066469585523009" lon="30.007077651098371">
        <ele>87.140000000000001</ele>
        <time>2026-04-25T14:25:50Z</time>
      </trkpt>
      <trkpt lat="59.066416108980775" lon="30.007179407402873">
        <ele>87.140000000000001</ele>
        <time>2026-04-25T14:25:58Z</time>
      </trkpt>
      <trkpt lat="59.066388197243214" lon="30.007269093766809">
        <ele>87.140000000000001</ele>
        <time>2026-04-25T14:26:06Z</time>
      </trkpt>
      <trkpt lat="59.06637629494071" lon="30.00727403908968">
        <ele>87.140000000000001</ele>
        <time>2026-04-25T14:26:08Z</time>
      </trkpt>
      <trkpt lat="59.066316364333034" lon="30.007322318851948">
        <ele>87.140000000000001</ele>
        <time>2026-04-25T14:26:16Z</time>
      </trkpt>
      <trkpt lat="59.066272275522351" lon="30.007466236129403">
        <ele>87.140000000000001</ele>
        <time>2026-04-25T14:26:26Z</time>
      </trkpt>
      <trkpt lat="59.066218044608831" lon="30.007531950250268">
        <ele>87.140000000000001</ele>
        <time>2026-04-25T14:26:34Z</time>
      </trkpt>
      <trkpt lat="59.066153839230537" lon="30.007567070424557">
        <ele>87.140000000000001</ele>
        <time>2026-04-25T14:26:44Z</time>
      </trkpt>
      <trkpt lat="59.066108409315348" lon="30.007693888619542">
        <ele>87.140000000000001</ele>
        <time>2026-04-25T14:26:52Z</time>
      </trkpt>
      <trkpt lat="59.066108744591475" lon="30.007738899439573">
        <ele>87.140000000000001</ele>
        <time>2026-04-25T14:26:55Z</time>
      </trkpt>
      <trkpt lat="59.066038588061929" lon="30.00782573595643">
        <ele>87.140000000000001</ele>
        <time>2026-04-25T14:27:05Z</time>
      </trkpt>
      <trkpt lat="59.066031211987138" lon="30.007944004610181">
        <ele>87.140000000000001</ele>
        <time>2026-04-25T14:27:13Z</time>
      </trkpt>
      <trkpt lat="59.065991062670946" lon="30.008003180846572">
        <ele>87.140000000000001</ele>
        <time>2026-04-25T14:27:19Z</time>
      </trkpt>
      <trkpt lat="59.065914619714022" lon="30.008061686530709">
        <ele>87.140000000000001</ele>
        <time>2026-04-25T14:27:28Z</time>
      </trkpt>
      <trkpt lat="59.065861226990819" lon="30.008047856390476">
        <ele>87.140000000000001</ele>
        <time>2026-04-25T14:27:35Z</time>
      </trkpt>
      <trkpt lat="59.065802805125713" lon="30.008080126717687">
        <ele>86.659999999999997</ele>
        <time>2026-04-25T14:27:45Z</time>
      </trkpt>
      <trkpt lat="59.06577623449266" lon="30.008113067597151">
        <ele>86.659999999999997</ele>
        <time>2026-04-25T14:27:47Z</time>
      </trkpt>
      <trkpt lat="59.065713956952095" lon="30.008209543302655">
        <ele>86.659999999999997</ele>
        <time>2026-04-25T14:27:57Z</time>
      </trkpt>
      <trkpt lat="59.065657211467624" lon="30.008210884407163">
        <ele>86.659999999999997</ele>
        <time>2026-04-25T14:28:04Z</time>
      </trkpt>
      <trkpt lat="59.065597616136074" lon="30.008291015401483">
        <ele>86.659999999999997</ele>
        <time>2026-04-25T14:28:14Z</time>
      </trkpt>
      <trkpt lat="59.06552410684526" lon="30.008301492780447">
        <ele>86.659999999999997</ele>
        <time>2026-04-25T14:28:22Z</time>
      </trkpt>
      <trkpt lat="59.065439952537417" lon="30.00828112475574">
        <ele>86.659999999999997</ele>
        <time>2026-04-25T14:28:32Z</time>
      </trkpt>
      <trkpt lat="59.065416064113379" lon="30.008284142240882">
        <ele>86.659999999999997</ele>
        <time>2026-04-25T14:28:35Z</time>
      </trkpt>
      <trkpt lat="59.065362671390176" lon="30.008257403969765">
        <ele>86.659999999999997</ele>
        <time>2026-04-25T14:28:41Z</time>
      </trkpt>
      <trkpt lat="59.065286563709378" lon="30.008379025384784">
        <ele>86.659999999999997</ele>
        <time>2026-04-25T14:28:51Z</time>
      </trkpt>
      <trkpt lat="59.065244738012552" lon="30.008438369259238">
        <ele>86.659999999999997</ele>
        <time>2026-04-25T14:28:57Z</time>
      </trkpt>
      <trkpt lat="59.065190674737096" lon="30.008468041196465">
        <ele>86.659999999999997</ele>
        <time>2026-04-25T14:29:01Z</time>
      </trkpt>
      <trkpt lat="59.065081709995866" lon="30.008451025933027">
        <ele>86.659999999999997</ele>
        <time>2026-04-25T14:29:13Z</time>
      </trkpt>
      <trkpt lat="59.065018845722079" lon="30.008489582687616">
        <ele>86.659999999999997</ele>
        <time>2026-04-25T14:29:22Z</time>
      </trkpt>
      <trkpt lat="59.064922789111733" lon="30.008560242131352">
        <ele>86.659999999999997</ele>
        <time>2026-04-25T14:29:29Z</time>
      </trkpt>
      <trkpt lat="59.064842741936445" lon="30.008569462224841">
        <ele>86.659999999999997</ele>
        <time>2026-04-25T14:29:38Z</time>
      </trkpt>
      <trkpt lat="59.064741740003228" lon="30.008673900738358">
        <ele>86.659999999999997</ele>
        <time>2026-04-25T14:29:50Z</time>
      </trkpt>
      <trkpt lat="59.064644929021597" lon="30.008688233792782">
        <ele>86.659999999999997</ele>
        <time>2026-04-25T14:30:00Z</time>
      </trkpt>
      <trkpt lat="59.064580472186208" lon="30.008755875751376">
        <ele>86.659999999999997</ele>
        <time>2026-04-25T14:30:09Z</time>
      </trkpt>
      <trkpt lat="59.064518362283707" lon="30.008769957348704">
        <ele>86.659999999999997</ele>
        <time>2026-04-25T14:30:18Z</time>
      </trkpt>
      <trkpt lat="59.064425993710756" lon="30.008871043100953">
        <ele>86.659999999999997</ele>
        <time>2026-04-25T14:30:29Z</time>
      </trkpt>
      <trkpt lat="59.064353657886386" lon="30.008956538513303">
        <ele>86.659999999999997</ele>
        <time>2026-04-25T14:30:37Z</time>
      </trkpt>
      <trkpt lat="59.064253158867359" lon="30.008959555998445">
        <ele>86.659999999999997</ele>
        <time>2026-04-25T14:30:48Z</time>
      </trkpt>
      <trkpt lat="59.064249387010932" lon="30.008953437209129">
        <ele>86.659999999999997</ele>
        <time>2026-04-25T14:30:49Z</time>
      </trkpt>
      <trkpt lat="59.064224995672703" lon="30.008977828547359">
        <ele>86.659999999999997</ele>
        <time>2026-04-25T14:30:52Z</time>
      </trkpt>
      <trkpt lat="59.064158275723457" lon="30.009034322574735">
        <ele>86.659999999999997</ele>
        <time>2026-04-25T14:30:59Z</time>
      </trkpt>
      <trkpt lat="59.064114773645997" lon="30.009107161313295">
        <ele>86.659999999999997</ele>
        <time>2026-04-25T14:31:11Z</time>
      </trkpt>
      <trkpt lat="59.064019387587905" lon="30.009304219856858">
        <ele>86.659999999999997</ele>
        <time>2026-04-25T14:31:21Z</time>
      </trkpt>
      <trkpt lat="59.063992649316788" lon="30.009306231513619">
        <ele>86.659999999999997</ele>
        <time>2026-04-25T14:31:32Z</time>
      </trkpt>
      <trkpt lat="59.063930623233318" lon="30.009398432448506">
        <ele>86.659999999999997</ele>
        <time>2026-04-25T14:31:42Z</time>
      </trkpt>
      <trkpt lat="59.06387060880661" lon="30.009471857920289">
        <ele>86.659999999999997</ele>
        <time>2026-04-25T14:31:52Z</time>
      </trkpt>
      <trkpt lat="59.063790142536163" lon="30.009595407173038">
        <ele>86.659999999999997</ele>
        <time>2026-04-25T14:32:03Z</time>
      </trkpt>
      <trkpt lat="59.063715292140841" lon="30.009656343609095">
        <ele>86.659999999999997</ele>
        <time>2026-04-25T14:32:12Z</time>
      </trkpt>
      <trkpt lat="59.063662402331829" lon="30.00969079323113">
        <ele>86.659999999999997</ele>
        <time>2026-04-25T14:32:19Z</time>
      </trkpt>
      <trkpt lat="59.063567016273737" lon="30.009809145703912">
        <ele>86.659999999999997</ele>
        <time>2026-04-25T14:32:28Z</time>
      </trkpt>
      <trkpt lat="59.063453692942858" lon="30.009869579225779">
        <ele>86.659999999999997</ele>
        <time>2026-04-25T14:32:37Z</time>
      </trkpt>
      <trkpt lat="59.06336928717792" lon="30.009919116273522">
        <ele>87.140000000000001</ele>
        <time>2026-04-25T14:32:45Z</time>
      </trkpt>
      <trkpt lat="59.063277253881097" lon="30.010003186762333">
        <ele>87.140000000000001</ele>
        <time>2026-04-25T14:32:56Z</time>
      </trkpt>
      <trkpt lat="59.063180778175592" lon="30.010071247816086">
        <ele>87.140000000000001</ele>
        <time>2026-04-25T14:33:05Z</time>
      </trkpt>
      <trkpt lat="59.063096204772592" lon="30.010126903653145">
        <ele>87.140000000000001</ele>
        <time>2026-04-25T14:33:16Z</time>
      </trkpt>
      <trkpt lat="59.063013307750225" lon="30.010279873386025">
        <ele>87.140000000000001</ele>
        <time>2026-04-25T14:33:25Z</time>
      </trkpt>
      <trkpt lat="59.062975505366921" lon="30.010344414040446">
        <ele>87.140000000000001</ele>
        <time>2026-04-25T14:33:32Z</time>
      </trkpt>
      <trkpt lat="59.062882382422686" lon="30.010456899181008">
        <ele>87.140000000000001</ele>
        <time>2026-04-25T14:33:42Z</time>
      </trkpt>
      <trkpt lat="59.062845082953572" lon="30.010468130931258">
        <ele>87.140000000000001</ele>
        <time>2026-04-25T14:33:45Z</time>
      </trkpt>
      <trkpt lat="59.062770651653409" lon="30.010535940527916">
        <ele>87.140000000000001</ele>
        <time>2026-04-25T14:33:55Z</time>
      </trkpt>
      <trkpt lat="59.062718264758587" lon="30.010609533637762">
        <ele>87.140000000000001</ele>
        <time>2026-04-25T14:34:03Z</time>
      </trkpt>
      <trkpt lat="59.062670990824699" lon="30.01068958081305">
        <ele>87.140000000000001</ele>
        <time>2026-04-25T14:34:13Z</time>
      </trkpt>
      <trkpt lat="59.062599577009678" lon="30.010771891102195">
        <ele>87.140000000000001</ele>
        <time>2026-04-25T14:34:21Z</time>
      </trkpt>
      <trkpt lat="59.06250536441803" lon="30.010824613273144">
        <ele>87.140000000000001</ele>
        <time>2026-04-25T14:34:31Z</time>
      </trkpt>
      <trkpt lat="59.062474519014359" lon="30.01085571013391">
        <ele>87.140000000000001</ele>
        <time>2026-04-25T14:34:35Z</time>
      </trkpt>
      <trkpt lat="59.062389945611358" lon="30.010927375406027">
        <ele>87.140000000000001</ele>
        <time>2026-04-25T14:34:43Z</time>
      </trkpt>
      <trkpt lat="59.062298834323883" lon="30.010976074263453">
        <ele>87.140000000000001</ele>
        <time>2026-04-25T14:34:54Z</time>
      </trkpt>
      <trkpt lat="59.062287267297506" lon="30.011002141982317">
        <ele>87.140000000000001</ele>
        <time>2026-04-25T14:34:57Z</time>
      </trkpt>
      <trkpt lat="59.062230186536908" lon="30.011208085343242">
        <ele>87.140000000000001</ele>
        <time>2026-04-25T14:35:08Z</time>
      </trkpt>
      <trkpt lat="59.062221385538578" lon="30.01121629960835">
        <ele>87.140000000000001</ele>
        <time>2026-04-25T14:35:09Z</time>
      </trkpt>
      <trkpt lat="59.062086939811707" lon="30.011222334578633">
        <ele>87.140000000000001</ele>
        <time>2026-04-25T14:35:19Z</time>
      </trkpt>
      <trkpt lat="59.062010664492846" lon="30.011215293779969">
        <ele>87.140000000000001</ele>
        <time>2026-04-25T14:35:29Z</time>
      </trkpt>
      <trkpt lat="59.061972443014383" lon="30.011206492781639">
        <ele>87.140000000000001</ele>
        <time>2026-04-25T14:35:39Z</time>
      </trkpt>
      <trkpt lat="59.06190387904644" lon="30.011070538312197">
        <ele>87.140000000000001</ele>
        <time>2026-04-25T14:35:52Z</time>
      </trkpt>
      <trkpt lat="59.061826849356294" lon="30.011192830279469">
        <ele>87.140000000000001</ele>
        <time>2026-04-25T14:36:02Z</time>
      </trkpt>
      <trkpt lat="59.061875380575657" lon="30.011197021231055">
        <ele>87.140000000000001</ele>
        <time>2026-04-25T14:36:09Z</time>
      </trkpt>
      <trkpt lat="59.061940424144268" lon="30.011107418686152">
        <ele>87.140000000000001</ele>
        <time>2026-04-25T14:36:17Z</time>
      </trkpt>
      <trkpt lat="59.061966994777322" lon="30.011065173894167">
        <ele>87.140000000000001</ele>
        <time>2026-04-25T14:36:20Z</time>
      </trkpt>
      <trkpt lat="59.062019046396017" lon="30.011054193601012">
        <ele>87.140000000000001</ele>
        <time>2026-04-25T14:36:29Z</time>
      </trkpt>
      <trkpt lat="59.062119293957949" lon="30.011027120053768">
        <ele>87.140000000000001</ele>
        <time>2026-04-25T14:36:39Z</time>
      </trkpt>
      <trkpt lat="59.062137315049767" lon="30.010876916348934">
        <ele>87.140000000000001</ele>
        <time>2026-04-25T14:36:48Z</time>
      </trkpt>
      <trkpt lat="59.062186349183321" lon="30.010840957984328">
        <ele>87.140000000000001</ele>
        <time>2026-04-25T14:36:55Z</time>
      </trkpt>
      <trkpt lat="59.062240747734904" lon="30.010809693485498">
        <ele>87.140000000000001</ele>
        <time>2026-04-25T14:37:02Z</time>
      </trkpt>
      <trkpt lat="59.062290033325553" lon="30.010741800069809">
        <ele>86.659999999999997</ele>
        <time>2026-04-25T14:37:11Z</time>
      </trkpt>
      <trkpt lat="59.062273353338242" lon="30.010707350447774">
        <ele>86.659999999999997</ele>
        <time>2026-04-25T14:37:20Z</time>
      </trkpt>
      <trkpt lat="59.06225373968482" lon="30.010588327422738">
        <ele>86.659999999999997</ele>
        <time>2026-04-25T14:37:32Z</time>
      </trkpt>
      <trkpt lat="59.062313502654433" lon="30.010597966611385">
        <ele>86.659999999999997</ele>
        <time>2026-04-25T14:37:39Z</time>
      </trkpt>
      <trkpt lat="59.062377624213696" lon="30.010554380714893">
        <ele>86.659999999999997</ele>
        <time>2026-04-25T14:37:50Z</time>
      </trkpt>
      <trkpt lat="59.062396567314863" lon="30.010560918599367">
        <ele>86.659999999999997</ele>
        <time>2026-04-25T14:37:53Z</time>
      </trkpt>
      <trkpt lat="59.062482314184308" lon="30.010521942749619">
        <ele>87.620000000000005</ele>
        <time>2026-04-25T14:38:02Z</time>
      </trkpt>
      <trkpt lat="59.06253763474524" lon="30.010520266368985">
        <ele>87.620000000000005</ele>
        <time>2026-04-25T14:38:08Z</time>
      </trkpt>
      <trkpt lat="59.062544507905841" lon="30.010507358238101">
        <ele>87.620000000000005</ele>
        <time>2026-04-25T14:38:10Z</time>
      </trkpt>
      <trkpt lat="59.06263972632587" lon="30.010402668267488">
        <ele>87.620000000000005</ele>
        <time>2026-04-25T14:38:20Z</time>
      </trkpt>
      <trkpt lat="59.062660513445735" lon="30.010312059894204">
        <ele>87.620000000000005</ele>
        <time>2026-04-25T14:38:28Z</time>
      </trkpt>
      <trkpt lat="59.062674595043063" lon="30.010282807052135">
        <ele>87.620000000000005</ele>
        <time>2026-04-25T14:38:34Z</time>
      </trkpt>
      <trkpt lat="59.062762018293142" lon="30.010249363258481">
        <ele>87.620000000000005</ele>
        <time>2026-04-25T14:38:43Z</time>
      </trkpt>
      <trkpt lat="59.062811387702823" lon="30.010151630267501">
        <ele>87.620000000000005</ele>
        <time>2026-04-25T14:38:50Z</time>
      </trkpt>
      <trkpt lat="59.062817674130201" lon="30.010035121813416">
        <ele>87.620000000000005</ele>
        <time>2026-04-25T14:38:55Z</time>
      </trkpt>
      <trkpt lat="59.062873665243387" lon="30.009922217577696">
        <ele>87.620000000000005</ele>
        <time>2026-04-25T14:39:04Z</time>
      </trkpt>
      <trkpt lat="59.062933847308159" lon="30.009848289191723">
        <ele>87.620000000000005</ele>
        <time>2026-04-25T14:39:13Z</time>
      </trkpt>
      <trkpt lat="59.062968296930194" lon="30.009772852063179">
        <ele>87.620000000000005</ele>
        <time>2026-04-25T14:39:20Z</time>
      </trkpt>
      <trkpt lat="59.063006266951561" lon="30.009628012776375">
        <ele>87.620000000000005</ele>
        <time>2026-04-25T14:39:29Z</time>
      </trkpt>
      <trkpt lat="59.063103245571256" lon="30.009639579802752">
        <ele>87.620000000000005</ele>
        <time>2026-04-25T14:39:42Z</time>
      </trkpt>
      <trkpt lat="59.063123026862741" lon="30.009603956714272">
        <ele>87.140000000000001</ele>
        <time>2026-04-25T14:39:52Z</time>
      </trkpt>
      <trkpt lat="59.063206510618329" lon="30.009653158485889">
        <ele>87.140000000000001</ele>
        <time>2026-04-25T14:40:05Z</time>
      </trkpt>
      <trkpt lat="59.063285971060395" lon="30.009622313082218">
        <ele>87.140000000000001</ele>
        <time>2026-04-25T14:40:14Z</time>
      </trkpt>
      <trkpt lat="59.063343219459057" lon="30.009552156552672">
        <ele>87.140000000000001</ele>
        <time>2026-04-25T14:40:22Z</time>
      </trkpt>
      <trkpt lat="59.06338638626039" lon="30.00952173024416">
        <ele>87.620000000000005</ele>
        <time>2026-04-25T14:40:28Z</time>
      </trkpt>
      <trkpt lat="59.063439862802625" lon="30.009482335299253">
        <ele>87.620000000000005</ele>
        <time>2026-04-25T14:40:32Z</time>
      </trkpt>
      <trkpt lat="59.06347188167274" lon="30.00944260507822">
        <ele>87.620000000000005</ele>
        <time>2026-04-25T14:40:35Z</time>
      </trkpt>
      <trkpt lat="59.063542122021317" lon="30.009342357516289">
        <ele>87.140000000000001</ele>
        <time>2026-04-25T14:40:45Z</time>
      </trkpt>
      <trkpt lat="59.063606914132833" lon="30.009253174066544">
        <ele>87.140000000000001</ele>
        <time>2026-04-25T14:40:54Z</time>
      </trkpt>
      <trkpt lat="59.063673131167889" lon="30.009227022528648">
        <ele>87.140000000000001</ele>
        <time>2026-04-25T14:41:00Z</time>
      </trkpt>
      <trkpt lat="59.063777402043343" lon="30.009211599826813">
        <ele>87.140000000000001</ele>
        <time>2026-04-25T14:41:08Z</time>
      </trkpt>
      <trkpt lat="59.063843367621303" lon="30.009150160476565">
        <ele>87.140000000000001</ele>
        <time>2026-04-25T14:41:18Z</time>
      </trkpt>
      <trkpt lat="59.06390723772347" lon="30.0092261005193">
        <ele>87.140000000000001</ele>
        <time>2026-04-25T14:41:26Z</time>
      </trkpt>
      <trkpt lat="59.063910590484738" lon="30.009235572069883">
        <ele>87.140000000000001</ele>
        <time>2026-04-25T14:41:27Z</time>
      </trkpt>
      <trkpt lat="59.06393657438457" lon="30.009269854053855">
        <ele>87.140000000000001</ele>
        <time>2026-04-25T14:41:30Z</time>
      </trkpt>
      <trkpt lat="59.064023243263364" lon="30.009293658658862">
        <ele>87.140000000000001</ele>
        <time>2026-04-25T14:41:38Z</time>
      </trkpt>
      <trkpt lat="59.064113097265363" lon="30.009190058335662">
        <ele>87.140000000000001</ele>
        <time>2026-04-25T14:41:47Z</time>
      </trkpt>
      <trkpt lat="59.064167663455009" lon="30.009059468284249">
        <ele>87.140000000000001</ele>
        <time>2026-04-25T14:41:55Z</time>
      </trkpt>
      <trkpt lat="59.064253577962518" lon="30.008956622332335">
        <ele>87.140000000000001</ele>
        <time>2026-04-25T14:42:04Z</time>
      </trkpt>
      <trkpt lat="59.064340917393565" lon="30.00888847745955">
        <ele>87.620000000000005</ele>
        <time>2026-04-25T14:42:17Z</time>
      </trkpt>
      <trkpt lat="59.064390538260341" lon="30.008837264031172">
        <ele>87.620000000000005</ele>
        <time>2026-04-25T14:42:23Z</time>
      </trkpt>
      <trkpt lat="59.064461197704077" lon="30.008818656206131">
        <ele>87.620000000000005</ele>
        <time>2026-04-25T14:42:28Z</time>
      </trkpt>
      <trkpt lat="59.064499503001571" lon="30.008799126371741">
        <ele>87.620000000000005</ele>
        <time>2026-04-25T14:42:31Z</time>
      </trkpt>
      <trkpt lat="59.064595559611917" lon="30.008765514940023">
        <ele>87.620000000000005</ele>
        <time>2026-04-25T14:42:40Z</time>
      </trkpt>
      <trkpt lat="59.064617771655321" lon="30.008735004812479">
        <ele>87.620000000000005</ele>
        <time>2026-04-25T14:42:42Z</time>
      </trkpt>
      <trkpt lat="59.064661776646972" lon="30.008699633181095">
        <ele>87.620000000000005</ele>
        <time>2026-04-25T14:42:45Z</time>
      </trkpt>
      <trkpt lat="59.064732603728771" lon="30.008591925725341">
        <ele>87.620000000000005</ele>
        <time>2026-04-25T14:42:54Z</time>
      </trkpt>
      <trkpt lat="59.064670074731112" lon="30.008564768359065">
        <ele>87.620000000000005</ele>
        <time>2026-04-25T14:43:02Z</time>
      </trkpt>
      <trkpt lat="59.064624393358827" lon="30.008598212152719">
        <ele>87.620000000000005</ele>
        <time>2026-04-25T14:43:09Z</time>
      </trkpt>
      <trkpt lat="59.064558260142803" lon="30.008612545207143">
        <ele>87.620000000000005</ele>
        <time>2026-04-25T14:43:16Z</time>
      </trkpt>
      <trkpt lat="59.064466310665011" lon="30.008700555190444">
        <ele>87.620000000000005</ele>
        <time>2026-04-25T14:43:27Z</time>
      </trkpt>
      <trkpt lat="59.064413085579872" lon="30.008774735033512">
        <ele>87.620000000000005</ele>
        <time>2026-04-25T14:43:37Z</time>
      </trkpt>
      <trkpt lat="59.064346197992563" lon="30.008788900449872">
        <ele>87.620000000000005</ele>
        <time>2026-04-25T14:43:45Z</time>
      </trkpt>
      <trkpt lat="59.064303282648325" lon="30.008825697004795">
        <ele>88.099999999999994</ele>
        <time>2026-04-25T14:43:58Z</time>
      </trkpt>
      <trkpt lat="59.064276628196239" lon="30.008824355900288">
        <ele>88.099999999999994</ele>
        <time>2026-04-25T14:44:03Z</time>
      </trkpt>
      <trkpt lat="59.064212338998914" lon="30.00893390737474">
        <ele>88.099999999999994</ele>
        <time>2026-04-25T14:44:14Z</time>
      </trkpt>
      <trkpt lat="59.064182499423623" lon="30.008982270956039">
        <ele>88.099999999999994</ele>
        <time>2026-04-25T14:44:27Z</time>
      </trkpt>
      <trkpt lat="59.064146960154176" lon="30.008975313976407">
        <ele>88.099999999999994</ele>
        <time>2026-04-25T14:44:38Z</time>
      </trkpt>
      <trkpt lat="59.064185516908765" lon="30.008989563211799">
        <ele>88.099999999999994</ele>
        <time>2026-04-25T14:44:47Z</time>
      </trkpt>
      <trkpt lat="59.064118880778551" lon="30.009055444970727">
        <ele>88.099999999999994</ele>
        <time>2026-04-25T14:44:58Z</time>
      </trkpt>
      <trkpt lat="59.064107313752174" lon="30.009029293432832">
        <ele>88.099999999999994</ele>
        <time>2026-04-25T14:45:06Z</time>
      </trkpt>
      <trkpt lat="59.064152324572206" lon="30.009019486606121">
        <ele>88.099999999999994</ele>
        <time>2026-04-25T14:45:17Z</time>
      </trkpt>
      <trkpt lat="59.06422876752913" lon="30.009033903479576">
        <ele>88.099999999999994</ele>
        <time>2026-04-25T14:45:30Z</time>
      </trkpt>
      <trkpt lat="59.064104128628969" lon="30.009186370298266">
        <ele>88.099999999999994</ele>
        <time>2026-04-25T14:45:41Z</time>
      </trkpt>
      <trkpt lat="59.064084431156516" lon="30.009241104125977">
        <ele>88.099999999999994</ele>
        <time>2026-04-25T14:45:44Z</time>
      </trkpt>
      <trkpt lat="59.064080072566867" lon="30.009037842974067">
        <ele>88.099999999999994</ele>
        <time>2026-04-25T14:45:58Z</time>
      </trkpt>
      <trkpt lat="59.064028356224298" lon="30.0090585462749">
        <ele>88.099999999999994</ele>
        <time>2026-04-25T14:46:09Z</time>
      </trkpt>
      <trkpt lat="59.063992397859693" lon="30.009222663938999">
        <ele>88.099999999999994</ele>
        <time>2026-04-25T14:46:17Z</time>
      </trkpt>
      <trkpt lat="59.063963061198592" lon="30.009330036118627">
        <ele>88.099999999999994</ele>
        <time>2026-04-25T14:46:29Z</time>
      </trkpt>
      <trkpt lat="59.06392190605402" lon="30.009388960897923">
        <ele>88.099999999999994</ele>
        <time>2026-04-25T14:46:36Z</time>
      </trkpt>
      <trkpt lat="59.063889384269714" lon="30.009462302550673">
        <ele>88.099999999999994</ele>
        <time>2026-04-25T14:46:49Z</time>
      </trkpt>
      <trkpt lat="59.063809756189585" lon="30.009591048583388">
        <ele>88.099999999999994</ele>
        <time>2026-04-25T14:46:59Z</time>
      </trkpt>
      <trkpt lat="59.063720908015966" lon="30.009669587016106">
        <ele>88.099999999999994</ele>
        <time>2026-04-25T14:47:07Z</time>
      </trkpt>
      <trkpt lat="59.063626695424318" lon="30.009727003052831">
        <ele>88.099999999999994</ele>
        <time>2026-04-25T14:47:15Z</time>
      </trkpt>
      <trkpt lat="59.063601801171899" lon="30.009742425754666">
        <ele>88.099999999999994</ele>
        <time>2026-04-25T14:47:16Z</time>
      </trkpt>
      <trkpt lat="59.063473558053374" lon="30.009846864268184">
        <ele>88.099999999999994</ele>
        <time>2026-04-25T14:47:27Z</time>
      </trkpt>
      <trkpt lat="59.063365515321493" lon="30.009990194812417">
        <ele>88.099999999999994</ele>
        <time>2026-04-25T14:47:37Z</time>
      </trkpt>
      <trkpt lat="59.063295526430011" lon="30.010047610849142">
        <ele>88.099999999999994</ele>
        <time>2026-04-25T14:47:44Z</time>
      </trkpt>
      <trkpt lat="59.063221178948879" lon="30.01010368578136">
        <ele>88.579999999999998</ele>
        <time>2026-04-25T14:47:51Z</time>
      </trkpt>
      <trkpt lat="59.063183879479766" lon="30.010117935016751">
        <ele>88.579999999999998</ele>
        <time>2026-04-25T14:47:54Z</time>
      </trkpt>
      <trkpt lat="59.063168372958899" lon="30.010122042149305">
        <ele>88.579999999999998</ele>
        <time>2026-04-25T14:47:56Z</time>
      </trkpt>
      <trkpt lat="59.063077429309487" lon="30.010194880887866">
        <ele>88.579999999999998</ele>
        <time>2026-04-25T14:48:05Z</time>
      </trkpt>
      <trkpt lat="59.063082206994295" lon="30.010154731571674">
        <ele>88.579999999999998</ele>
        <time>2026-04-25T14:48:15Z</time>
      </trkpt>
      <trkpt lat="59.063025964424014" lon="30.010181721299887">
        <ele>88.579999999999998</ele>
        <time>2026-04-25T14:48:22Z</time>
      </trkpt>
    </trkseg>
  </trk>

</gpx>